[[{"header":{"parameterUnit":"m.s-1","parameterCategory":1,"la1":31.0,"la2":29.5877,"lo1":-88.7671,"lo2":-86.6584,"dy":0.0162,"dx":0.0185,"nx":115,"ny":88,"refTime":"2023-03-04T06:00:00:Z","depth":0,"parameterNumber":2,"parameterNumberName":"U-component_of_WINDS"},"data":[0.0,0.0,0.0,0.0,0.0,0.0,0.0,0.0,0.0,0.0,0.0,0.0,0.0,0.0,0.0,0.0,0.0,0.0,0.0,0.0,0.0,0.0,0.0,0.0,0.0,0.0,0.0,0.0,0.0,0.0,0.0,0.0,0.0,0.0,0.0,0.0,0.0,0.0,0.0,0.0,0.0,0.0,0.0,0.0,0.0,0.0,0.0,0.0,0.0,0.0,0.0,0.0,0.0,0.0,0.0,0.0,0.0,0.0,0.0,0.0,0.0,0.0,0.0,0.0,0.0,0.0,0.0,0.0,0.0,0.0,0.0,0.0,0.0,0.0,0.0,0.0,0.0,0.0,0.0,0.0,0.0,0.0,0.0,0.0,0.0,0.0,0.0,0.0,0.0,0.0,0.0,0.0,0.0,0.0,0.0,0.0,0.0,0.0,0.0,0.0,0.0,0.0,0.0,0.0,0.0,0.0,0.0,0.0,0.0,0.0,0.0,0.0,0.0,0.0,0.0,0.0,0.0,0.0,0.0,0.0,0.0,0.0,0.0,0.0,0.0,0.0,0.0,0.0,0.0,0.0,0.0,0.0,0.0,0.0,0.0,0.0,0.0,0.0,0.0,0.0,0.0,0.0,0.0,0.0,0.0,0.0,0.0,0.0,0.0,0.0,0.0,0.0,0.0,0.0,0.0,0.0,0.0,0.0,0.0,0.0,0.0,0.0,0.0,0.0,0.0,0.0,0.0,0.0,0.0,0.0,0.0,0.0,0.0,0.0,0.0,0.0,0.0,0.0,0.0,0.0,0.0,0.0,0.0,0.0,0.0,0.0,0.0,0.0,0.0,0.0,0.0,0.0,0.0,0.0,0.0,0.0,0.0,0.0,0.0,0.0,0.0,0.0,0.0,0.0,0.0,0.0,0.0,0.0,0.0,0.0,0.0,0.0,0.0,0.0,0.0,0.0,0.0,0.0,0.0,0.0,0.0,0.0,0.0,0.0,0.0,0.0,0.0,0.0,0.0,0.0,0.0,0.0,0.0,0.0,0.0,0.0,0.0,0.0,0.0,0.0,0.0,0.0,0.0,0.0,0.0,0.0,0.0,0.0,0.0,0.0,0.0,0.0,0.0,0.0,0.0,0.0,0.0,0.0,0.0,0.0,0.0,0.0,0.0,0.0,0.0,0.0,0.0,0.0,0.0,0.0,0.0,0.0,0.0,0.0,0.0,0.0,0.0,0.0,0.0,0.0,0.0,0.0,0.0,0.0,0.0,0.0,0.0,0.0,0.0,0.0,0.0,0.0,0.0,0.0,0.0,0.0,0.0,0.0,0.0,0.0,0.0,0.0,0.0,0.0,0.0,0.0,0.0,0.0,0.0,0.0,0.0,0.0,0.0,0.0,0.0,0.0,0.0,0.0,0.0,0.0,0.0,0.0,0.0,0.0,0.0,0.0,0.0,0.0,0.0,0.0,0.0,0.0,0.0,0.0,0.0,0.0,0.0,0.0,0.0,0.0,0.0,0.0,0.0,0.0,0.0,0.0,0.0,0.0,0.0,0.0,0.0,0.0,0.0,0.0,0.0,0.0,0.0,0.0,0.0,0.0,0.0,0.0,0.0,0.0,0.0,0.0,0.0,0.0,0.0,0.0,0.0,0.0,0.0,0.0,0.0,0.0,0.0,0.0,0.0,0.0,0.0,0.0,0.0,0.0,0.0,0.0,0.0,0.0,0.0,0.0,0.0,0.0,0.0,0.0,0.0,0.0,0.0,0.0,0.0,0.0,0.0,0.0,0.0,0.0,0.0,0.0,0.0,0.0,0.0,0.0,0.0,0.0,0.0,0.0,0.0,0.0,0.0,0.0,0.0,0.0,0.0,0.0,0.0,0.0,0.0,0.0,0.0,0.0,0.0,0.0,0.0,0.0,0.0,0.0,0.0,0.0,0.0,0.0,0.0,0.0,0.0,0.0,0.0,0.0,0.0,0.0,0.0,0.0,0.0,0.0,0.0,0.0,0.0,0.0,0.0,0.0,0.0,0.0,0.0,0.0,0.0,0.0,0.0,0.0,0.0,0.0,0.0,0.0,0.0,0.0,0.0,0.0,0.0,0.0,0.0,0.0,0.0,0.0,0.0,0.0,0.0,0.0,0.0,0.0,0.0,0.0,0.0,0.0,0.0,0.0,0.0,0.0,0.0,0.0,0.0,0.0,0.0,0.0,0.0,0.0,0.0,0.0,0.0,0.0,0.0,0.0,0.0,0.0,0.0,0.0,0.0,0.0,0.0,0.0,0.0,0.0,0.0,0.0,0.0,0.0,0.0,0.0,0.0,0.0,0.0,0.0,0.0,0.0,0.0,0.0,0.0,0.0,0.0,0.0,0.0,0.0,0.0,0.0,0.0,0.0,0.0,0.0,0.0,0.0,0.0,0.0,0.0,0.0,0.0,0.0,0.0,0.0,0.0,0.0,0.0,0.0,0.0,0.0,0.0,0.0,0.0,0.0,0.0,0.0,0.0,0.0,0.0,0.0,0.0,0.0,0.0,0.0,0.0,0.0,0.0,0.0,0.0,0.0,0.0,0.0,0.0,0.0,0.0,0.0,0.0,0.0,0.0,0.0,0.0,0.0,0.0,0.0,0.0,0.0,0.0,0.0,0.0,0.0,0.0,0.0,0.0,0.0,0.0,0.0,0.0,0.0,0.0,0.0,0.0,0.0,0.0,0.0,0.0,0.0,0.0,0.0,0.0,0.0,0.0,0.0,0.0,0.0,0.0,0.0,0.0,0.0,0.0,0.0,0.0,0.0,0.0,0.0,0.0,0.0,0.0,0.0,0.0,0.0,0.0,0.0,0.0,0.0,0.0,0.0,0.0,0.0,0.0,0.0,0.0,0.0,0.0,0.0,0.0,0.0,0.0,0.0,0.0,0.0,0.0,0.0,0.0,0.0,0.0,0.0,0.0,0.0,0.0,0.0,0.0,0.0,0.0,0.0,0.0,0.0,0.0,0.0,0.0,0.0,0.0,0.0,0.0,0.0,0.0,0.0,0.0,0.0,0.0,0.0,0.0,0.0,0.0,0.0,0.0,0.0,0.0,0.0,0.0,0.0,0.0,0.0,0.0,0.0,0.0,0.0,0.0,0.0,0.0,0.0,0.0,0.0,0.0,0.0,0.0,0.0,0.0,0.0,0.0,0.0,0.0,0.0,0.0,0.0,0.0,0.0,0.0,0.0,0.0,0.0,0.0,0.0,0.0,0.0,0.0,0.0,0.0,0.0,0.0,0.0,0.0,0.0,0.0,0.0,0.0,0.0,0.0,0.0,0.0,0.0,0.0,0.0,0.0,0.0,0.0,0.0,0.0,0.0,0.0,0.0,0.0,0.0,0.0,0.0,0.0,0.0,0.0,0.0,0.0,0.0,0.0,0.0,0.0,0.0,0.0,0.0,0.0,0.0,0.0,0.0,0.0,0.0,0.0,0.0,0.0,0.0,0.0,0.0,0.0,0.0,0.0,0.0,0.0,0.0,0.0,0.0,0.0,0.0,0.0,0.0,0.0,0.0,0.0,0.0,0.0,0.0,0.0,0.0,0.0,0.0,0.0,0.0,0.0,0.0,0.0,0.0,0.0,0.0,0.0,0.0,0.0,0.0,0.0,0.0,0.0,0.0,0.0,0.0,0.0,0.0,0.0,0.0,0.0,0.0,0.0,0.0,0.0,0.0,0.0,0.0,0.0,0.0,0.0,0.0,0.0,0.0,0.0,0.0,0.0,0.0,0.0,0.0,0.0,0.0,0.0,0.0,0.0,0.0,0.0,0.0,0.0,0.0,0.0,0.0,0.0,0.0,0.0,0.0,0.0,0.0,0.0,0.0,0.0,0.0,0.0,0.0,0.0,0.0,0.0,0.0,0.0,0.0,0.0,0.0,0.0,0.0,0.0,0.0,0.0,0.0,0.0,0.0,0.0,0.0,0.0,0.0,0.0,0.0,0.0,0.0,0.0,0.0,0.0,0.0,0.0,0.0,0.0,0.0,0.0,0.0,0.0,0.0,0.0,0.0,0.0,0.0,0.0,0.0,0.0,0.0,0.0,0.0,0.0,0.0,0.0,0.0,0.0,0.0,0.0,0.0,0.0,0.0,0.0,0.0,0.0,0.0,0.0,0.0,0.0,0.0,0.0,0.0,0.0,0.0,0.0,0.0,0.0,0.0,0.0,0.0,0.0,0.0,0.0,0.0,0.0,0.0,0.0,0.0,0.0,0.0,0.0,0.0,0.0,0.0,0.0,0.0,0.0,0.0,-1.811,0.0,0.0,0.0,0.0,0.0,0.0,0.0,0.0,0.0,0.0,0.0,0.0,0.0,0.0,0.0,0.0,0.0,0.0,0.0,0.0,0.0,0.0,0.0,0.0,0.0,0.0,0.0,0.0,0.0,0.0,0.0,0.0,0.0,0.0,0.0,0.0,0.0,0.0,0.0,0.0,0.0,0.0,0.0,0.0,0.0,0.0,0.0,0.0,0.0,0.0,0.0,0.0,0.0,0.0,0.0,0.0,0.0,0.0,0.0,0.0,0.0,0.0,0.0,0.0,0.0,0.0,0.0,0.0,0.0,0.0,0.0,0.0,0.0,0.0,0.0,0.0,0.0,0.0,0.0,0.0,0.0,0.0,0.0,0.0,0.0,0.0,0.0,0.0,0.0,0.0,0.0,0.0,0.0,0.0,0.0,0.0,0.0,0.0,0.0,0.0,0.0,0.0,0.0,0.0,0.0,0.0,0.0,0.0,0.0,0.0,-1.9918,-1.9229,-1.9745,-1.9604,-1.8741,0.0,0.0,0.0,0.0,0.0,0.0,0.0,0.0,0.0,0.0,0.0,0.0,0.0,0.0,0.0,0.0,0.0,0.0,0.0,0.0,0.0,0.0,0.0,0.0,0.0,0.0,0.0,0.0,0.0,0.0,0.0,0.0,0.0,0.0,0.0,0.0,0.0,0.0,0.0,0.0,0.0,0.0,0.0,0.0,0.0,0.0,0.0,0.0,0.0,0.0,0.0,0.0,0.0,0.0,0.0,0.0,0.0,0.0,0.0,0.0,0.0,0.0,0.0,0.0,0.0,0.0,0.0,0.0,0.0,0.0,0.0,0.0,0.0,0.0,0.0,0.0,0.0,0.0,0.0,0.0,0.0,0.0,0.0,0.0,0.0,0.0,0.0,0.0,0.0,0.0,0.0,0.0,0.0,0.0,0.0,0.0,0.0,0.0,0.0,0.0,0.0,0.0,0.0,0.0,0.0,0.0,0.0,0.0,0.0,0.0,0.0,0.0,-2.1142,-2.1393,-2.0982,0.0,0.0,0.0,0.0,0.0,0.0,0.0,0.0,0.0,0.0,0.0,0.0,0.0,0.0,0.0,0.0,0.0,0.0,0.0,0.0,0.0,0.0,0.0,0.0,0.0,0.0,0.0,0.0,0.0,0.0,0.0,0.0,0.0,0.0,0.0,0.0,0.0,0.0,0.0,0.0,0.0,0.0,0.0,0.0,0.0,0.0,0.0,0.0,0.0,0.0,0.0,0.0,0.0,0.0,0.0,0.0,0.0,0.0,0.0,0.0,0.0,0.0,0.0,0.0,0.0,0.0,0.0,0.0,0.0,0.0,0.0,0.0,0.0,0.0,0.0,0.0,0.0,0.0,0.0,0.0,0.0,0.0,0.0,0.0,0.0,0.0,0.0,0.0,0.0,0.0,0.0,0.0,0.0,0.0,0.0,0.0,0.0,0.0,0.0,0.0,0.0,0.0,0.0,0.0,0.0,0.0,0.0,0.0,0.0,0.0,-2.0786,-2.363,-2.3996,0.0,-2.5705,0.0,0.0,0.0,0.0,0.0,0.0,0.0,0.0,0.0,0.0,0.0,0.0,0.0,0.0,0.0,0.0,0.0,0.0,0.0,0.0,0.0,0.0,0.0,0.0,0.0,0.0,0.0,0.0,0.0,0.0,0.0,0.0,0.0,0.0,0.0,0.0,0.0,0.0,0.0,0.0,0.0,0.0,0.0,0.0,0.0,0.0,0.0,0.0,0.0,0.0,0.0,0.0,0.0,0.0,0.0,0.0,0.0,0.0,0.0,0.0,0.0,0.0,0.0,0.0,0.0,0.0,0.0,0.0,0.0,0.0,0.0,0.0,0.0,0.0,0.0,0.0,0.0,0.0,0.0,0.0,0.0,0.0,0.0,0.0,0.0,0.0,0.0,0.0,0.0,0.0,0.0,0.0,0.0,0.0,0.0,0.0,0.0,0.0,0.0,0.0,0.0,0.0,0.0,0.0,0.0,0.0,0.0,0.0,0.0,0.0,-2.1455,-2.43,-2.5003,-2.5329,0.0,0.0,0.0,0.0,0.0,0.0,0.0,0.0,0.0,0.0,0.0,0.0,0.0,0.0,0.0,0.0,0.0,0.0,0.0,0.0,0.0,0.0,0.0,0.0,0.0,0.0,0.0,0.0,0.0,0.0,0.0,0.0,0.0,0.0,0.0,0.0,0.0,0.0,0.0,0.0,0.0,0.0,0.0,0.0,0.0,0.0,0.0,0.0,0.0,0.0,0.0,0.0,0.0,0.0,0.0,0.0,0.0,0.0,0.0,0.0,0.0,0.0,0.0,0.0,0.0,0.0,0.0,0.0,0.0,0.0,0.0,0.0,0.0,0.0,0.0,0.0,0.0,0.0,0.0,0.0,0.0,0.0,0.0,0.0,0.0,0.0,0.0,0.0,0.0,0.0,0.0,0.0,0.0,0.0,0.0,0.0,0.0,0.0,0.0,0.0,0.0,0.0,0.0,0.0,0.0,0.0,0.0,0.0,0.0,0.0,-2.1615,-2.3021,-2.5735,-2.548,-2.5196,-2.5065,0.0,0.0,0.0,0.0,0.0,0.0,0.0,0.0,0.0,0.0,0.0,0.0,0.0,0.0,0.0,0.0,0.0,0.0,0.0,0.0,0.0,0.0,0.0,0.0,0.0,0.0,0.0,0.0,0.0,0.0,0.0,0.0,0.0,0.0,0.0,0.0,0.0,0.0,0.0,0.0,0.0,0.0,0.0,0.0,0.0,0.0,0.0,0.0,0.0,0.0,0.0,0.0,0.0,0.0,0.0,0.0,0.0,0.0,0.0,0.0,0.0,0.0,0.0,0.0,0.0,0.0,0.0,0.0,0.0,0.0,0.0,0.0,0.0,0.0,0.0,0.0,0.0,0.0,0.0,0.0,0.0,0.0,0.0,0.0,0.0,0.0,0.0,0.0,0.0,0.0,0.0,0.0,0.0,0.0,0.0,0.0,0.0,0.0,0.0,0.0,0.0,0.0,0.0,0.0,0.0,0.0,0.0,0.0,-2.7348,-2.5415,-2.5937,-2.9266,-2.5712,-2.4631,0.0,0.0,0.0,0.0,0.0,0.0,0.0,0.0,0.0,0.0,0.0,0.0,0.0,0.0,0.0,0.0,0.0,0.0,0.0,0.0,0.0,0.0,0.0,0.0,0.0,0.0,0.0,0.0,0.0,0.0,0.0,0.0,0.0,0.0,0.0,0.0,0.0,0.0,0.0,0.0,0.0,0.0,0.0,0.0,0.0,0.0,0.0,0.0,0.0,0.0,0.0,0.0,0.0,0.0,0.0,0.0,0.0,0.0,0.0,0.0,0.0,0.0,0.0,0.0,0.0,0.0,0.0,0.0,0.0,0.0,0.0,0.0,0.0,0.0,0.0,0.0,0.0,0.0,0.0,0.0,0.0,0.0,0.0,0.0,0.0,0.0,0.0,0.0,0.0,0.0,0.0,0.0,0.0,0.0,0.0,0.0,0.0,0.0,0.0,0.0,0.0,0.0,0.0,0.0,0.0,0.0,0.0,0.0,0.0,-2.2339,-2.4355,-2.69,-2.9769,-2.7919,-2.7393,0.0,0.0,0.0,0.0,0.0,0.0,0.0,0.0,0.0,0.0,0.0,0.0,0.0,0.0,0.0,0.0,0.0,0.0,0.0,0.0,0.0,0.0,0.0,0.0,0.0,0.0,0.0,0.0,0.0,0.0,0.0,0.0,0.0,0.0,0.0,0.0,0.0,0.0,0.0,0.0,0.0,0.0,0.0,0.0,0.0,0.0,0.0,0.0,0.0,0.0,0.0,0.0,0.0,0.0,0.0,0.0,0.0,0.0,0.0,0.0,0.0,0.0,0.0,0.0,0.0,0.0,0.0,0.0,0.0,0.0,0.0,0.0,0.0,0.0,0.0,0.0,0.0,0.0,0.0,0.0,0.0,0.0,0.0,0.0,0.0,0.0,0.0,0.0,0.0,0.0,0.0,0.0,0.0,0.0,0.0,0.0,0.0,0.0,0.0,0.0,0.0,0.0,0.0,0.0,0.0,0.0,0.0,0.0,0.0,-2.1642,0.0,-2.9024,-2.9513,-2.8757,-2.8096,0.0,0.0,0.0,0.0,0.0,0.0,0.0,0.0,0.0,0.0,0.0,0.0,0.0,0.0,0.0,0.0,0.0,0.0,0.0,0.0,0.0,0.0,0.0,0.0,0.0,0.0,0.0,0.0,0.0,0.0,0.0,0.0,0.0,0.0,0.0,0.0,0.0,0.0,0.0,0.0,0.0,0.0,0.0,0.0,0.0,0.0,0.0,0.0,0.0,0.0,0.0,0.0,0.0,0.0,0.0,0.0,0.0,0.0,0.0,0.0,0.0,0.0,0.0,0.0,0.0,0.0,0.0,0.0,0.0,0.0,0.0,0.0,0.0,0.0,0.0,0.0,0.0,0.0,0.0,0.0,0.0,0.0,0.0,0.0,0.0,0.0,0.0,0.0,0.0,0.0,0.0,0.0,0.0,0.0,0.0,0.0,0.0,0.0,0.0,0.0,0.0,0.0,0.0,0.0,0.0,0.0,0.0,0.0,-2.1226,-2.6552,-3.1445,-3.2201,-2.8817,-2.796,-2.6339,0.0,0.0,0.0,0.0,0.0,0.0,0.0,0.0,0.0,0.0,0.0,0.0,0.0,0.0,0.0,0.0,0.0,0.0,0.0,0.0,0.0,0.0,0.0,0.0,0.0,0.0,0.0,0.0,0.0,0.0,0.0,0.0,0.0,0.0,0.0,0.0,0.0,0.0,0.0,0.0,0.0,0.0,0.0,0.0,0.0,0.0,0.0,0.0,0.0,0.0,0.0,0.0,0.0,0.0,0.0,0.0,0.0,0.0,0.0,0.0,0.0,0.0,0.0,0.0,0.0,0.0,0.0,0.0,0.0,0.0,0.0,0.0,0.0,0.0,0.0,0.0,0.0,0.0,0.0,0.0,0.0,0.0,0.0,0.0,0.0,0.0,0.0,0.0,0.0,0.0,0.0,0.0,0.0,0.0,0.0,0.0,0.0,0.0,0.0,0.0,0.0,0.0,0.0,0.0,0.0,0.0,0.0,0.0,0.0,-2.4506,-2.838,-3.0793,-3.1355,-2.8395,-2.7399,0.0,0.0,0.0,0.0,0.0,0.0,0.0,0.0,0.0,0.0,0.0,0.0,0.0,0.0,0.0,0.0,0.0,0.0,0.0,0.0,0.0,0.0,0.0,0.0,0.0,0.0,0.0,0.0,0.0,0.0,0.0,0.0,0.0,0.0,0.0,0.0,0.0,0.0,0.0,0.0,0.0,0.0,0.0,0.0,0.0,0.0,0.0,0.0,0.0,0.0,0.0,0.0,0.0,0.0,0.0,0.0,0.0,0.0,0.0,0.0,0.0,0.0,0.0,0.0,0.0,0.0,0.0,0.0,0.0,0.0,0.0,0.0,0.0,0.0,0.0,0.0,0.0,0.0,0.0,0.0,0.0,0.0,0.0,0.0,0.0,0.0,0.0,0.0,0.0,0.0,0.0,0.0,0.0,0.0,0.0,0.0,0.0,0.0,0.0,0.0,0.0,0.0,0.0,0.0,0.0,0.0,0.0,0.0,0.0,-2.5925,-2.9471,-3.1684,-3.2249,-2.9391,-2.8147,-2.8738,0.0,0.0,0.0,0.0,0.0,0.0,0.0,0.0,0.0,0.0,0.0,0.0,0.0,0.0,0.0,0.0,0.0,0.0,0.0,0.0,0.0,0.0,0.0,0.0,0.0,0.0,0.0,0.0,0.0,0.0,0.0,0.0,0.0,0.0,0.0,0.0,0.0,0.0,0.0,0.0,0.0,0.0,0.0,0.0,0.0,0.0,0.0,0.0,0.0,0.0,0.0,0.0,0.0,0.0,0.0,0.0,0.0,0.0,0.0,0.0,0.0,0.0,0.0,0.0,0.0,0.0,0.0,0.0,0.0,0.0,0.0,0.0,0.0,0.0,0.0,0.0,0.0,0.0,0.0,0.0,0.0,0.0,0.0,0.0,0.0,0.0,0.0,0.0,0.0,0.0,0.0,0.0,0.0,0.0,0.0,0.0,0.0,0.0,0.0,0.0,0.0,0.0,0.0,0.0,0.0,0.0,0.0,0.0,-2.9826,-3.3949,-3.4688,-3.1874,-3.0802,-2.871,0.0,0.0,0.0,0.0,0.0,0.0,0.0,0.0,0.0,0.0,0.0,0.0,0.0,0.0,0.0,0.0,0.0,0.0,0.0,0.0,0.0,0.0,0.0,0.0,0.0,0.0,0.0,0.0,0.0,0.0,0.0,0.0,0.0,0.0,0.0,0.0,0.0,0.0,0.0,0.0,0.0,0.0,0.0,0.0,0.0,0.0,0.0,0.0,0.0,0.0,0.0,0.0,0.0,0.0,0.0,0.0,0.0,0.0,0.0,0.0,0.0,0.0,0.0,0.0,0.0,0.0,0.0,0.0,0.0,0.0,0.0,0.0,0.0,0.0,0.0,0.0,0.0,0.0,0.0,0.0,0.0,0.0,0.0,0.0,0.0,0.0,0.0,0.0,0.0,0.0,0.0,0.0,0.0,0.0,0.0,0.0,0.0,0.0,0.0,0.0,0.0,0.0,0.0,0.0,0.0,0.0,0.0,0.0,0.0,-3.1713,-3.5436,-3.6761,-3.5367,-3.2139,-3.0138,0.0,0.0,0.0,0.0,0.0,0.0,0.0,0.0,0.0,0.0,0.0,0.0,0.0,0.0,0.0,0.0,0.0,0.0,0.0,0.0,0.0,0.0,0.0,0.0,0.0,0.0,0.0,0.0,0.0,0.0,0.0,0.0,0.0,0.0,0.0,0.0,0.0,0.0,0.0,0.0,0.0,0.0,0.0,0.0,0.0,0.0,0.0,0.0,0.0,0.0,0.0,0.0,0.0,0.0,0.0,0.0,0.0,0.0,0.0,0.0,0.0,0.0,0.0,0.0,0.0,0.0,0.0,0.0,0.0,0.0,0.0,0.0,0.0,0.0,0.0,0.0,0.0,0.0,0.0,0.0,0.0,0.0,0.0,0.0,0.0,0.0,0.0,0.0,0.0,0.0,0.0,0.0,0.0,0.0,0.0,0.0,0.0,0.0,0.0,0.0,0.0,0.0,0.0,0.0,0.0,0.0,0.0,0.0,-3.1061,-3.4402,-3.744,-3.8975,-3.8981,-3.5444,-3.2448,0.0,0.0,0.0,0.0,0.0,0.0,0.0,0.0,0.0,0.0,0.0,0.0,0.0,0.0,0.0,0.0,0.0,0.0,0.0,0.0,0.0,0.0,0.0,0.0,0.0,0.0,0.0,0.0,0.0,0.0,0.0,0.0,0.0,0.0,0.0,0.0,0.0,0.0,0.0,0.0,0.0,0.0,0.0,0.0,0.0,0.0,0.0,0.0,0.0,0.0,0.0,0.0,0.0,0.0,0.0,0.0,0.0,0.0,0.0,0.0,0.0,0.0,0.0,0.0,0.0,0.0,0.0,0.0,0.0,0.0,0.0,0.0,0.0,0.0,0.0,0.0,0.0,0.0,0.0,0.0,0.0,0.0,0.0,0.0,0.0,0.0,0.0,0.0,0.0,0.0,0.0,0.0,0.0,0.0,0.0,0.0,0.0,0.0,0.0,0.0,0.0,0.0,0.0,0.0,0.0,0.0,0.0,0.0,-3.3481,-3.7233,-3.9421,-4.1038,-4.1983,-3.9148,-3.4894,0.0,0.0,0.0,0.0,0.0,0.0,0.0,0.0,0.0,0.0,0.0,0.0,0.0,0.0,0.0,0.0,0.0,0.0,0.0,0.0,0.0,0.0,0.0,0.0,0.0,0.0,0.0,0.0,0.0,0.0,0.0,0.0,0.0,0.0,0.0,0.0,0.0,0.0,0.0,0.0,0.0,0.0,0.0,0.0,0.0,0.0,0.0,0.0,0.0,0.0,0.0,0.0,0.0,0.0,0.0,0.0,0.0,0.0,0.0,0.0,0.0,0.0,0.0,0.0,0.0,0.0,0.0,0.0,0.0,0.0,0.0,0.0,0.0,0.0,0.0,0.0,0.0,0.0,0.0,0.0,0.0,0.0,0.0,0.0,0.0,0.0,0.0,0.0,0.0,0.0,0.0,0.0,0.0,0.0,0.0,0.0,0.0,0.0,0.0,0.0,0.0,0.0,0.0,0.0,0.0,0.0,0.0,0.0,-3.3639,-3.7355,-3.9603,-4.1467,-4.295,-3.8339,-3.456,0.0,0.0,0.0,0.0,0.0,0.0,0.0,0.0,0.0,0.0,0.0,0.0,0.0,0.0,0.0,0.0,0.0,0.0,0.0,0.0,0.0,0.0,0.0,0.0,0.0,0.0,0.0,0.0,0.0,0.0,0.0,0.0,0.0,0.0,0.0,0.0,0.0,0.0,0.0,0.0,0.0,0.0,0.0,0.0,0.0,0.0,0.0,0.0,-2.7829,0.0,0.0,0.0,0.0,0.0,0.0,0.0,0.0,0.0,0.0,0.0,0.0,0.0,0.0,0.0,0.0,0.0,0.0,0.0,0.0,0.0,0.0,0.0,0.0,0.0,0.0,0.0,0.0,0.0,0.0,0.0,0.0,0.0,0.0,0.0,0.0,0.0,0.0,0.0,0.0,0.0,0.0,0.0,0.0,0.0,0.0,0.0,0.0,0.0,0.0,0.0,0.0,0.0,0.0,0.0,0.0,0.0,0.0,0.0,-3.5744,-3.9241,-4.1004,-4.2535,-4.3678,-3.988,-3.6301,0.0,0.0,0.0,0.0,0.0,0.0,0.0,0.0,0.0,0.0,0.0,0.0,0.0,0.0,0.0,0.0,0.0,0.0,0.0,0.0,0.0,0.0,0.0,0.0,0.0,0.0,0.0,0.0,0.0,0.0,0.0,0.0,0.0,0.0,0.0,0.0,0.0,0.0,0.0,0.0,0.0,0.0,0.0,0.0,0.0,0.0,0.0,0.0,0.0,0.0,0.0,0.0,0.0,0.0,0.0,0.0,0.0,0.0,0.0,0.0,0.0,0.0,0.0,0.0,0.0,0.0,0.0,0.0,0.0,0.0,0.0,0.0,0.0,0.0,0.0,0.0,0.0,0.0,0.0,0.0,0.0,0.0,0.0,0.0,0.0,0.0,0.0,0.0,0.0,0.0,0.0,0.0,0.0,0.0,0.0,0.0,0.0,0.0,0.0,0.0,0.0,0.0,0.0,0.0,0.0,0.0,0.0,-3.3856,-3.7641,-4.1217,-4.2473,-4.3589,-4.4675,-4.2036,-3.8522,-3.4259,0.0,0.0,0.0,0.0,0.0,0.0,0.0,0.0,0.0,0.0,0.0,0.0,0.0,0.0,0.0,0.0,0.0,0.0,0.0,0.0,0.0,0.0,0.0,0.0,0.0,0.0,0.0,0.0,0.0,0.0,0.0,0.0,0.0,0.0,0.0,0.0,0.0,0.0,-2.7883,-2.9145,0.0,0.0,0.0,0.0,0.0,0.0,0.0,0.0,-3.0676,0.0,0.0,0.0,0.0,0.0,0.0,0.0,0.0,0.0,0.0,0.0,0.0,0.0,0.0,0.0,0.0,0.0,0.0,0.0,0.0,0.0,0.0,0.0,0.0,0.0,0.0,0.0,0.0,0.0,0.0,0.0,0.0,0.0,0.0,0.0,0.0,0.0,0.0,0.0,0.0,0.0,0.0,0.0,0.0,0.0,0.0,0.0,0.0,0.0,0.0,0.0,0.0,0.0,0.0,0.0,0.0,-3.144,-3.2772,-3.595,-4.1094,-4.2288,-4.3681,-4.5282,-4.2815,-3.9301,-3.4965,0.0,0.0,0.0,0.0,0.0,0.0,0.0,0.0,0.0,0.0,0.0,0.0,0.0,0.0,0.0,0.0,0.0,0.0,0.0,0.0,0.0,0.0,0.0,0.0,0.0,0.0,0.0,0.0,0.0,0.0,0.0,0.0,0.0,0.0,0.0,0.0,0.0,0.0,0.0,-2.9965,-3.0092,0.0,0.0,0.0,0.0,0.0,0.0,0.0,0.0,-3.0914,0.0,0.0,0.0,0.0,0.0,0.0,0.0,0.0,0.0,0.0,0.0,0.0,0.0,0.0,0.0,0.0,0.0,0.0,0.0,0.0,0.0,0.0,0.0,0.0,0.0,0.0,0.0,0.0,0.0,0.0,0.0,0.0,0.0,0.0,0.0,0.0,0.0,0.0,0.0,0.0,0.0,0.0,0.0,0.0,0.0,0.0,0.0,0.0,0.0,0.0,0.0,0.0,0.0,0.0,0.0,-3.0442,-3.3991,-3.7472,-4.0851,-4.2807,-4.4048,-4.4518,-4.157,-3.8061,0.0,0.0,0.0,0.0,0.0,0.0,0.0,0.0,0.0,0.0,0.0,0.0,0.0,0.0,0.0,0.0,0.0,0.0,0.0,0.0,0.0,0.0,0.0,0.0,0.0,0.0,0.0,0.0,0.0,0.0,0.0,0.0,0.0,0.0,0.0,0.0,0.0,0.0,0.0,0.0,-3.0985,-3.1203,-3.1896,0.0,0.0,0.0,0.0,0.0,0.0,-3.1816,-3.1461,0.0,0.0,0.0,0.0,0.0,0.0,0.0,0.0,0.0,0.0,0.0,0.0,0.0,0.0,0.0,0.0,0.0,0.0,0.0,0.0,0.0,0.0,0.0,0.0,0.0,0.0,0.0,0.0,0.0,0.0,0.0,0.0,0.0,0.0,0.0,0.0,0.0,0.0,0.0,0.0,0.0,0.0,0.0,0.0,0.0,0.0,0.0,0.0,0.0,0.0,0.0,0.0,0.0,0.0,0.0,-2.9679,-3.5048,-3.891,-4.0999,-4.3331,-4.4228,-4.3532,-4.0598,-3.7103,0.0,0.0,0.0,0.0,0.0,0.0,0.0,0.0,0.0,0.0,0.0,0.0,0.0,0.0,0.0,0.0,0.0,0.0,0.0,0.0,0.0,0.0,0.0,0.0,0.0,0.0,0.0,0.0,0.0,0.0,0.0,0.0,0.0,0.0,0.0,0.0,0.0,0.0,0.0,0.0,0.0,-3.2233,-3.1926,-3.2146,0.0,0.0,0.0,0.0,-3.2586,-3.2437,0.0,0.0,0.0,0.0,0.0,0.0,0.0,0.0,0.0,0.0,0.0,0.0,0.0,0.0,0.0,0.0,0.0,0.0,0.0,0.0,0.0,0.0,0.0,0.0,0.0,0.0,0.0,0.0,0.0,0.0,0.0,0.0,0.0,0.0,0.0,0.0,0.0,0.0,0.0,0.0,0.0,0.0,0.0,0.0,0.0,0.0,0.0,0.0,0.0,0.0,0.0,0.0,0.0,0.0,0.0,0.0,-3.0781,-3.3855,-3.7548,-4.1834,-4.3373,-4.3768,-4.3093,-4.1759,-3.8425,0.0,0.0,0.0,0.0,0.0,0.0,0.0,0.0,0.0,0.0,0.0,0.0,0.0,0.0,0.0,0.0,0.0,0.0,0.0,0.0,0.0,0.0,0.0,0.0,0.0,0.0,0.0,0.0,0.0,0.0,0.0,0.0,0.0,0.0,0.0,0.0,0.0,0.0,0.0,0.0,0.0,-3.2202,-3.2471,-3.3077,-3.3648,0.0,0.0,-3.3178,-3.3727,-3.2923,0.0,0.0,0.0,0.0,0.0,0.0,0.0,0.0,0.0,0.0,0.0,0.0,0.0,0.0,0.0,0.0,0.0,0.0,0.0,0.0,0.0,0.0,0.0,0.0,0.0,0.0,0.0,0.0,0.0,0.0,0.0,0.0,0.0,0.0,0.0,0.0,0.0,0.0,0.0,0.0,0.0,0.0,0.0,0.0,0.0,0.0,0.0,0.0,0.0,0.0,0.0,0.0,0.0,0.0,0.0,-2.6108,-2.899,-3.3829,-3.756,-4.0041,-4.2351,-4.2984,-4.1773,-3.881,-3.5336,0.0,0.0,0.0,0.0,0.0,0.0,0.0,0.0,0.0,0.0,0.0,0.0,0.0,0.0,0.0,0.0,0.0,0.0,0.0,0.0,0.0,0.0,0.0,0.0,0.0,0.0,0.0,0.0,0.0,0.0,0.0,0.0,0.0,0.0,0.0,0.0,0.0,0.0,0.0,0.0,0.0,0.0,-3.2899,-3.3563,0.0,0.0,0.0,-3.3561,-3.3511,0.0,0.0,0.0,0.0,0.0,0.0,0.0,0.0,0.0,0.0,0.0,0.0,0.0,0.0,0.0,0.0,0.0,0.0,0.0,0.0,0.0,0.0,0.0,0.0,0.0,0.0,0.0,0.0,0.0,0.0,0.0,0.0,0.0,0.0,0.0,0.0,0.0,0.0,0.0,0.0,0.0,0.0,0.0,0.0,0.0,0.0,0.0,0.0,0.0,0.0,0.0,0.0,0.0,0.0,0.0,0.0,0.0,-2.7896,-3.3632,-3.7251,-3.853,-4.0879,-4.1487,-4.0041,-3.6505,0.0,0.0,0.0,0.0,0.0,0.0,0.0,0.0,0.0,0.0,0.0,0.0,0.0,0.0,0.0,0.0,0.0,0.0,0.0,0.0,0.0,0.0,0.0,0.0,0.0,0.0,0.0,-2.0729,0.0,0.0,0.0,0.0,0.0,0.0,0.0,0.0,0.0,0.0,0.0,0.0,0.0,0.0,-3.2601,-3.2962,-3.37,-3.437,0.0,0.0,-3.3616,-3.3308,-3.2738,-3.2109,0.0,0.0,0.0,0.0,0.0,0.0,0.0,0.0,0.0,0.0,0.0,0.0,0.0,0.0,0.0,0.0,0.0,0.0,0.0,0.0,0.0,0.0,0.0,0.0,0.0,0.0,0.0,0.0,0.0,0.0,0.0,0.0,0.0,0.0,0.0,0.0,0.0,0.0,0.0,0.0,0.0,0.0,0.0,0.0,0.0,0.0,0.0,0.0,0.0,0.0,0.0,0.0,0.0,0.0,0.0,-2.9287,-3.2778,-3.5912,-3.8473,-3.9035,-3.8869,-3.802,-3.6861,-3.4345,0.0,0.0,0.0,0.0,0.0,0.0,0.0,0.0,0.0,0.0,0.0,0.0,0.0,0.0,0.0,0.0,0.0,0.0,0.0,0.0,0.0,0.0,0.0,0.0,0.0,0.0,0.0,0.0,0.0,0.0,0.0,0.0,0.0,0.0,0.0,0.0,0.0,0.0,0.0,0.0,0.0,-3.1678,-3.2447,-3.3403,-3.4129,0.0,0.0,-3.3084,-3.3659,-3.1815,-3.0342,-3.0551,0.0,0.0,0.0,0.0,0.0,0.0,0.0,0.0,0.0,0.0,0.0,0.0,0.0,0.0,0.0,0.0,0.0,0.0,0.0,0.0,0.0,0.0,0.0,0.0,0.0,0.0,0.0,0.0,0.0,0.0,0.0,0.0,0.0,0.0,0.0,0.0,0.0,0.0,0.0,0.0,0.0,0.0,0.0,0.0,0.0,0.0,0.0,0.0,0.0,0.0,0.0,0.0,0.0,-2.6186,-2.8597,-3.2347,-3.5234,-3.7188,-3.8064,-3.8148,-3.7323,-3.5882,-3.3586,0.0,0.0,0.0,0.0,0.0,0.0,0.0,0.0,0.0,0.0,0.0,0.0,0.0,0.0,0.0,0.0,0.0,0.0,0.0,0.0,0.0,0.0,0.0,0.0,0.0,0.0,0.0,0.0,-2.3003,-2.2905,-2.2582,0.0,0.0,0.0,0.0,0.0,0.0,0.0,0.0,0.0,0.0,-3.0894,-3.1651,-3.2133,0.0,0.0,-3.2286,-3.2184,-3.2569,-3.1759,-3.1024,-3.0854,-3.0079,0.0,0.0,0.0,0.0,0.0,0.0,0.0,0.0,0.0,0.0,0.0,0.0,0.0,0.0,0.0,0.0,0.0,0.0,0.0,0.0,0.0,0.0,0.0,0.0,0.0,0.0,0.0,0.0,0.0,0.0,0.0,0.0,0.0,0.0,0.0,0.0,0.0,0.0,0.0,0.0,0.0,0.0,0.0,0.0,0.0,0.0,0.0,0.0,0.0,0.0,0.0,0.0,-2.5794,-2.7753,-3.1274,-3.3797,-3.5268,-3.6308,-3.6569,-3.5977,-3.4682,-3.2968,0.0,0.0,0.0,0.0,0.0,0.0,0.0,0.0,0.0,0.0,0.0,0.0,0.0,0.0,0.0,0.0,0.0,0.0,0.0,0.0,0.0,0.0,0.0,0.0,0.0,0.0,0.0,0.0,-2.3252,-2.2906,-2.2696,0.0,0.0,0.0,0.0,0.0,0.0,0.0,0.0,0.0,0.0,-2.9596,-3.0675,-3.1076,-3.1357,-3.1662,-3.1695,-3.1773,-3.1967,-3.1606,-3.122,-3.1064,0.0,0.0,0.0,0.0,0.0,0.0,0.0,0.0,0.0,0.0,0.0,0.0,0.0,0.0,0.0,0.0,0.0,0.0,0.0,0.0,0.0,0.0,0.0,0.0,0.0,0.0,0.0,0.0,0.0,0.0,-2.2564,0.0,0.0,0.0,0.0,0.0,0.0,0.0,0.0,0.0,0.0,0.0,0.0,0.0,0.0,0.0,0.0,0.0,0.0,0.0,0.0,0.0,0.0,-2.5288,-2.7023,-2.9453,-3.1332,-3.279,-3.3381,-3.3723,-3.3716,-3.3372,-3.2803,-3.1906,0.0,0.0,0.0,0.0,0.0,0.0,0.0,0.0,0.0,0.0,0.0,0.0,0.0,0.0,0.0,0.0,0.0,0.0,0.0,0.0,0.0,0.0,0.0,0.0,0.0,0.0,-2.1562,-2.138,-2.1525,0.0,0.0,0.0,0.0,0.0,0.0,0.0,0.0,0.0,0.0,-2.6747,-2.7564,-2.9476,-3.0434,-3.1207,-3.2124,-3.1984,-3.1903,-3.2127,-3.1077,-3.0458,0.0,0.0,0.0,0.0,0.0,0.0,0.0,0.0,0.0,0.0,0.0,0.0,0.0,0.0,0.0,0.0,0.0,0.0,0.0,0.0,0.0,0.0,0.0,0.0,0.0,0.0,0.0,-2.328,-2.2392,0.0,0.0,0.0,0.0,0.0,0.0,0.0,0.0,0.0,0.0,0.0,-2.2319,-2.2726,0.0,0.0,0.0,0.0,0.0,0.0,0.0,0.0,0.0,0.0,0.0,0.0,-2.5553,-2.7815,-2.9531,-3.1045,-3.2442,-3.2707,-3.2788,-3.2815,-3.2718,-3.1967,-3.049,0.0,0.0,0.0,0.0,0.0,0.0,0.0,0.0,0.0,0.0,0.0,0.0,0.0,0.0,0.0,0.0,0.0,0.0,0.0,0.0,0.0,0.0,0.0,0.0,0.0,-2.246,0.0,0.0,0.0,0.0,0.0,0.0,0.0,0.0,0.0,0.0,0.0,-2.5656,-2.7103,-2.7315,-2.7712,-2.8748,-2.8712,-2.8612,0.0,0.0,0.0,0.0,0.0,0.0,0.0,0.0,0.0,0.0,0.0,0.0,0.0,0.0,-2.6235,-2.7199,-2.7509,-2.7535,-2.7273,0.0,0.0,0.0,0.0,0.0,0.0,0.0,0.0,0.0,0.0,0.0,0.0,0.0,0.0,-2.4161,0.0,-2.3115,0.0,0.0,0.0,0.0,0.0,0.0,0.0,0.0,-2.2536,-2.2537,-2.2053,-2.2565,-2.2491,0.0,-2.1653,-2.1062,0.0,0.0,0.0,0.0,0.0,0.0,0.0,0.0,-2.5322,-2.7696,-2.8874,-3.0186,-3.169,-3.1964,-3.2076,-3.2076,-3.2299,-3.1723,-3.0296,-2.8319,-2.6581,0.0,0.0,0.0,0.0,0.0,0.0,0.0,0.0,0.0,0.0,0.0,0.0,0.0,0.0,0.0,0.0,0.0,0.0,0.0,0.0,0.0,0.0,0.0,-2.2128,0.0,0.0,0.0,0.0,0.0,0.0,0.0,0.0,0.0,-2.3435,-2.415,-2.5118,-2.6605,-2.6694,-2.6889,-2.7707,0.0,0.0,0.0,0.0,0.0,0.0,0.0,-2.8314,-2.8634,-2.8623,-2.8263,-2.7324,-2.6197,-2.5793,-2.69,0.0,0.0,-2.7364,-2.8088,-2.8421,-2.7906,-2.7893,-2.8099,-2.8555,-2.8527,-2.8713,0.0,0.0,0.0,0.0,0.0,0.0,0.0,0.0,-2.6099,-2.5279,0.0,-2.377,0.0,0.0,0.0,0.0,0.0,-2.1318,0.0,0.0,-2.1063,-2.134,-2.1832,-2.1562,-2.1431,-2.1393,-2.1281,-2.1153,-2.1039,-2.134,0.0,0.0,0.0,0.0,0.0,0.0,-2.4651,-2.675,-2.7497,-2.8708,-3.048,-3.1102,-3.1408,-3.1378,-3.1921,-3.1867,-3.1197,-3.0027,-2.8842,-2.7452,-2.4777,0.0,0.0,0.0,0.0,0.0,0.0,0.0,0.0,0.0,0.0,0.0,0.0,0.0,0.0,0.0,0.0,0.0,0.0,0.0,0.0,-2.145,0.0,0.0,0.0,0.0,0.0,0.0,0.0,0.0,0.0,0.0,-2.2951,-2.3215,-2.3697,-2.496,0.0,0.0,0.0,0.0,-2.6989,-2.7537,-2.7709,-2.7839,-2.8225,-2.7968,-2.7854,-2.8296,0.0,0.0,-2.6168,-2.6014,-2.6106,-2.6698,-2.6698,-2.6731,-2.6976,-2.8776,-2.9788,-2.8608,-2.8293,-2.8287,-2.821,-2.8033,-2.8122,-2.6694,0.0,0.0,0.0,0.0,-2.4172,-2.4801,-2.5899,-2.5604,-2.4761,-2.3612,-2.3739,0.0,0.0,0.0,0.0,0.0,0.0,-2.2284,-2.164,-2.1481,-2.1524,-2.1656,-2.1506,-2.1475,-2.1543,-2.1507,-2.1547,-2.1645,-2.1732,-2.1739,-2.1627,0.0,0.0,0.0,0.0,-2.4972,-2.637,-2.7233,-2.8133,-2.9097,-2.9272,-2.9366,-2.9366,-2.9538,-2.9515,-2.9287,-2.8601,-2.7676,-2.6595,-2.4689,0.0,0.0,0.0,0.0,0.0,0.0,0.0,0.0,0.0,0.0,0.0,0.0,0.0,0.0,0.0,0.0,0.0,0.0,0.0,-2.0539,-2.0557,-2.0356,0.0,0.0,0.0,0.0,0.0,0.0,0.0,0.0,0.0,-2.1092,-2.2609,-2.4009,0.0,0.0,-2.5576,-2.6213,-2.6202,-2.5908,-2.5201,-2.5666,0.0,-2.5382,-2.5739,-2.6148,-2.626,-2.6086,-2.6188,-2.7015,-2.612,-2.5617,-2.6594,-2.6173,-2.5791,-2.6305,-2.7515,-2.8367,-2.8078,-2.8168,-2.8474,-2.8768,-2.8731,-2.9123,-2.6313,-2.4809,-2.4755,-2.4788,-2.4861,-2.4672,-2.5183,-2.6176,-2.5797,-2.4897,-2.3647,-2.3734,-2.2804,-2.1124,-2.1809,0.0,0.0,0.0,-2.2072,-2.1354,-2.1255,-2.1219,-2.1198,-2.1221,-2.1268,-2.1364,-2.1522,-2.1644,-2.1678,-2.1609,-2.1598,-2.1672,0.0,0.0,-2.316,-2.3968,-2.5013,-2.6185,-2.6725,-2.7432,-2.8285,-2.8298,-2.8298,-2.8298,-2.8312,-2.8298,-2.8298,-2.7943,-2.739,-2.6525,-2.5179,-2.3577,0.0,0.0,0.0,0.0,0.0,0.0,0.0,0.0,0.0,0.0,0.0,-1.9297,-1.9543,0.0,0.0,0.0,-2.0264,-2.055,-2.0142,-2.013,0.0,0.0,0.0,0.0,0.0,0.0,0.0,-2.0042,-2.0379,-2.0599,-2.063,-2.2039,-2.328,-2.3753,-2.4079,-2.4333,-2.4575,0.0,-2.3954,-2.3331,-2.3727,-2.3995,-2.3787,-2.4037,-2.4284,-2.4297,-2.4354,-2.4648,-2.5412,-2.4719,-2.4331,-2.4861,-2.4696,-2.4469,-2.4784,-2.5808,-2.6849,-2.7306,-2.7769,-2.8272,-2.8771,-2.885,-2.93,-2.5869,-2.5117,-2.49,-2.5293,-2.6055,-2.5707,-2.5794,-2.6152,-2.6141,-2.5168,-2.3564,-2.3482,-2.2842,-2.1716,-2.1716,0.0,-2.1697,-2.126,-2.0934,-2.0596,-2.0586,-2.0635,-2.0693,-2.0966,-2.1073,-2.11,-2.141,-2.1504,-2.1395,-2.1151,-2.1214,-2.1544,-2.2525,-2.3013,-2.3033,-2.3703,-2.4666,-2.58,-2.5864,-2.6482,-2.7696,-2.7677,-2.7677,-2.771,-2.7664,-2.763,-2.763,-2.763,-2.7348,-2.6731,-2.5685,-2.4469,-2.3133,0.0,0.0,0.0,0.0,0.0,0.0,0.0,0.0,0.0,0.0,0.0,0.0,0.0,0.0,0.0,-1.9712,0.0,-1.9976,-1.9907,0.0,0.0,0.0,-1.8904,-1.9221,-1.9827,-2.0142,-1.9987,0.0,0.0,-2.091,-2.1341,-2.1741,-2.1719,-2.2026,-2.2246,-2.2232,-2.2034,-2.1741,-2.2018,-2.2051,-2.2347,-2.2882,-2.2834,-2.2743,-2.2774,-2.2634,-2.275,-2.2805,-2.2763,-2.2634,-2.2781,-2.2877,-2.3118,-2.3088,-2.4053,-2.5065,-2.6146,-2.7045,-2.7756,-2.8192,-2.8336,-2.8669,-2.5985,-2.5279,-2.4579,-2.4309,-2.4425,-2.4611,-2.4179,-2.3316,-2.3316,-2.2473,-2.1051,-2.0711,-2.0454,-2.0131,-2.0122,-2.0122,-2.0122,-2.0025,-2.0162,-2.0426,-2.0458,-2.0847,-2.1562,-2.1667,-2.1689,-2.1669,-2.144,-2.1298,-2.125,-2.0909,-2.0729,-2.0881,-2.1696,-2.2129,-2.2206,-2.2764,-2.3189,-2.3502,-2.392,-2.4566,-2.5415,-2.4862,-2.4862,-2.5463,-2.4898,-2.4565,-2.4565,-2.4565,-2.4507,-2.4307,-2.3548,-2.2594,-2.1524,-2.0371,0.0,0.0,0.0,0.0,0.0,0.0,0.0,0.0,0.0,-1.817,-1.7209,0.0,-1.8375,0.0,-1.7309,-1.7712,-1.8847,-1.8295,0.0,0.0,-1.8663,-1.8663,-1.8766,-1.9174,-1.9327,-1.8985,-1.9504,-1.9693,-1.9224,-1.9294,-1.9581,-2.0022,-2.1563,-2.2627,-2.2523,-2.2419,-2.2017,-2.122,-2.1396,-2.1635,-2.1561,-2.1904,-2.2255,-2.2561,-2.2604,-2.2634,-2.2604,-2.2634,-2.2634,-2.2634,-2.2665,-2.2725,-2.2725,-2.2972,-2.3318,-2.3952,-2.5536,-2.6957,-2.7108,-2.7282,-2.7861,-2.4637,-2.405,-2.3425,-2.2991,-2.2788,-2.3176,-2.2782,-2.1888,-2.1748,-2.1133,-2.0178,-1.9973,-1.9888,-1.9879,-1.9879,-1.9741,-1.9604,-1.9596,-1.9661,-1.9775,-1.9775,-2.0081,-2.0596,-2.0596,-2.0596,-2.0587,-2.0324,-2.043,-2.0832,-2.0635,-2.0732,-2.1192,-2.161,-2.1857,-2.1933,-2.252,-2.2833,-2.2833,-2.3135,-2.3489,-2.3913,-2.35,-2.3489,-2.3902,-2.3313,-2.2983,-2.2983,-2.2597,-2.241,-2.2375,-2.2214,-2.1656,-2.0654,-1.9855,-1.8817,0.0,0.0,0.0,0.0,0.0,0.0,0.0,0.0,0.0,0.0,0.0,-1.7482,-1.7021,-1.6824,-1.7099,-1.7945,-1.7537,-1.7475,-1.8094,-1.8131,-1.8203,-1.8308,-1.8804,-1.8928,-1.84,-1.874,-1.8835,-1.836,-1.8507,-1.8792,-1.9149,-2.0528,-2.1528,-2.1566,-2.1248,-2.0696,-2.0212,-2.0455,-2.0698,-2.0537,-2.091,-2.1322,-2.1647,-2.171,-2.1772,-2.1928,-2.197,-2.197,-2.197,-2.197,-2.1982,-2.2002,-2.2175,-2.2359,-2.2713,-2.391,-2.5162,-2.5781,-2.6105,-2.6724,-2.2801,-2.2325,-2.195,-2.1487,-2.108,-2.1347,-2.1326,-2.1057,-2.0781,-2.031,-1.9832,-1.9824,-1.9824,-1.9824,-1.9824,-1.9656,-1.9318,-1.9309,-1.9186,-1.8979,-1.8971,-1.9022,-1.9152,-1.9152,-1.9152,-1.9143,-1.9101,-1.9504,-2.0262,-2.0226,-2.0671,-2.1492,-2.1534,-2.1534,-2.1546,-2.2158,-2.2542,-2.2697,-2.2697,-2.2734,-2.2846,-2.2734,-2.2734,-2.2824,-2.236,-2.2071,-2.2038,-2.1341,-2.0908,-2.0919,-2.1274,-2.0999,-1.9962,-1.9137,-1.8415,0.0,-1.622,0.0,0.0,0.0,0.0,0.0,0.0,0.0,0.0,-1.6595,-1.6732,-1.7113,-1.7099,-1.7125,-1.713,-1.7101,-1.7162,-1.7436,-1.7487,-1.7584,-1.7827,-1.8353,-1.8479,-1.7831,-1.8208,-1.8249,-1.7695,-1.8091,-1.8393,-1.8502,-1.891,-1.9465,-1.9904,-1.9359,-1.8954,-1.9146,-1.9248,-1.9386,-1.9671,-1.9792,-1.9933,-2.0237,-2.0323,-2.0463,-2.0752,-2.086,-2.0848,-2.0892,-2.086,-2.0892,-2.0924,-2.1282,-2.1628,-2.1659,-2.2347,-2.3301,-2.437,-2.4869,-2.537,-2.2498,-2.165,-2.0968,-2.0171,-1.9245,-1.8777,-1.8845,-1.9303,-1.9239,-1.8666,-1.787,-1.7831,-1.7878,-1.7831,-1.7831,-1.7794,-1.7741,-1.7741,-1.8156,-1.8817,-1.8862,-1.927,-1.9937,-1.9982,-1.9982,-1.9964,-1.963,-1.9581,-1.9747,-1.9411,-1.935,-1.9563,-1.9563,-1.9563,-1.9554,0.0,0.0,0.0,-2.1049,-2.1346,-2.1945,-2.1385,-2.1385,-2.1983,-2.1314,0.0,-2.0919,-2.0617,-2.0424,-2.0424,-2.0302,0.0,0.0,0.0,0.0,0.0,0.0,0.0,0.0,0.0,0.0,0.0,-1.5825,-1.564,-1.539,-1.5641,-1.596,-1.6273,-1.6173,-1.6134,-1.6297,-1.6329,-1.6474,-1.6822,-1.6871,-1.6903,-1.6976,-1.7057,-1.7016,-1.666,-1.6737,-1.6633,-1.6355,-1.6324,-1.6555,-1.6995,-1.6786,-1.7035,-1.8089,-1.8174,-1.8017,-1.7552,-1.7711,-1.7978,-1.8331,-1.8432,-1.8623,-1.8813,-1.889,-1.8957,-1.9079,-1.9222,-1.9266,-1.9332,-1.9332,-1.9474,-1.9474,-1.9966,-2.0484,-2.0452,-2.1028,-2.1939,-2.3152,-2.3644,-2.4126,-2.0519,0.0,-1.9436,-1.8843,0.0,-1.7779,-1.7762,-1.8056,-1.8056,-1.7785,-1.7286,-1.7286,-1.7286,-1.7286,-1.7286,-1.7286,-1.7286,-1.7286,-1.7559,-1.8056,-1.8056,-1.8334,-1.878,-1.878,-1.878,-1.8772,-1.8567,-1.8752,-1.9187,-1.9023,-1.9146,-1.9587,-1.9587,-1.9587,-1.9587,-1.9408,-1.9682,-2.0507,-2.0498,-2.0951,-2.1779,-2.0778,-2.0454,-2.083,-1.9662,0.0,0.0,0.0,0.0,0.0,0.0,0.0,0.0,-1.7184,0.0,-1.5901,-1.5423,-1.5178,-1.5202,-1.509,-1.5176,-1.5434,-1.5194,-1.5033,-1.5077,-1.5358,-1.5565,-1.5734,-1.5665,-1.5658,-1.5733,-1.5763,-1.5929,-1.6327,-1.6417,-1.6492,-1.6689,-1.6894,-1.7009,-1.6807,-1.6363,-1.599,-1.5813,-1.5446,-1.5394,-1.5665,-1.5809,-1.5904,-1.6186,-1.6701,-1.698,-1.6902,-1.6896,-1.7192,-1.7604,-1.7706,-1.7833,-1.8152,-1.8263,-1.8331,-1.8489,-1.8657,-1.88,-1.88,-1.8911,-1.9011,-1.9044,-1.9309,-1.9562,-1.9573,-1.9835,-2.042,-2.1436,-2.2347,-2.3152,-1.8556,-1.8608,-1.8053,-1.7773,-1.765,-1.7323,-1.7192,-1.7192,0.0,0.0,0.0,-1.7286,-1.7286,-1.7286,-1.7286,-1.7286,-1.7286,-1.7286,-1.7286,-1.7286,-1.7286,-1.7286,-1.7286,-1.7286,-1.7286,-1.7286,-1.7286,-1.7738,-1.8519,-1.8519,-1.8926,-1.9642,-1.9687,-1.9687,-1.967,-1.9351,-1.9501,-2.0073,-2.0135,-2.0545,-2.1316,-2.0306,-1.9752,-1.9752,-1.8397,-1.7669,-1.7661,-1.6966,-1.6523,-1.6531,-1.6847,-1.6703,-1.6138,-1.6608,-1.6616,-1.6013,-1.5705,-1.5356,-1.4972,-1.4863,-1.4761,-1.4634,-1.4386,-1.4434,-1.483,-1.4979,-1.5048,-1.5048,-1.5048,-1.5048,-1.5048,-1.5048,-1.5215,-1.559,-1.5624,-1.5748,-1.6072,-1.6435,-1.6503,-1.6533,-1.5805,-1.5461,-1.5443,-1.5095,-1.4814,-1.4966,-1.5489,-1.5608,-1.5128,-1.5506,-1.5954,-1.6293,-1.6381,-1.6612,-1.6968,-1.7072,-1.7235,-1.7467,-1.756,-1.7731,-1.7959,-1.8196,-1.8297,-1.8162,-1.8422,-1.8499,-1.8576,-1.8667,-1.8811,-1.88,-1.8944,-1.9177,-1.9824,-2.1005,-2.2101,-1.8545,-1.8099,-1.7732,-1.7429,-1.7167,-1.6857,-1.6676,-1.6723,-1.7099,-1.7286,-1.7286,-1.7286,-1.7286,-1.7286,-1.7286,-1.7286,-1.7286,-1.7286,-1.7286,-1.7286,-1.7286,-1.7286,-1.7286,-1.7286,-1.7286,-1.7286,-1.7286,-1.7372,-1.7512,-1.7512,-1.7598,-1.7692,-1.7692,-1.7738,-1.7684,-1.7647,-1.8057,-1.8993,-1.9156,-1.9264,-1.9392,-1.9212,-1.9144,-1.9144,-1.8863,-1.8778,-1.8769,-1.8397,-1.8246,-1.8237,-1.8152,-1.744,-1.6039,-1.6031,-1.556,-1.4388,-1.3502,-1.3205,-1.3643,-1.3134,-1.3017,-1.3529,-1.3578,-1.3565,-1.3661,-1.3685,-1.3695,-1.3688,-1.373,-1.3695,-1.3695,-1.3737,-1.3822,-1.3815,-1.3815,-1.3808,-1.3984,-1.4062,-1.4089,-1.3835,-1.392,-1.426,-1.4398,-1.468,-1.5006,-1.5451,-1.5404,-1.5666,-1.5401,-1.5188,-1.4927,-1.5078,-1.5523,-1.5877,-1.6149,-1.6044,-1.6105,-1.6114,-1.6167,-1.6237,-1.6377,-1.6568,-1.6707,-1.6542,-1.6906,-1.7044,-1.7044,-1.7628,-1.7993,-1.8128,-1.8465,-1.8944,-1.9144,-1.9922,-2.0794,-1.7239,-1.7055,-1.5948,-1.5488,-1.5388,-1.5072,-1.493,-1.4937,-1.5168,-1.5886,-1.6911,-1.6904,-1.6904,-1.6911,-1.7059,-1.7153,-1.716,-1.7239,-1.7286,-1.7286,-1.7286,-1.7286,-1.7286,-1.7286,-1.7286,-1.7286,-1.7286,-1.7286,-1.7286,-1.7286,-1.7286,-1.7286,-1.7286,-1.7286,-1.7286,-1.7286,-1.7505,-1.7956,-1.8614,-1.9115,-1.9638,-1.896,-1.8641,-1.8597,-1.7989,-1.7573,-1.7581,-1.745,-1.7414,-1.7414,-1.7327,-1.6748,-1.5589,-1.551,-1.5092,-1.4102,-1.3386,-1.3093,-1.3395,-1.2879,-1.2534,-1.2505,-1.2716,-1.2711,-1.2289,-1.2831,-1.3268,-1.3366,-1.3258,-1.322,-1.3372,-1.3398,-1.3398,-1.3398,-1.3398,-1.3398,-1.344,-1.3597,-1.3648,-1.3544,-1.3633,-1.3761,-1.3815,-1.3711,-1.3753,-1.4106,-1.4258,-1.4382,-1.4397,-1.4288,-1.454,-1.539,-1.5874,-1.6062,-1.6043,-1.5535,-1.5407,-1.5691,-1.5417,-1.539,-1.5691,-1.5973,-1.607,-1.6096,-1.6272,-1.6412,-1.6438,-1.6846,-1.7182,-1.7285,-1.7526,-1.7944,-1.8375,-1.9,-1.9922,-1.5606,-1.5722,-1.4384,-1.3749,-1.3763,-1.3432,-1.3349,-1.3343,-1.3343,-1.4214,-1.5615,-1.5859,-1.59,-1.5906,-1.6103,-1.6298,-1.644,-1.6716,-1.685,-1.6803,-1.6998,-1.6998,-1.6803,-1.681,-1.6904,-1.7044,-1.7037,-1.7138,-1.7279,-1.7286,-1.7286,-1.7286,-1.7286,-1.7286,-1.7286,-1.7286,-1.7286,-1.7326,-1.7917,-1.8642,-1.9451,-1.8563,-1.8067,-1.8006,-1.7161,-1.6631,-1.6579,-1.6624,-1.6542,-1.64,-1.6355,-1.596,-1.5165,-1.5068,-1.4765,-1.4135,-1.3598,-1.3281,-1.3083,-1.2763,-1.2346,-1.1857,-1.2134,-1.2067,-1.162,-1.2219,-1.2801,-1.3022,-1.2777,-1.2661,-1.2772,-1.2747,-1.2788,-1.274,-1.2788,-1.271,-1.2856,-1.3157,-1.3345,-1.338,-1.3348,-1.3327,-1.3353,-1.3044,-1.3051,-1.3348,-1.3384,-1.3542,-1.357,-1.3846,-1.4706,-1.5535,-1.5972,-1.5741,-1.5802,-1.511,-1.4736,-1.5254,-1.4768,-1.4653,-1.5062,-1.5382,-1.5488,-1.5409,-1.5736,-1.5877,-1.5982,-1.6333,-1.6533,-1.6603,-1.6821,-1.7123,-1.7901,-1.8398,-1.9243,-1.4173,-1.3935,-1.3724,-1.3456,-1.3025,-1.2796,-1.2727,-1.2721,-1.2775,-1.2823,-1.3113,-1.359,-1.3776,-1.3776,-1.3872,-1.416,-1.4657,-1.527,-1.5514,-1.5432,-1.6001,-1.5954,-1.5384,-1.5337,-1.5669,-1.6237,-1.6285,-1.6615,-1.7138,-1.7232,-1.7286,-1.7286,-1.7286,-1.7239,-1.7286,-1.7286,-1.7286,-1.7279,-1.6756,-1.6796,-1.7512,-1.7436,-1.7414,-1.7382,-1.7299,-1.7238,-1.7108,-1.7198,-1.6904,-1.6303,-1.6181,-1.5738,-1.481,-1.464,-1.4479,-1.4063,-1.3492,-1.2893,-1.2286,-1.2168,-1.2125,-1.21,-1.2089,-1.2093,-1.1997,-1.1903,-1.1954,-1.2175,-1.18,-1.1596,-1.1451,-1.123,-1.1183,-1.1269,-1.1136,-1.0947,-1.1324,-1.1266,-1.1348,-1.1537,-1.2196,-1.2663,-1.2908,-1.3243,-1.3836,-1.3926,-1.4056,-1.4232,-1.4294,-1.4547,-1.4789,-1.5161,-1.4946,-1.4473,-1.4335,-1.4111,-1.4022,-1.3901,-1.3695,-1.379,-1.395,-1.3956,-1.3781,-1.4322,-1.4537,-1.501,-1.5232,-1.5657,-1.6193,-1.6044,-1.6324,-1.6881,-1.7696,-1.8037,-1.8633,-1.3163,-1.3177,-1.2285,-1.1684,-1.1308,-1.0983,-1.0841,-1.089,-1.0841,-1.0886,-1.0886,-1.113,-1.1853,-1.3006,-1.3204,-1.3403,-1.3596,-1.4064,-1.4262,-1.4214,-1.48,-1.4937,-1.4704,-1.4956,-1.5289,-1.5534,-1.5527,-1.5724,-1.5954,-1.5994,-1.6001,-1.6001,-1.6001,-1.6001,-1.6001,-1.6001,-1.6001,-1.6001,-1.5717,-1.5717,-1.5954,-1.6001,-1.6001,-1.6001,-1.6001,-1.6001,-1.6008,-1.5994,-1.5859,-1.5575,-1.5575,-1.5143,-1.4224,-1.417,-1.3939,-1.3349,-1.2795,-1.2242,-1.1661,-1.1634,-1.1634,-1.1634,-1.1937,-1.2089,-1.2105,-1.2262,-1.2424,-1.2418,-1.1919,-1.1607,-1.1715,-1.158,-1.1467,-1.1472,-1.1472,-1.1494,-1.1635,-1.1359,-1.1252,-1.1494,-1.1558,-1.1666,-1.1986,-1.2363,-1.2705,-1.2905,-1.3118,-1.3336,-1.3294,-1.3464,-1.3584,-1.3607,-1.3461,-1.375,-1.4119,-1.3776,-1.3635,-1.3737,-1.3414,-1.3121,-1.3577,-1.355,-1.3491,-1.347,-1.384,-1.4093,-1.4078,-1.4358,-1.4752,-1.4974,-1.5613,-1.6202,-1.7001,-1.726,-1.7799,-1.2096,-1.2174,-1.1076,-1.04,-1.0188,-0.9778,-0.9624,-0.9624,-0.9624,-0.9624,-0.9624,-0.9624,-1.0404,-1.1712,-1.2052,-1.2204,-1.2398,-1.277,-1.2958,-1.2963,-1.3445,-1.3638,-1.3547,-1.3848,-1.4136,-1.4328,-1.4328,-1.4418,-1.4663,-1.4854,-1.4902,-1.4908,-1.5051,-1.5105,-1.5105,-1.5105,-1.5105,-1.5099,-1.4908,-1.4765,-1.4771,-1.458,-1.4675,-1.5051,-1.5105,-1.5105,-1.5105,-1.5105,-1.5003,-1.4765,-1.4765,-1.4382,-1.3667,-1.357,-1.3335,-1.2883,-1.2489,-1.2102,-1.1713,-1.1691,-1.1691,-1.1763,-1.211,-1.2294,-1.2348,-1.2613,-1.2797,-1.2764,-1.2285,-1.2094,-1.2056,-1.1975,-1.1905,-1.186,-1.1855,-1.1871,-1.1892,-1.1628,-1.1537,-1.1715,-1.1586,-1.1273,-1.1343,-1.1576,-1.182,-1.1653,-1.1815,-1.1909,-1.1952,-1.2203,-1.2369,-1.2369,-1.2571,-1.2993,-1.3852,-1.3427,-1.3253,-1.3225,-1.2843,-1.2705,-1.3275,-1.3137,-1.2936,-1.2634,-1.3017,-1.3236,-1.3258,-1.3346,-1.3665,-1.389,-1.4537,-1.5428,-1.6114,-1.6473,-1.6985,-1.081,-1.0785,-1.0392,-1.0265,-1.0188,-0.9786,-0.9628,-0.9624,-0.9624,-0.9624,-0.9624,-0.9624,-0.9673,-0.9867,-0.9965,-1.0068,-1.0605,-1.1375,-1.157,-1.1433,-1.2052,-1.2004,-1.1389,-1.1389,-1.1819,-1.2533,-1.2581,-1.2866,-1.3536,-1.4028,-1.4316,-1.4316,-1.4615,-1.5003,-1.4908,-1.4813,-1.5003,-1.4765,-1.4184,-1.395,-1.3859,-1.3238,-1.3624,-1.4765,-1.5051,-1.5003,-1.5003,-1.5051,-1.4723,-1.3998,-1.395,-1.3624,-1.2953,-1.2856,-1.2856,-1.2802,-1.278,-1.2753,-1.2699,-1.2614,-1.2624,-1.2657,-1.2683,-1.2759,-1.271,-1.277,-1.2807,-1.2807,-1.2737,-1.2543,-1.2175,-1.1838,-1.1536,-1.1498,-1.1423,-1.1541,-1.1747,-1.1774,-1.1846,-1.2019,-1.2002,-1.1808,-1.1396,-1.1553,-1.1521,-1.1348,-1.146,-1.1721,-1.1775,-1.1931,-1.2118,-1.2283,-1.2394,-1.2439,-1.2456,-1.2643,-1.2443,-1.2448,-1.254,-1.2062,-1.1982,-1.1945,-1.1872,-1.1925,-1.2356,-1.2596,-1.2563,-1.2806,-1.3237,-1.3637,-1.407,-1.4788,-1.5152,-1.6,-1.6499,-1.083,-1.0992,-1.0647,-1.0501,-1.0448,-0.9994,-0.973,-0.9628,-0.9624,-0.9624,-0.9624,-0.9624,-0.9624,-0.9624,-0.9624,-0.9727,-0.9924,-1.0207,-1.0256,-1.0265,-1.0797,-1.0944,-1.0752,-1.1051,-1.1292,-1.158,-1.1629,-1.177,-1.2004,-1.2252,-1.2301,-1.2301,-1.25,-1.2592,-1.2597,-1.2592,-1.2597,-1.2592,-1.2603,-1.27,-1.27,-1.2414,-1.2608,-1.3087,-1.348,-1.3624,-1.3619,-1.3624,-1.348,-1.3195,-1.319,-1.3098,-1.2856,-1.2807,-1.2807,-1.2807,-1.2807,-1.2807,-1.2807,-1.2807,-1.2807,-1.2807,-1.2807,-1.2807,-1.2807,-1.2807,-1.2807,-1.2807,-1.2807,-1.2705,-1.2597,-1.2344,-1.2253,-1.2253,-1.2248,-1.2248,-1.2337,-1.217,-1.2062,-1.2199,-1.2202,-1.2008,-1.191,-1.1916,-1.1894,-1.1748,-1.1706,-1.1712,-1.1723,-1.1766,-1.1882,-1.1957,-1.2075,-1.2217,-1.2342,-1.2524,-1.2518,-1.2421,-1.233,-1.2257,-1.2174,-1.2041,-1.1964,-1.1924,-1.2134,-1.2067,-1.2088,-1.2016,-1.2499,-1.2933,-1.3433,-1.3982,-1.4142,-1.5075,-1.5566,-1.083,-1.0976,-1.0672,-1.0517,-1.0461,-1.0006,-0.9738,-0.9628,-0.9624,-0.9624,-0.9624,-0.9624,-0.9624,-0.9624,-0.9624,-0.9624,-0.9624,-0.9628,-0.9624,-0.9624,-0.9969,-1.0167,-1.0216,-1.0511,-1.0654,-1.0654,-1.0708,-1.0708,-1.0703,-1.085,-1.0949,-1.0949,-1.1096,-1.1194,-1.1194,-1.1194,-1.1194,-1.1292,-1.1536,-1.1731,-1.1731,-1.1731,-1.1731,-1.178,-1.2073,-1.2273,-1.2268,-1.2467,-1.2565,-1.2565,-1.2565,-1.2619,-1.2759,-1.2807,-1.2807,-1.2807,-1.2807,-1.2807,-1.2807,-1.2807,-1.2807,-1.2807,-1.2807,-1.2807,-1.2807,-1.2807,-1.2807,-1.2807,-1.2807,-1.2807,-1.2807,-1.2797,-1.2807,-1.2807,-1.2807,-1.2807,-1.2791,-1.2516,-1.2429,-1.2463,-1.2451,-1.2289,-1.2143,-1.217,-1.211,-1.2013,-1.1844,-1.1817,-1.1829,-1.1756,-1.1728,-1.1804,-1.1873,-1.2006,-1.2169,-1.2279,-1.2529,-1.2499,-1.25,-1.2409,-1.2379,-1.2228,-1.2113,-1.2035,-1.192,-1.1781,-1.163,-1.1479,-1.1707,-1.2119,-1.2708,-1.3388,-1.374,-1.4181,-1.461,-1.0692,-1.0672,-1.0314,-1.0253,-1.016,-0.9831,-0.9644,-0.9632,-0.9624,-0.9624,-0.9624,-0.9624,-0.9624,-0.9624,-0.9624,-0.9624,-0.9624,-0.9624,-0.9624,-0.9628,-0.9677,-0.9673,-0.9673,-0.9772,-0.9772,-0.9772,-0.9673,-0.9673,-0.9772,-1.0167,-1.0413,-1.0507,-1.085,-1.0998,-1.1145,-1.1047,-1.1096,-1.1096,-1.1145,-1.1198,-1.1194,-1.1194,-1.1194,-1.1194,-1.1243,-1.1243,-1.1243,-1.1736,-1.198,-1.1975,-1.198,-1.2224,-1.2667,-1.271,-1.2759,-1.2759,-1.2807,-1.2807,-1.2807,-1.2807,-1.2807,-1.2807,-1.2807,-1.2807,-1.2807,-1.2807,-1.2807,-1.2807,-1.2807,-1.2807,-1.2807,-1.2662,-1.2662,-1.2807,-1.2807,-1.2807,-1.2807,-1.2807,-1.2797,-1.278,-1.2737,-1.2591,-1.2305,-1.2274,-1.2274,-1.2016,-1.2019,-1.2094,-1.2078,-1.19,-1.1809,-1.1882,-1.186,-1.188,-1.1959,-1.2049,-1.2289,-1.2528,-1.2589,-1.2584,-1.2602,-1.2493,-1.2415,-1.233,-1.2192,-1.2047,-1.179,-1.1703,-1.1739,-1.2114,-1.255,-1.2824,-1.3038,-1.3388,-1.3776,-1.0582,-1.0643,-1.0363,-1.0212,-1.0184,-0.9904,-0.9742,-0.9632,-0.9624,-0.9624,-0.9624,-0.9624,-0.9624,-0.9624,-0.9624,-0.9624,-0.9624,-0.9624,-0.9624,-0.9624,-0.9624,-0.9624,-0.9624,-0.9624,-0.9624,-0.9624,-0.9624,-0.9624,-0.9628,-0.9776,-0.9821,-0.992,-1.0019,-1.0072,-1.0167,-1.0122,-1.0117,-1.0167,-1.0462,-1.0659,-1.0659,-1.0654,-1.0654,-1.0654,-1.0654,-1.0511,-1.0167,-1.0949,-1.1438,-1.1443,-1.1443,-1.1683,-1.2127,-1.2224,-1.2419,-1.271,-1.2807,-1.2807,-1.2807,-1.2807,-1.2807,-1.2807,-1.2807,-1.2807,-1.2807,-1.2759,-1.2759,-1.2759,-1.2807,-1.2807,-1.271,-1.2111,-1.2014,-1.2716,-1.2807,-1.2759,-1.2807,-1.2807,-1.2807,-1.2807,-1.2807,-1.2732,-1.264,-1.263,-1.256,-1.2414,-1.2344,-1.2249,-1.2264,-1.2045,-1.1991,-1.2055,-1.187,-1.1795,-1.1882,-1.1902,-1.2003,-1.2264,-1.2369,-1.2534,-1.2619,-1.265,-1.259,-1.2566,-1.2433,-1.2282,-1.2065,-1.1946,-1.2029,-1.1946,-1.2252,-1.2316,-1.2286,-1.2603,-1.3144,-1.0461,-1.0461,-1.0233,-1.011,-1.0038,-0.9864,-0.9726,-0.9632,-0.9624,-0.9624,-0.9624,-0.9624,-0.9624,-0.9624,-0.9624,-0.9624,-0.9624,-0.9624,-0.9624,-0.9624,-0.9624,-0.9624,-0.9624,-0.9624,-0.9624,-0.9624,-0.9624,-0.9624,-0.9624,-0.9624,-0.9624,-0.9624,-0.9624,-0.9628,-0.9624,-0.9624,-0.9624,-0.9677,-0.992,-1.0117,-1.0117,-1.0068,-1.0117,-1.0117,-1.0117,-0.992,-0.9677,-1.0265,-1.0708,-1.09,-1.11,-1.1394,-1.1688,-1.1688,-1.1883,-1.2127,-1.237,-1.2467,-1.2521,-1.2662,-1.2807,-1.2807,-1.2807,-1.2807,-1.271,-1.2516,-1.2214,-1.2214,-1.1775,-1.1629,-1.1477,-1.1033,-1.0979,-1.1482,-1.1922,-1.2365,-1.2662,-1.2807,-1.2807,-1.2807,-1.2807,-1.2807,-1.2807,-1.2807,-1.2807,-1.2732,-1.2293,-1.2247,-1.2252,-1.1953,-1.1905,-1.1944,-1.2019,-1.1963,-1.1876,-1.185,-1.1772,-1.1916,-1.2118,-1.2326,-1.2497,-1.2534,-1.2504,-1.2614,-1.256,-1.253,-1.2349,-1.2318,-1.2318,-1.2222,-1.2149,-1.2243,-1.24,-1.2435,-1.2788,-1.0318,-1.02,-0.9949,-0.9872,-0.9851,-0.9705,-0.964,-0.9628,-0.9624,-0.9624,-0.9624,-0.9624,-0.9624,-0.9624,-0.9624,-0.9624,-0.9624,-0.9624,-0.9624,-0.9624,-0.9624,-0.9624,-0.9624,-0.9624,-0.9624,-0.9624,-0.9624,-0.9624,-0.9624,-0.9624,-0.9624,-0.9624,-0.9624,-0.9624,-0.9624,-0.9624,-0.9624,-0.9628,-0.9628,-0.9677,-0.9677,-0.9628,-0.9628,-0.9677,-0.9677,-0.9628,-0.9628,-0.9723,-0.9924,-1.0364,-1.0757,-1.0998,-1.1149,-1.1145,-1.1194,-1.1345,-1.1736,-1.1932,-1.2078,-1.2419,-1.2565,-1.2419,-1.2462,-1.2662,-1.2268,-1.1526,-1.1126,-1.1077,-1.0391,-0.9854,-0.9854,-0.9608,-0.9608,-0.9657,-1.0538,-1.1424,-1.2414,-1.2462,-1.2316,-1.2511,-1.2662,-1.271,-1.271,-1.2807,-1.2807,-1.2608,-1.1994,-1.1876,-1.1943,-1.172,-1.1444,-1.1571,-1.1786,-1.1994,-1.1866,-1.1946,-1.1876,-1.1921,-1.2036,-1.2175,-1.2373,-1.2423,-1.254,-1.2607,-1.2638,-1.2674,-1.2644,-1.2566,-1.2548,-1.2518,-1.2499,-1.253,-1.2553,-1.2568,-1.2542,-1.0257,-1.0184,-0.9827,-0.9643,-0.9689,-0.9591,-0.9579,-0.9575,-0.9575,-0.9476,-0.9575,-0.9624,-0.9529,-0.9624,-0.9579,-0.9624,-0.9624,-0.9624,-0.9624,-0.9624,-0.9624,-0.9624,-0.9624,-0.9624,-0.9624,-0.9624,-0.9624,-0.9624,-0.9624,-0.9624,-0.9624,-0.9624,-0.9624,-0.9624,-0.9624,-0.9624,-0.9624,-0.9624,-0.9624,-0.9624,-0.9575,-0.9579,-0.9624,-0.9624,-0.9575,-0.9579,-0.9579,-0.9624,-0.9628,-0.9776,-0.992,-1.0216,-1.056,-1.0609,-1.0703,-1.1096,-1.1243,-1.1389,-1.1487,-1.1829,-1.1824,-1.1184,-1.1424,-1.1272,-1.0493,-1.0199,-1.0047,-0.9998,-0.9706,-0.9509,-0.9406,-0.8863,-0.8467,-0.852,-0.9308,-1.0096,-1.0489,-1.0493,-1.069,-1.1424,-1.1619,-1.1917,-1.2365,-1.2613,-1.2613,-1.2467,-1.177,-1.117,-1.1249,-1.0751,-1.0219,-1.0927,-1.1321,-1.1686,-1.189,-1.2013,-1.2053,-1.2031,-1.2063,-1.206,-1.2194,-1.2318,-1.2466,-1.2656,-1.2607,-1.2601,-1.2644,-1.2656,-1.2693,-1.2705,-1.2674,-1.262,-1.2638,-1.2668,-1.265,-0.9117,-0.9086,-0.9142,-0.8983,-0.8768,-0.8962,-0.8882,-0.863,-0.8581,-0.8581,-0.8581,-0.8581,-0.8783,-0.9076,-0.908,-0.9327,-0.9575,-0.9624,-0.9624,-0.9624,-0.9624,-0.9624,-0.9624,-0.9624,-0.9624,-0.9624,-0.9624,-0.9624,-0.9624,-0.9624,-0.9624,-0.9624,-0.9624,-0.9624,-0.9624,-0.9624,-0.9628,-0.9624,-0.9624,-0.9624,-0.9624,-0.9229,-0.908,-0.9031,-0.8829,-0.8581,-0.8581,-0.8581,-0.8829,-0.9377,-0.9628,-0.9776,-0.9969,-0.9719,-0.9867,-1.0408,-1.0154,-0.9953,-1.0301,-1.0596,-1.0342,-0.9944,-1.0141,-1.0043,-0.955,-0.916,-0.8916,-0.8916,-0.857,-0.8269,-0.8173,-0.7677,-0.7378,-0.7378,-0.7872,-0.8616,-0.9456,-0.9706,-0.9899,-1.0342,-1.0587,-1.0685,-1.1429,-1.1477,-1.1477,-1.1179,-1.0337,-1.019,-1.0288,-0.9505,-0.9255,-1.0,-1.0449,-1.0635,-1.0963,-1.112,-1.1296,-1.1415,-1.1953,-1.1951,-1.2004,-1.2116,-1.2388,-1.2543,-1.2576,-1.2595,-1.2679,-1.2722,-1.2705,-1.2705,-1.2705,-1.2705,-1.2705,-1.2705,-1.2705,-0.7713,-0.7589,-0.8237,-0.8074,-0.7632,-0.8016,-0.7972,-0.7359,-0.7344,-0.7335,-0.7335,-0.7235,-0.7736,-0.828,-0.8283,-0.863,-0.9278,-0.913,-0.9175,-0.9126,-0.9179,-0.913,-0.9076,-0.9476,-0.9575,-0.9624,-0.9624,-0.9624,-0.9624,-0.9624,-0.9624,-0.9624,-0.9624,-0.9624,-0.9624,-0.9628,-0.9579,-0.9381,-0.9331,-0.9229,-0.9031,-0.8584,-0.8283,-0.8184,-0.7783,-0.7484,-0.7434,-0.7434,-0.7885,-0.9278,-0.9377,-0.9229,-0.9179,-0.863,-0.863,-0.9027,-0.8623,-0.8421,-0.8867,-0.8913,-0.8707,-0.8609,-0.8803,-0.8898,-0.8506,-0.7968,-0.7673,-0.7627,-0.688,-0.6734,-0.6684,-0.6487,-0.6537,-0.6634,-0.6584,-0.7428,-0.8715,-0.9258,-0.9312,-0.9406,-0.946,-0.946,-0.9608,-0.9608,-0.9706,-1.0395,-0.9501,-0.9156,-0.9057,-0.8467,-0.8566,-0.9201,-0.9416,-0.9437,-0.9789,-1.0136,-1.0389,-1.0618,-1.1474,-1.1755,-1.1785,-1.1947,-1.2246,-1.2441,-1.2581,-1.2689,-1.2766,-1.2805,-1.2721,-1.2753,-1.2789,-1.2747,-1.2705,-1.2705,-1.2705,-0.7768,-0.7728,-0.7753,-0.7642,-0.7513,-0.76,-0.7486,-0.7325,-0.7178,-0.7036,-0.7135,-0.7185,-0.7238,-0.7437,-0.7487,-0.7584,-0.7836,-0.7882,-0.7733,-0.7736,-0.7736,-0.7736,-0.8031,-0.8882,-0.9529,-0.9525,-0.9575,-0.9575,-0.9525,-0.9426,-0.9575,-0.9525,-0.9377,-0.9575,-0.9525,-0.9381,-0.9229,-0.8779,-0.868,-0.8333,-0.7935,-0.7637,-0.7434,-0.7385,-0.7185,-0.7188,-0.7185,-0.7185,-0.7388,-0.7637,-0.7733,-0.7733,-0.7836,-0.7633,-0.7637,-0.7736,-0.7584,-0.7434,-0.7633,-0.7875,-0.7773,-0.7126,-0.7322,-0.727,-0.6429,-0.6379,-0.6182,-0.6134,-0.6087,-0.6139,-0.6337,-0.6387,-0.6387,-0.6387,-0.6437,-0.6584,-0.698,-0.7182,-0.7627,-0.8124,-0.8368,-0.8616,-0.9361,-0.9361,-0.9361,-0.941,-0.8913,-0.8269,-0.7822,-0.7428,-0.7723,-0.8319,-0.8358,-0.8386,-0.8803,-0.9279,-0.9679,-1.0154,-1.0967,-1.1524,-1.1522,-1.1943,-1.2366,-1.2547,-1.2643,-1.2759,-1.2809,-1.2801,-1.2736,-1.279,-1.2854,-1.283,-1.2806,-1.2752,-1.2759,-0.6678,-0.672,-0.6872,-0.6768,-0.6475,-0.6687,-0.6608,-0.6279,-0.6133,-0.6084,-0.6084,-0.6084,-0.6287,-0.6639,-0.6639,-0.6839,-0.7138,-0.7185,-0.7235,-0.7235,-0.7235,-0.7235,-0.7288,-0.7935,-0.8482,-0.8482,-0.8432,-0.8482,-0.8482,-0.8528,-0.8379,-0.8482,-0.8531,-0.8382,-0.8482,-0.8531,-0.8233,-0.7935,-0.7836,-0.7584,-0.7238,-0.6839,-0.6387,-0.6137,-0.6084,-0.6087,-0.6034,-0.6034,-0.6034,-0.6087,-0.6087,-0.6487,-0.6986,-0.6839,-0.6789,-0.7089,-0.6384,-0.6387,-0.6587,-0.6484,-0.6232,-0.5784,-0.6032,-0.5884,-0.5586,-0.5486,-0.5584,-0.5636,-0.5737,-0.5939,-0.6189,-0.6189,-0.6239,-0.6387,-0.6387,-0.6387,-0.6387,-0.6387,-0.6537,-0.7129,-0.7229,-0.7475,-0.7872,-0.8322,-0.8173,-0.7875,-0.7776,-0.7229,-0.7182,-0.6833,-0.683,-0.7129,-0.7229,-0.7425,-0.7869,-0.8396,-0.9079,-0.9779,-1.0692,-1.1114,-1.1269,-1.1879,-1.2587,-1.2638,-1.2659,-1.2666,-1.2694,-1.2693,-1.2765,-1.2909,-1.2984,-1.2983,-1.2967,-1.2999,-1.2957,-0.5382,-0.5431,-0.6005,-0.5864,-0.5402,-0.5824,-0.5685,-0.5136,-0.4896,-0.5056,-0.4832,-0.4782,-0.5336,-0.5689,-0.5789,-0.6237,-0.6587,-0.6736,-0.6587,-0.6584,-0.6584,-0.6584,-0.6637,-0.6736,-0.6833,-0.6886,-0.7285,-0.7338,-0.7385,-0.7235,-0.7534,-0.7288,-0.7285,-0.7484,-0.7285,-0.7238,-0.7238,-0.7039,-0.6989,-0.6836,-0.6637,-0.6089,-0.5539,-0.5135,-0.5035,-0.5033,-0.5033,-0.4983,-0.4883,-0.4782,-0.4782,-0.5534,-0.6237,-0.6339,-0.6089,-0.6689,-0.5584,-0.5386,-0.5639,-0.5336,-0.4983,-0.4834,-0.5037,-0.519,-0.5188,-0.5286,-0.5386,-0.5436,-0.5486,-0.5639,-0.5892,-0.5939,-0.6039,-0.6187,-0.6287,-0.6287,-0.6337,-0.6337,-0.6387,-0.6487,-0.6686,-0.6883,-0.6783,-0.6933,-0.6637,-0.6387,-0.6387,-0.6387,-0.6387,-0.6437,-0.6534,-0.6534,-0.6734,-0.6783,-0.7182,-0.7378,-0.8071,-0.8715,-0.9797,-1.0226,-1.0649,-1.1409,-1.2004,-1.2485,-1.2562,-1.2662,-1.2732,-1.2756,-1.2871,-1.3032,-1.3018,-1.2929,-1.3028,-1.3168,-1.3159,-0.5382,-0.5382,-0.553,-0.5468,-0.5396,-0.5404,-0.5305,-0.5077,-0.4981,-0.4904,-0.4788,-0.4784,-0.4885,-0.5035,-0.5035,-0.5135,-0.5386,-0.5486,-0.5384,-0.5384,-0.5384,-0.5434,-0.5484,-0.5484,-0.5384,-0.5584,-0.6287,-0.6986,-0.7036,-0.7185,-0.6936,-0.7086,-0.7036,-0.7036,-0.6986,-0.7135,-0.6689,-0.6239,-0.6189,-0.5937,-0.5484,-0.5233,-0.5035,-0.4782,-0.4782,-0.4782,-0.4782,-0.4782,-0.4782,-0.4782,-0.4782,-0.4983,-0.5233,-0.5186,-0.5236,-0.5236,-0.5085,-0.4935,-0.5035,-0.4935,-0.4782,-0.4834,-0.4885,-0.4885,-0.4885,-0.4935,-0.5035,-0.5035,-0.5188,-0.5338,-0.5636,-0.5636,-0.5687,-0.5737,-0.5787,-0.5887,-0.6039,-0.6089,-0.6187,-0.6337,-0.6387,-0.6387,-0.6387,-0.6387,-0.6387,-0.6387,-0.6387,-0.6387,-0.6387,-0.6387,-0.6437,-0.6437,-0.6437,-0.6487,-0.6587,-0.6637,-0.6933,-0.7329,-0.8166,-0.8761,-0.9391,-1.0574,-1.1279,-1.1929,-1.2506,-1.2788,-1.2844,-1.2808,-1.2905,-1.3047,-1.2951,-1.2808,-1.3014,-1.3175,-1.3132,-0.5353,-0.5316,-0.5361,-0.5382,-0.5365,-0.5284,-0.5194,-0.5102,-0.5012,-0.492,-0.4804,-0.4782,-0.4782,-0.4782,-0.4782,-0.4782,-0.4782,-0.4782,-0.4782,-0.4782,-0.4782,-0.4782,-0.4782,-0.4782,-0.4782,-0.4985,-0.5586,-0.5987,-0.5934,-0.5937,-0.6034,-0.5937,-0.5937,-0.5934,-0.5934,-0.5884,-0.5787,-0.5438,-0.5386,-0.5236,-0.4834,-0.4782,-0.4782,-0.4782,-0.4782,-0.4782,-0.4782,-0.4782,-0.4782,-0.4782,-0.4782,-0.4782,-0.4782,-0.4782,-0.4782,-0.4782,-0.4782,-0.4782,-0.4782,-0.4782,-0.4782,-0.4782,-0.4782,-0.4782,-0.4782,-0.4784,-0.4782,-0.4834,-0.4885,-0.5087,-0.5336,-0.5386,-0.5436,-0.5586,-0.5584,-0.5636,-0.5789,-0.5889,-0.6039,-0.6189,-0.6289,-0.6337,-0.6387,-0.6387,-0.6387,-0.6387,-0.6387,-0.6387,-0.6387,-0.6387,-0.6387,-0.6387,-0.6387,-0.6387,-0.6387,-0.6387,-0.6387,-0.6637,-0.6983,-0.7577,-0.8269,-0.9497,-1.0632,-1.1512,-1.2052,-1.2414,-1.2823,-1.2794,-1.2927,-1.3006,-1.2964,-1.298,-1.3046,-1.3152,-1.3107,-0.5328,-0.5196,-0.5322,-0.5355,-0.5339,-0.5255,-0.5163,-0.5077,-0.5004,-0.492,-0.479,-0.4782,-0.4782,-0.4782,-0.4782,-0.4782,-0.4782,-0.4782,-0.4782,-0.4782,-0.4782,-0.4782,-0.4782,-0.4782,-0.4782,-0.4834,-0.4885,-0.4782,-0.4983,-0.5035,-0.4885,-0.4983,-0.4885,-0.4782,-0.4935,-0.5085,-0.4782,-0.4782,-0.4782,-0.4782,-0.4782,-0.4782,-0.4782,-0.4782,-0.4782,-0.4782,-0.4782,-0.4782,-0.4782,-0.4782,-0.4782,-0.4782,-0.4782,-0.4782,-0.4782,-0.4782,-0.4782,-0.4782,-0.4782,-0.4782,-0.4782,-0.4782,-0.4782,-0.4782,-0.4782,-0.4782,-0.4782,-0.4782,-0.4834,-0.4885,-0.5087,-0.5138,-0.5188,-0.5336,-0.5386,-0.5436,-0.5536,-0.5639,-0.5741,-0.5939,-0.6189,-0.6289,-0.6337,-0.6387,-0.6387,-0.6387,-0.6387,-0.6387,-0.6387,-0.6387,-0.6387,-0.6387,-0.6387,-0.6387,-0.6387,-0.6387,-0.6387,-0.6487,-0.6783,-0.7182,-0.7776,-0.8566,-0.955,-1.0435,-1.113,-1.1526,-1.2122,-1.2759,-1.285,-1.293,-1.298,-1.3,-1.2986,-1.3073,-1.3106,-0.5328,-0.5188,-0.5202,-0.5207,-0.5247,-0.5165,-0.5075,-0.5048,-0.5031,-0.492,-0.4782,-0.4782,-0.4782,-0.4782,-0.4782,-0.4782,-0.4782,-0.4782,-0.4782,-0.4782,-0.4782,-0.4782,-0.4782,-0.4782,-0.4782,-0.4782,-0.4782,-0.4782,-0.4782,-0.4782,-0.4782,-0.4782,-0.4782,-0.4782,-0.4782,-0.4782,-0.4782,-0.4782,-0.4782,-0.4782,-0.4782,-0.4782,-0.4782,-0.4782,-0.4782,-0.4782,-0.4782,-0.4782,-0.4782,-0.4782,-0.4782,-0.4782,-0.4782,-0.4782,-0.4782,-0.4782,-0.4782,-0.4782,-0.4782,-0.4782,-0.4782,-0.4782,-0.4782,-0.4782,-0.4782,-0.4782,-0.4782,-0.4782,-0.4782,-0.4784,-0.4885,-0.4885,-0.4885,-0.4935,-0.5033,-0.5085,-0.5238,-0.5438,-0.5541,-0.5689,-0.5889,-0.6139,-0.6237,-0.6337,-0.6387,-0.6387,-0.6387,-0.6387,-0.6387,-0.6387,-0.6387,-0.6387,-0.6387,-0.6387,-0.6387,-0.6387,-0.6387,-0.6387,-0.6587,-0.6833,-0.7229,-0.7673,-0.8024,-0.8913,-0.9702,-1.0739,-1.1575,-1.217,-1.2613,-1.2861,-1.2905,-1.2856,-1.2845,-1.2904,-1.3041,-0.5251,-0.5171,-0.5168,-0.5158,-0.5165,-0.5124,-0.5055,-0.5037,-0.5023,-0.492,-0.4794,-0.4782,-0.4782,-0.4782,-0.4782,-0.4782,-0.4782,-0.4782,-0.4782,-0.4782,-0.4782,-0.4782,-0.4782,-0.4782,-0.4782,-0.4782,-0.4782,-0.4782,-0.4782,-0.4782,-0.4782,-0.4782,-0.4782,-0.4782,-0.4782,-0.4782,-0.4782,-0.4782,-0.4782,-0.4782,-0.4782,-0.4782,-0.4782,-0.4782,-0.4782,-0.4782,-0.4782,-0.4782,-0.4782,-0.4782,-0.4782,-0.4782,-0.4782,-0.4782,-0.4782,-0.4782,-0.4782,-0.4782,-0.4782,-0.4782,-0.4782,-0.4782,-0.4782,-0.4782,-0.4782,-0.4782,-0.4782,-0.4782,-0.4782,-0.4782,-0.4782,-0.4782,-0.4782,-0.4782,-0.4782,-0.4834,-0.4987,-0.5138,-0.534,-0.5438,-0.5589,-0.5789,-0.6037,-0.6187,-0.6287,-0.6339,-0.6387,-0.6387,-0.6387,-0.6387,-0.6387,-0.6387,-0.6387,-0.6387,-0.6387,-0.6387,-0.6387,-0.6387,-0.6387,-0.6587,-0.6584,-0.6883,-0.7329,-0.7776,-0.8566,-0.9649,-1.0886,-1.1575,-1.2014,-1.2414,-1.2807,-1.2807,-1.2807,-1.2802,-1.2915,-0.5103,-0.5081,-0.5149,-0.5137,-0.5071,-0.5051,-0.5,-0.4941,-0.4934,-0.4898,-0.4849,-0.4782,-0.4782,-0.4782,-0.4782,-0.4782,-0.4782,-0.4782,-0.4782,-0.4782,-0.4782,-0.4782,-0.4782,-0.4782,-0.4782,-0.4782,-0.4782,-0.4782,-0.4782,-0.4782,-0.4782,-0.4782,-0.4782,-0.4782,-0.4782,-0.4782,-0.4782,-0.4782,-0.4782,-0.4782,-0.4782,-0.4782,-0.4782,-0.4782,-0.4782,-0.4782,-0.4782,-0.4782,-0.4782,-0.4782,-0.4782,-0.4782,-0.4782,-0.4782,-0.4782,-0.4782,-0.4782,-0.4782,-0.4782,-0.4782,-0.4782,-0.4782,-0.4782,-0.4782,-0.4782,-0.4782,-0.4782,-0.4782,-0.4782,-0.4782,-0.4782,-0.4782,-0.4782,-0.4782,-0.4782,-0.4782,-0.4834,-0.4985,-0.5087,-0.5138,-0.5288,-0.5438,-0.5689,-0.5937,-0.6137,-0.6239,-0.6339,-0.6387,-0.6387,-0.6387,-0.6387,-0.6387,-0.6387,-0.6387,-0.6387,-0.6387,-0.6387,-0.6387,-0.6387,-0.6437,-0.6437,-0.6487,-0.6783,-0.7229,-0.7673,-0.8665,-0.9948,-1.0685,-1.1419,-1.1868,-1.2311,-1.2662,-1.2807,-1.2807,-1.2807,-0.5065,-0.5033,-0.5041,-0.5041,-0.4973,-0.4888,-0.4804,-0.4806,-0.4849,-0.4796,-0.4784,-0.4782,-0.4782,-0.4782,-0.4782,-0.4782,-0.4782,-0.4782,-0.4782,-0.4782,-0.4782,-0.4782,-0.4782,-0.4782,-0.4782,-0.4782,-0.4782,-0.4782,-0.4782,-0.4782,-0.4782,-0.4784,-0.479,-0.4786,-0.4782,-0.4782,-0.4782,-0.4782,-0.4782,-0.4782,-0.4782,-0.4782,-0.4782,-0.4782,-0.4782,-0.4782,-0.4782,-0.4782,-0.4782,-0.4782,-0.4782,-0.4782,-0.4782,-0.4782,-0.4782,-0.4782,-0.4782,-0.4782,-0.4782,-0.4782,-0.4782,-0.4782,-0.4782,-0.4782,-0.4782,-0.4782,-0.4782,-0.4782,-0.4782,-0.4782,-0.4782,-0.4782,-0.4782,-0.4782,-0.4782,-0.4782,-0.4782,-0.4784,-0.4885,-0.4885,-0.4985,-0.5138,-0.5288,-0.5586,-0.5837,-0.5987,-0.6139,-0.6187,-0.6287,-0.6287,-0.6387,-0.6387,-0.6387,-0.6387,-0.6387,-0.6387,-0.6387,-0.6387,-0.6387,-0.6387,-0.6437,-0.6487,-0.6537,-0.6637,-0.7083,-0.8024,-0.8916,-0.9649,-1.0386,-1.1224,-1.1868,-1.2511,-1.2807,-1.2807,-1.2807,-0.4971,-0.4888,-0.4888,-0.4888,-0.4885,-0.4851,-0.4782,-0.4782,-0.4782,-0.4782,-0.4782,-0.4782,-0.4782,-0.4782,-0.4782,-0.4782,-0.4782,-0.4782,-0.4784,-0.4784,-0.4782,-0.4782,-0.4782,-0.4788,-0.4782,-0.4784,-0.4784,-0.4784,-0.4782,-0.48,-0.4881,-0.4888,-0.4869,-0.4788,-0.4782,-0.4788,-0.4782,-0.4782,-0.4782,-0.4782,-0.4782,-0.4782,-0.4782,-0.4782,-0.4782,-0.4782,-0.4782,-0.4782,-0.4782,-0.4782,-0.4782,-0.4782,-0.4782,-0.4782,-0.4782,-0.4782,-0.4782,-0.4782,-0.4782,-0.4782,-0.4782,-0.4782,-0.4782,-0.4782,-0.4782,-0.4782,-0.4782,-0.4782,-0.4782,-0.4782,-0.4782,-0.4782,-0.4782,-0.4782,-0.4782,-0.4782,-0.4782,-0.4782,-0.4784,-0.4834,-0.4834,-0.4935,-0.5087,-0.5188,-0.5486,-0.5687,-0.5837,-0.5987,-0.6087,-0.6239,-0.6237,-0.6337,-0.6387,-0.6387,-0.6387,-0.6387,-0.6387,-0.6387,-0.6387,-0.6387,-0.6387,-0.6437,-0.6437,-0.6437,-0.6437,-0.7182,-0.7925,-0.8616,-0.9649,-1.0979,-1.1922,-1.2662,-1.2807,-1.2807,-1.2807,-0.4894,-0.4786,-0.4782,-0.4782,-0.4782,-0.4782,-0.4782,-0.4782,-0.4782,-0.4782,-0.4782,-0.4782,-0.4782,-0.4782,-0.4782,-0.4782,-0.4782,-0.4786,-0.4855,-0.4871,-0.4883,-0.4875,-0.4875,-0.4873,-0.4871,-0.4802,-0.4819,-0.4879,-0.4885,-0.4904,-0.4957,-0.4973,-0.4926,-0.489,-0.4875,-0.4796,-0.4784,-0.4782,-0.4782,-0.4782,-0.4782,-0.4782,-0.4782,-0.4782,-0.4782,-0.4782,-0.4782,-0.4782,-0.4782,-0.4782,-0.4782,-0.4782,-0.4782,-0.4782,-0.4782,-0.4782,-0.4782,-0.4782,-0.4782,-0.4782,-0.4782,-0.4782,-0.4782,-0.4782,-0.4782,-0.4782,-0.4782,-0.4782,-0.4782,-0.4782,-0.4782,-0.4782,-0.4782,-0.4782,-0.4782,-0.4782,-0.4782,-0.4782,-0.4782,-0.4784,-0.4834,-0.4834,-0.4885,-0.5037,-0.5288,-0.5536,-0.5687,-0.5787,-0.5837,-0.5989,-0.6139,-0.6237,-0.6337,-0.6387,-0.6387,-0.6387,-0.6387,-0.6387,-0.6387,-0.6387,-0.6387,-0.6387,-0.6387,-0.6387,-0.6437,-0.6537,-0.7229,-0.8219,-0.9649,-1.113,-1.197,-1.2759,-1.2807,-1.2807,-1.2807,-0.4788,-0.4784,-0.4782,-0.4782,-0.4782,-0.4782,-0.4782,-0.4782,-0.4782,-0.4782,-0.4782,-0.4782,-0.4782,-0.4782,-0.4782,-0.4782,-0.4782,-0.4786,-0.4873,-0.4932,-0.4943,-0.4957,-0.4969,-0.4961,-0.4943,-0.4879,-0.4918,-0.4969,-0.4969,-0.502,-0.5075,-0.5067,-0.5008,-0.4953,-0.4957,-0.4827,-0.4786,-0.4782,-0.4782,-0.4782,-0.4782,-0.4782,-0.4782,-0.4782,-0.4782,-0.4782,-0.4782,-0.4782,-0.4782,-0.4782,-0.4782,-0.4782,-0.4782,-0.4782,-0.4782,-0.4782,-0.4782,-0.4782,-0.4782,-0.4782,-0.4782,-0.4782,-0.4782,-0.4782,-0.4782,-0.4782,-0.4782,-0.4782,-0.4782,-0.4782,-0.4782,-0.4782,-0.4782,-0.4782,-0.4782,-0.4782,-0.4782,-0.4782,-0.4782,-0.4782,-0.4782,-0.4782,-0.4784,-0.4885,-0.5135,-0.5336,-0.5536,-0.5636,-0.5636,-0.5689,-0.5839,-0.6039,-0.6137,-0.6237,-0.6289,-0.6387,-0.6387,-0.6387,-0.6387,-0.6387,-0.6387,-0.6387,-0.6387,-0.6387,-0.6437,-0.6537,-0.7179,-0.8021,-0.9106,-1.0194,-1.197,-1.2759,-1.2759,-1.2807,-1.2807,-0.4782,-0.4782,-0.4782,-0.4782,-0.4782,-0.4782,-0.4782,-0.4782,-0.4782,-0.4782,-0.4782,-0.4782,-0.4782,-0.4782,-0.4782,-0.4782,-0.4782,-0.4786,-0.4883,-0.5015,-0.5023,-0.5018,-0.5039,-0.5043,-0.5035,-0.5028,-0.5053,-0.5061,-0.5063,-0.5116,-0.511,-0.509,-0.5077,-0.4994,-0.4908,-0.4792,-0.4784,-0.4782,-0.4782,-0.4782,-0.4782,-0.4782,-0.4782,-0.4782,-0.4782,-0.4782,-0.4782,-0.4782,-0.4782,-0.4782,-0.4782,-0.4782,-0.4782,-0.4782,-0.4782,-0.4782,-0.4782,-0.4782,-0.4782,-0.4782,-0.4782,-0.4782,-0.4782,-0.4782,-0.4782,-0.4782,-0.4782,-0.4782,-0.4782,-0.4782,-0.4782,-0.4782,-0.4782,-0.4782,-0.4782,-0.4782,-0.4782,-0.4782,-0.4782,-0.4782,-0.4782,-0.4782,-0.4782,-0.4782,-0.4985,-0.5035,-0.5183,-0.5286,-0.5338,-0.5388,-0.5491,-0.5739,-0.5887,-0.6039,-0.6139,-0.6239,-0.6387,-0.6387,-0.6387,-0.6387,-0.6387,-0.6387,-0.6387,-0.6387,-0.6437,-0.6534,-0.703,-0.7524,-0.7971,-0.9061,-1.0881,-1.2311,-1.2559,-1.2662,-1.2807,-0.4782,-0.4782,-0.4782,-0.4782,-0.4782,-0.4782,-0.4782,-0.4782,-0.4782,-0.4782,-0.4782,-0.4782,-0.4782,-0.4782,-0.4782,-0.4782,-0.4782,-0.4786,-0.4883,-0.4961,-0.5023,-0.5002,-0.5043,-0.5092,-0.5061,-0.509,-0.5132,-0.5155,-0.5159,-0.5192,-0.5192,-0.5171,-0.5147,-0.5053,-0.4949,-0.4892,-0.4817,-0.4802,-0.4782,-0.4782,-0.4782,-0.4782,-0.4782,-0.4782,-0.4782,-0.4782,-0.4782,-0.4782,-0.4782,-0.4782,-0.4782,-0.4782,-0.4782,-0.4782,-0.4782,-0.4782,-0.4782,-0.4782,-0.4782,-0.4782,-0.4782,-0.4782,-0.4782,-0.4782,-0.4782,-0.4782,-0.4782,-0.4782,-0.4782,-0.4782,-0.4782,-0.4782,-0.4782,-0.4782,-0.4782,-0.4782,-0.4782,-0.4782,-0.4782,-0.4782,-0.4782,-0.4782,-0.4782,-0.4782,-0.4834,-0.4834,-0.4832,-0.4935,-0.5037,-0.5138,-0.519,-0.5438,-0.5689,-0.5839,-0.5989,-0.6139,-0.6239,-0.6387,-0.6387,-0.6337,-0.6387,-0.6387,-0.6387,-0.6387,-0.6437,-0.6484,-0.6684,-0.708,-0.7677,-0.8566,-0.9899,-1.113,-1.2063,-1.2414,-1.2613,-0.4782,-0.4782,-0.4782,-0.4782,-0.4782,-0.4782,-0.4782,-0.4782,-0.4782,-0.4782,-0.4782,-0.4782,-0.4782,-0.4782,-0.4782,-0.4782,-0.4782,-0.4782,-0.4894,-0.4949,-0.5023,-0.4988,-0.5028,-0.5084,-0.5086,-0.5086,-0.5132,-0.5228,-0.5192,-0.5243,-0.5247,-0.5188,-0.5148,-0.5106,-0.5014,-0.4951,-0.491,-0.4806,-0.4808,-0.48,-0.479,-0.4782,-0.4782,-0.4782,-0.4782,-0.4782,-0.4782,-0.4782,-0.4782,-0.4782,-0.4782,-0.4782,-0.4782,-0.4782,-0.4782,-0.4782,-0.4782,-0.4782,-0.4782,-0.4782,-0.4782,-0.4782,-0.4782,-0.4782,-0.4782,-0.4782,-0.4782,-0.4782,-0.4782,-0.4782,-0.4782,-0.4782,-0.4782,-0.4782,-0.4782,-0.4782,-0.4782,-0.4782,-0.4782,-0.4782,-0.4782,-0.4782,-0.4782,-0.4782,-0.4782,-0.4782,-0.4782,-0.4834,-0.4935,-0.5037,-0.5087,-0.5138,-0.5388,-0.5639,-0.5789,-0.5889,-0.5989,-0.6087,-0.6187,-0.6187,-0.6287,-0.6337,-0.6289,-0.6289,-0.6387,-0.6487,-0.6584,-0.698,-0.7577,-0.8467,-0.9057,-0.9993,-1.093,-1.1965,-1.236,-0.4782,-0.4782,-0.4782,-0.4782,-0.4782,-0.4782,-0.4782,-0.4782,-0.4782,-0.4782,-0.4782,-0.4782,-0.4782,-0.4782,-0.4782,-0.4782,-0.4782,-0.4796,-0.4898,-0.4937,-0.4957,-0.501,-0.5071,-0.5126,-0.5126,-0.5151,-0.5206,-0.5257,-0.5177,-0.52,-0.5249,-0.5176,-0.5212,-0.513,-0.5067,-0.5058,-0.4928,-0.4871,-0.4883,-0.4871,-0.4794,-0.4784,-0.4782,-0.4782,-0.4782,-0.4782,-0.4782,-0.4782,-0.4782,-0.4782,-0.4782,-0.4782,-0.4782,-0.4782,-0.4782,-0.4782,-0.4782,-0.4782,-0.4782,-0.4782,-0.4782,-0.4782,-0.4782,-0.4782,-0.4782,-0.4782,-0.4782,-0.4782,-0.4782,-0.4782,-0.4782,-0.4782,-0.4782,-0.4782,-0.4782,-0.4782,-0.4782,-0.4782,-0.4782,-0.4782,-0.4782,-0.4782,-0.4782,-0.4782,-0.4782,-0.4782,-0.4782,-0.4782,-0.4834,-0.4935,-0.4985,-0.5037,-0.5138,-0.5388,-0.5489,-0.5589,-0.5689,-0.5787,-0.5887,-0.5934,-0.5937,-0.5987,-0.6089,-0.6139,-0.6187,-0.6287,-0.6437,-0.6783,-0.703,-0.7229,-0.7822,-0.881,-0.9846,-1.0832,-1.1624,-0.4782,-0.4782,-0.4782,-0.4782,-0.4782,-0.4782,-0.4782,-0.4782,-0.4782,-0.4782,-0.4782,-0.4782,-0.4782,-0.4782,-0.4782,-0.4782,-0.4782,-0.4784,-0.4815,-0.489,-0.4922,-0.4971,-0.5051,-0.511,-0.511,-0.5153,-0.5194,-0.522,-0.5163,-0.5204,-0.5261,-0.5292,-0.5233,-0.5169,-0.5122,-0.5081,-0.4992,-0.4912,-0.4869,-0.4873,-0.4806,-0.4782,-0.4782,-0.4782,-0.4782,-0.4782,-0.4782,-0.4782,-0.4782,-0.4782,-0.4782,-0.4782,-0.4782,-0.4782,-0.4782,-0.4782,-0.4782,-0.4782,-0.4782,-0.4782,-0.4782,-0.4782,-0.4782,-0.4782,-0.4782,-0.4782,-0.4782,-0.4782,-0.4782,-0.4782,-0.4782,-0.4782,-0.4782,-0.4782,-0.4782,-0.4782,-0.4782,-0.4782,-0.4782,-0.4782,-0.4782,-0.4782,-0.4782,-0.4782,-0.4782,-0.4782,-0.4782,-0.4782,-0.4782,-0.4834,-0.4834,-0.4885,-0.4985,-0.5087,-0.5188,-0.5288,-0.5438,-0.5586,-0.5687,-0.5687,-0.5636,-0.5687,-0.5837,-0.5887,-0.5937,-0.6037,-0.6087,-0.6087,-0.6234,-0.6484,-0.6734,-0.7378,-0.8418,-0.9604,-1.0243,-0.4782,-0.4782,-0.4782,-0.4782,-0.4782,-0.4782,-0.4782,-0.4782,-0.4782,-0.4782,-0.4782,-0.4782,-0.4782,-0.4782,-0.4782,-0.4782,-0.4782,-0.4784,-0.4786,-0.4786,-0.4802,-0.49,-0.4943,-0.5027,-0.502,-0.5069,-0.5116,-0.5159,-0.5222,-0.5239,-0.5263,-0.5351,-0.5322,-0.5235,-0.5126,-0.5098,-0.5008,-0.491,-0.4859,-0.4794,-0.479,-0.4782,-0.4782,-0.4782,-0.4782,-0.4782,-0.4782,-0.4782,-0.4782,-0.4782,-0.4782,-0.4782,-0.4782,-0.4782,-0.4782,-0.4782,-0.4782,-0.4782,-0.4782,-0.4782,-0.4782,-0.4782,-0.4782,-0.4782,-0.4782,-0.4782,-0.4782,-0.4782,-0.4782,-0.4782,-0.4782,-0.4782,-0.4782,-0.4782,-0.4782,-0.4782,-0.4782,-0.4782,-0.4782,-0.4782,-0.4782,-0.4782,-0.4782,-0.4782,-0.4782,-0.4782,-0.4782,-0.4782,-0.4782,-0.4782,-0.4782,-0.4782,-0.4834,-0.4935,-0.5037,-0.5138,-0.5238,-0.5386,-0.5436,-0.5434,-0.5334,-0.5434,-0.5534,-0.5684,-0.5787,-0.5687,-0.5687,-0.5737,-0.5837,-0.5987,-0.6137,-0.6139,-0.6983,-0.8219,-0.8913,-0.4782,-0.4782,-0.4782,-0.4782,-0.4782,-0.4782,-0.4782,-0.4782,-0.4782,-0.4782,-0.4782,-0.4782,-0.4782,-0.4782,-0.4782,-0.4782,-0.4782,-0.4782,-0.4782,-0.4784,-0.4784,-0.4804,-0.4883,-0.4939,-0.4949,-0.4955,-0.5006,-0.5084,-0.5092,-0.513,-0.5147,-0.51,-0.5153,-0.5167,-0.5094,-0.5055,-0.4961,-0.49,-0.4861,-0.4786,-0.4782,-0.4782,-0.4782,-0.4782,-0.4782,-0.4782,-0.4782,-0.4782,-0.4782,-0.4782,-0.4782,-0.4782,-0.4782,-0.4782,-0.4782,-0.4782,-0.4782,-0.4782,-0.4782,-0.4782,-0.4782,-0.4782,-0.4782,-0.4782,-0.4782,-0.4782,-0.4782,-0.4782,-0.4782,-0.4782,-0.4782,-0.4782,-0.4782,-0.4782,-0.4782,-0.4782,-0.4782,-0.4782,-0.4782,-0.4782,-0.4782,-0.4782,-0.4782,-0.4782,-0.4782,-0.4782,-0.4782,-0.4782,-0.4782,-0.4782,-0.4782,-0.4782,-0.4782,-0.4834,-0.4935,-0.4935,-0.5035,-0.5035,-0.5085,-0.5033,-0.5033,-0.5135,-0.5336,-0.5484,-0.5584,-0.5484,-0.5434,-0.5584,-0.5636,-0.5689,-0.5739,-0.5789,-0.5889,-0.683,-0.7528,-0.4782,-0.4782,-0.4782,-0.4782,-0.4782,-0.4782,-0.4782,-0.4782,-0.4782,-0.4782,-0.4782,-0.4782,-0.4782,-0.4782,-0.4782,-0.4782,-0.4782,-0.4782,-0.4782,-0.4782,-0.479,-0.4819,-0.4894,-0.4908,-0.4922,-0.4926,-0.4979,-0.502,-0.4986,-0.5057,-0.5086,-0.5041,-0.5104,-0.5118,-0.5063,-0.4971,-0.4922,-0.4906,-0.4859,-0.4788,-0.4782,-0.4782,-0.4782,-0.4782,-0.4782,-0.4782,-0.4782,-0.4782,-0.4782,-0.4782,-0.4782,-0.4782,-0.4782,-0.4782,-0.4782,-0.4782,-0.4782,-0.4782,-0.4782,-0.4782,-0.4782,-0.4782,-0.4782,-0.4782,-0.4782,-0.4782,-0.4782,-0.4782,-0.4782,-0.4782,-0.4782,-0.4782,-0.4782,-0.4782,-0.4782,-0.4782,-0.4782,-0.4782,-0.4782,-0.4782,-0.4782,-0.4782,-0.4782,-0.4782,-0.4782,-0.4782,-0.4782,-0.4782,-0.4782,-0.4782,-0.4782,-0.4782,-0.4782,-0.4782,-0.4834,-0.4834,-0.4885,-0.4834,-0.4782,-0.4832,-0.4933,-0.4985,-0.5085,-0.5236,-0.5284,-0.5183,-0.5233,-0.5334,-0.5386,-0.5388,-0.5438,-0.5486,-0.5586,-0.5687,-0.6284,-0.4734,-0.4782,-0.4782,-0.4782,-0.4782,-0.4782,-0.4782,-0.4782,-0.4782,-0.4782,-0.4782,-0.4782,-0.4782,-0.4782,-0.4782,-0.4782,-0.4782,-0.4782,-0.4782,-0.4782,-0.4782,-0.4808,-0.4823,-0.4881,-0.489,-0.4908,-0.4945,-0.4953,-0.4943,-0.5018,-0.5071,-0.5096,-0.5114,-0.5128,-0.5041,-0.5004,-0.4983,-0.4906,-0.4857,-0.4786,-0.4782,-0.4782,-0.4782,-0.4782,-0.4782,-0.4782,-0.4782,-0.4782,-0.4782,-0.4782,-0.4782,-0.4782,-0.4782,-0.4782,-0.4782,-0.4782,-0.4782,-0.4782,-0.4782,-0.4782,-0.4782,-0.4782,-0.4782,-0.4782,-0.4782,-0.4782,-0.4782,-0.4782,-0.4782,-0.4782,-0.4782,-0.4782,-0.4782,-0.4782,-0.4782,-0.4782,-0.4782,-0.4782,-0.4782,-0.4782,-0.4782,-0.4782,-0.4782,-0.4782,-0.4782,-0.4782,-0.4782,-0.4782,-0.4782,-0.4782,-0.4782,-0.4782,-0.4782,-0.4782,-0.4782,-0.4782,-0.4782,-0.4782,-0.4782,-0.4782,-0.4834,-0.4885,-0.4885,-0.4885,-0.4883,-0.4933,-0.4933,-0.4983,-0.5037,-0.5138,-0.5138,-0.5186,-0.5286,-0.5386,-0.5486,-0.4383,-0.4782,-0.4782,-0.4782,-0.4782,-0.4782,-0.4782,-0.4782,-0.4782,-0.4782,-0.4782,-0.4782,-0.4782,-0.4782,-0.4782,-0.4782,-0.4782,-0.4782,-0.4782,-0.4782,-0.4782,-0.4798,-0.4806,-0.4804,-0.4798,-0.4863,-0.4875,-0.4815,-0.4841,-0.4903,-0.4961,-0.4867,-0.4948,-0.5014,-0.499,-0.4965,-0.4887,-0.4894,-0.4863,-0.4782,-0.4782,-0.4782,-0.4782,-0.4782,-0.4782,-0.4782,-0.4782,-0.4782,-0.4782,-0.4782,-0.4782,-0.4782,-0.4782,-0.4782,-0.4782,-0.4782,-0.4782,-0.4782,-0.4782,-0.4782,-0.4782,-0.4782,-0.4782,-0.4782,-0.4782,-0.4782,-0.4782,-0.4782,-0.4782,-0.4782,-0.4782,-0.4782,-0.4782,-0.4782,-0.4782,-0.4782,-0.4782,-0.4782,-0.4782,-0.4782,-0.4782,-0.4782,-0.4782,-0.4782,-0.4782,-0.4782,-0.4782,-0.4782,-0.4782,-0.4782,-0.4782,-0.4782,-0.4782,-0.4782,-0.4782,-0.4782,-0.4782,-0.4782,-0.4782,-0.4782,-0.4782,-0.4782,-0.4782,-0.4782,-0.4782,-0.4832,-0.4784,-0.4782,-0.4834,-0.4935,-0.4885,-0.4885,-0.5035,-0.5135,-0.5236]},{"header":{"parameterUnit":"m.s-1","parameterCategory":1,"la1":31.0,"la2":29.5877,"lo1":-88.7671,"lo2":-86.6584,"dy":0.0162,"dx":0.0185,"nx":115,"ny":88,"refTime":"2023-03-04T06:00:00:Z","depth":0,"parameterNumber":3,"parameterNumberName":"V-component_of_WINDS"},"data":[0.0,0.0,0.0,0.0,0.0,0.0,0.0,0.0,0.0,0.0,0.0,0.0,0.0,0.0,0.0,0.0,0.0,0.0,0.0,0.0,0.0,0.0,0.0,0.0,0.0,0.0,0.0,0.0,0.0,0.0,0.0,0.0,0.0,0.0,0.0,0.0,0.0,0.0,0.0,0.0,0.0,0.0,0.0,0.0,0.0,0.0,0.0,0.0,0.0,0.0,0.0,0.0,0.0,0.0,0.0,0.0,0.0,0.0,0.0,0.0,0.0,0.0,0.0,0.0,0.0,0.0,0.0,0.0,0.0,0.0,0.0,0.0,0.0,0.0,0.0,0.0,0.0,0.0,0.0,0.0,0.0,0.0,0.0,0.0,0.0,0.0,0.0,0.0,0.0,0.0,0.0,0.0,0.0,0.0,0.0,0.0,0.0,0.0,0.0,0.0,0.0,0.0,0.0,0.0,0.0,0.0,0.0,0.0,0.0,0.0,0.0,0.0,0.0,0.0,0.0,0.0,0.0,0.0,0.0,0.0,0.0,0.0,0.0,0.0,0.0,0.0,0.0,0.0,0.0,0.0,0.0,0.0,0.0,0.0,0.0,0.0,0.0,0.0,0.0,0.0,0.0,0.0,0.0,0.0,0.0,0.0,0.0,0.0,0.0,0.0,0.0,0.0,0.0,0.0,0.0,0.0,0.0,0.0,0.0,0.0,0.0,0.0,0.0,0.0,0.0,0.0,0.0,0.0,0.0,0.0,0.0,0.0,0.0,0.0,0.0,0.0,0.0,0.0,0.0,0.0,0.0,0.0,0.0,0.0,0.0,0.0,0.0,0.0,0.0,0.0,0.0,0.0,0.0,0.0,0.0,0.0,0.0,0.0,0.0,0.0,0.0,0.0,0.0,0.0,0.0,0.0,0.0,0.0,0.0,0.0,0.0,0.0,0.0,0.0,0.0,0.0,0.0,0.0,0.0,0.0,0.0,0.0,0.0,0.0,0.0,0.0,0.0,0.0,0.0,0.0,0.0,0.0,0.0,0.0,0.0,0.0,0.0,0.0,0.0,0.0,0.0,0.0,0.0,0.0,0.0,0.0,0.0,0.0,0.0,0.0,0.0,0.0,0.0,0.0,0.0,0.0,0.0,0.0,0.0,0.0,0.0,0.0,0.0,0.0,0.0,0.0,0.0,0.0,0.0,0.0,0.0,0.0,0.0,0.0,0.0,0.0,0.0,0.0,0.0,0.0,0.0,0.0,0.0,0.0,0.0,0.0,0.0,0.0,0.0,0.0,0.0,0.0,0.0,0.0,0.0,0.0,0.0,0.0,0.0,0.0,0.0,0.0,0.0,0.0,0.0,0.0,0.0,0.0,0.0,0.0,0.0,0.0,0.0,0.0,0.0,0.0,0.0,0.0,0.0,0.0,0.0,0.0,0.0,0.0,0.0,0.0,0.0,0.0,0.0,0.0,0.0,0.0,0.0,0.0,0.0,0.0,0.0,0.0,0.0,0.0,0.0,0.0,0.0,0.0,0.0,0.0,0.0,0.0,0.0,0.0,0.0,0.0,0.0,0.0,0.0,0.0,0.0,0.0,0.0,0.0,0.0,0.0,0.0,0.0,0.0,0.0,0.0,0.0,0.0,0.0,0.0,0.0,0.0,0.0,0.0,0.0,0.0,0.0,0.0,0.0,0.0,0.0,0.0,0.0,0.0,0.0,0.0,0.0,0.0,0.0,0.0,0.0,0.0,0.0,0.0,0.0,0.0,0.0,0.0,0.0,0.0,0.0,0.0,0.0,0.0,0.0,0.0,0.0,0.0,0.0,0.0,0.0,0.0,0.0,0.0,0.0,0.0,0.0,0.0,0.0,0.0,0.0,0.0,0.0,0.0,0.0,0.0,0.0,0.0,0.0,0.0,0.0,0.0,0.0,0.0,0.0,0.0,0.0,0.0,0.0,0.0,0.0,0.0,0.0,0.0,0.0,0.0,0.0,0.0,0.0,0.0,0.0,0.0,0.0,0.0,0.0,0.0,0.0,0.0,0.0,0.0,0.0,0.0,0.0,0.0,0.0,0.0,0.0,0.0,0.0,0.0,0.0,0.0,0.0,0.0,0.0,0.0,0.0,0.0,0.0,0.0,0.0,0.0,0.0,0.0,0.0,0.0,0.0,0.0,0.0,0.0,0.0,0.0,0.0,0.0,0.0,0.0,0.0,0.0,0.0,0.0,0.0,0.0,0.0,0.0,0.0,0.0,0.0,0.0,0.0,0.0,0.0,0.0,0.0,0.0,0.0,0.0,0.0,0.0,0.0,0.0,0.0,0.0,0.0,0.0,0.0,0.0,0.0,0.0,0.0,0.0,0.0,0.0,0.0,0.0,0.0,0.0,0.0,0.0,0.0,0.0,0.0,0.0,0.0,0.0,0.0,0.0,0.0,0.0,0.0,0.0,0.0,0.0,0.0,0.0,0.0,0.0,0.0,0.0,0.0,0.0,0.0,0.0,0.0,0.0,0.0,0.0,0.0,0.0,0.0,0.0,0.0,0.0,0.0,0.0,0.0,0.0,0.0,0.0,0.0,0.0,0.0,0.0,0.0,0.0,0.0,0.0,0.0,0.0,0.0,0.0,0.0,0.0,0.0,0.0,0.0,0.0,0.0,0.0,0.0,0.0,0.0,0.0,0.0,0.0,0.0,0.0,0.0,0.0,0.0,0.0,0.0,0.0,0.0,0.0,0.0,0.0,0.0,0.0,0.0,0.0,0.0,0.0,0.0,0.0,0.0,0.0,0.0,0.0,0.0,0.0,0.0,0.0,0.0,0.0,0.0,0.0,0.0,0.0,0.0,0.0,0.0,0.0,0.0,0.0,0.0,0.0,0.0,0.0,0.0,0.0,0.0,0.0,0.0,0.0,0.0,0.0,0.0,0.0,0.0,0.0,0.0,0.0,0.0,0.0,0.0,0.0,0.0,0.0,0.0,0.0,0.0,0.0,0.0,0.0,0.0,0.0,0.0,0.0,0.0,0.0,0.0,0.0,0.0,0.0,0.0,0.0,0.0,0.0,0.0,0.0,0.0,0.0,0.0,0.0,0.0,0.0,0.0,0.0,0.0,0.0,0.0,0.0,0.0,0.0,0.0,0.0,0.0,0.0,0.0,0.0,0.0,0.0,0.0,0.0,0.0,0.0,0.0,0.0,0.0,0.0,0.0,0.0,0.0,0.0,0.0,0.0,0.0,0.0,0.0,0.0,0.0,0.0,0.0,0.0,0.0,0.0,0.0,0.0,0.0,0.0,0.0,0.0,0.0,0.0,0.0,0.0,0.0,0.0,0.0,0.0,0.0,0.0,0.0,0.0,0.0,0.0,0.0,0.0,0.0,0.0,0.0,0.0,0.0,0.0,0.0,0.0,0.0,0.0,0.0,0.0,0.0,0.0,0.0,0.0,0.0,0.0,0.0,0.0,0.0,0.0,0.0,0.0,0.0,0.0,0.0,0.0,0.0,0.0,0.0,0.0,0.0,0.0,0.0,0.0,0.0,0.0,0.0,0.0,0.0,0.0,0.0,0.0,0.0,0.0,0.0,0.0,0.0,0.0,0.0,0.0,0.0,0.0,0.0,0.0,0.0,0.0,0.0,0.0,0.0,0.0,0.0,0.0,0.0,0.0,0.0,0.0,0.0,0.0,0.0,0.0,0.0,0.0,0.0,0.0,0.0,0.0,0.0,0.0,0.0,0.0,0.0,0.0,0.0,0.0,0.0,0.0,0.0,0.0,0.0,0.0,0.0,0.0,0.0,0.0,0.0,0.0,0.0,0.0,0.0,0.0,0.0,0.0,0.0,0.0,0.0,0.0,0.0,0.0,0.0,0.0,0.0,0.0,0.0,0.0,0.0,0.0,0.0,0.0,0.0,0.0,0.0,0.0,0.0,0.0,0.0,0.0,0.0,0.0,0.0,0.0,0.0,0.0,0.0,0.0,0.0,0.0,0.0,0.0,0.0,0.0,0.0,0.0,0.0,0.0,0.0,0.0,0.0,0.0,0.0,0.0,0.0,0.0,0.0,0.0,0.0,0.0,0.0,0.0,0.0,0.0,0.0,0.0,0.0,0.0,0.0,0.0,0.0,0.0,0.0,0.0,0.0,0.0,0.0,0.0,0.0,0.0,0.0,0.0,0.0,0.0,0.0,0.0,0.0,0.0,0.0,0.0,0.0,0.0,0.0,0.0,0.0,0.0,0.0,0.0,0.0,0.0,0.0,0.0,0.0,0.0,0.0,0.0,0.0,0.0,0.0,0.7156,0.0,0.0,0.0,0.0,0.0,0.0,0.0,0.0,0.0,0.0,0.0,0.0,0.0,0.0,0.0,0.0,0.0,0.0,0.0,0.0,0.0,0.0,0.0,0.0,0.0,0.0,0.0,0.0,0.0,0.0,0.0,0.0,0.0,0.0,0.0,0.0,0.0,0.0,0.0,0.0,0.0,0.0,0.0,0.0,0.0,0.0,0.0,0.0,0.0,0.0,0.0,0.0,0.0,0.0,0.0,0.0,0.0,0.0,0.0,0.0,0.0,0.0,0.0,0.0,0.0,0.0,0.0,0.0,0.0,0.0,0.0,0.0,0.0,0.0,0.0,0.0,0.0,0.0,0.0,0.0,0.0,0.0,0.0,0.0,0.0,0.0,0.0,0.0,0.0,0.0,0.0,0.0,0.0,0.0,0.0,0.0,0.0,0.0,0.0,0.0,0.0,0.0,0.0,0.0,0.0,0.0,0.0,0.0,0.0,0.0,0.7896,0.7405,0.7309,0.7184,0.6984,0.0,0.0,0.0,0.0,0.0,0.0,0.0,0.0,0.0,0.0,0.0,0.0,0.0,0.0,0.0,0.0,0.0,0.0,0.0,0.0,0.0,0.0,0.0,0.0,0.0,0.0,0.0,0.0,0.0,0.0,0.0,0.0,0.0,0.0,0.0,0.0,0.0,0.0,0.0,0.0,0.0,0.0,0.0,0.0,0.0,0.0,0.0,0.0,0.0,0.0,0.0,0.0,0.0,0.0,0.0,0.0,0.0,0.0,0.0,0.0,0.0,0.0,0.0,0.0,0.0,0.0,0.0,0.0,0.0,0.0,0.0,0.0,0.0,0.0,0.0,0.0,0.0,0.0,0.0,0.0,0.0,0.0,0.0,0.0,0.0,0.0,0.0,0.0,0.0,0.0,0.0,0.0,0.0,0.0,0.0,0.0,0.0,0.0,0.0,0.0,0.0,0.0,0.0,0.0,0.0,0.0,0.0,0.0,0.0,0.0,0.0,0.0,0.7409,0.734,0.7508,0.0,0.0,0.0,0.0,0.0,0.0,0.0,0.0,0.0,0.0,0.0,0.0,0.0,0.0,0.0,0.0,0.0,0.0,0.0,0.0,0.0,0.0,0.0,0.0,0.0,0.0,0.0,0.0,0.0,0.0,0.0,0.0,0.0,0.0,0.0,0.0,0.0,0.0,0.0,0.0,0.0,0.0,0.0,0.0,0.0,0.0,0.0,0.0,0.0,0.0,0.0,0.0,0.0,0.0,0.0,0.0,0.0,0.0,0.0,0.0,0.0,0.0,0.0,0.0,0.0,0.0,0.0,0.0,0.0,0.0,0.0,0.0,0.0,0.0,0.0,0.0,0.0,0.0,0.0,0.0,0.0,0.0,0.0,0.0,0.0,0.0,0.0,0.0,0.0,0.0,0.0,0.0,0.0,0.0,0.0,0.0,0.0,0.0,0.0,0.0,0.0,0.0,0.0,0.0,0.0,0.0,0.0,0.0,0.0,0.0,0.7591,0.863,0.8058,0.0,0.8914,0.0,0.0,0.0,0.0,0.0,0.0,0.0,0.0,0.0,0.0,0.0,0.0,0.0,0.0,0.0,0.0,0.0,0.0,0.0,0.0,0.0,0.0,0.0,0.0,0.0,0.0,0.0,0.0,0.0,0.0,0.0,0.0,0.0,0.0,0.0,0.0,0.0,0.0,0.0,0.0,0.0,0.0,0.0,0.0,0.0,0.0,0.0,0.0,0.0,0.0,0.0,0.0,0.0,0.0,0.0,0.0,0.0,0.0,0.0,0.0,0.0,0.0,0.0,0.0,0.0,0.0,0.0,0.0,0.0,0.0,0.0,0.0,0.0,0.0,0.0,0.0,0.0,0.0,0.0,0.0,0.0,0.0,0.0,0.0,0.0,0.0,0.0,0.0,0.0,0.0,0.0,0.0,0.0,0.0,0.0,0.0,0.0,0.0,0.0,0.0,0.0,0.0,0.0,0.0,0.0,0.0,0.0,0.0,0.0,0.0,0.7519,0.8072,0.7734,0.7804,0.0,0.0,0.0,0.0,0.0,0.0,0.0,0.0,0.0,0.0,0.0,0.0,0.0,0.0,0.0,0.0,0.0,0.0,0.0,0.0,0.0,0.0,0.0,0.0,0.0,0.0,0.0,0.0,0.0,0.0,0.0,0.0,0.0,0.0,0.0,0.0,0.0,0.0,0.0,0.0,0.0,0.0,0.0,0.0,0.0,0.0,0.0,0.0,0.0,0.0,0.0,0.0,0.0,0.0,0.0,0.0,0.0,0.0,0.0,0.0,0.0,0.0,0.0,0.0,0.0,0.0,0.0,0.0,0.0,0.0,0.0,0.0,0.0,0.0,0.0,0.0,0.0,0.0,0.0,0.0,0.0,0.0,0.0,0.0,0.0,0.0,0.0,0.0,0.0,0.0,0.0,0.0,0.0,0.0,0.0,0.0,0.0,0.0,0.0,0.0,0.0,0.0,0.0,0.0,0.0,0.0,0.0,0.0,0.0,0.0,0.8108,0.7647,0.7745,0.7366,0.7433,0.7993,0.0,0.0,0.0,0.0,0.0,0.0,0.0,0.0,0.0,0.0,0.0,0.0,0.0,0.0,0.0,0.0,0.0,0.0,0.0,0.0,0.0,0.0,0.0,0.0,0.0,0.0,0.0,0.0,0.0,0.0,0.0,0.0,0.0,0.0,0.0,0.0,0.0,0.0,0.0,0.0,0.0,0.0,0.0,0.0,0.0,0.0,0.0,0.0,0.0,0.0,0.0,0.0,0.0,0.0,0.0,0.0,0.0,0.0,0.0,0.0,0.0,0.0,0.0,0.0,0.0,0.0,0.0,0.0,0.0,0.0,0.0,0.0,0.0,0.0,0.0,0.0,0.0,0.0,0.0,0.0,0.0,0.0,0.0,0.0,0.0,0.0,0.0,0.0,0.0,0.0,0.0,0.0,0.0,0.0,0.0,0.0,0.0,0.0,0.0,0.0,0.0,0.0,0.0,0.0,0.0,0.0,0.0,0.0,1.175,0.9376,0.8085,0.8116,0.7191,0.7208,0.0,0.0,0.0,0.0,0.0,0.0,0.0,0.0,0.0,0.0,0.0,0.0,0.0,0.0,0.0,0.0,0.0,0.0,0.0,0.0,0.0,0.0,0.0,0.0,0.0,0.0,0.0,0.0,0.0,0.0,0.0,0.0,0.0,0.0,0.0,0.0,0.0,0.0,0.0,0.0,0.0,0.0,0.0,0.0,0.0,0.0,0.0,0.0,0.0,0.0,0.0,0.0,0.0,0.0,0.0,0.0,0.0,0.0,0.0,0.0,0.0,0.0,0.0,0.0,0.0,0.0,0.0,0.0,0.0,0.0,0.0,0.0,0.0,0.0,0.0,0.0,0.0,0.0,0.0,0.0,0.0,0.0,0.0,0.0,0.0,0.0,0.0,0.0,0.0,0.0,0.0,0.0,0.0,0.0,0.0,0.0,0.0,0.0,0.0,0.0,0.0,0.0,0.0,0.0,0.0,0.0,0.0,0.0,0.0,0.9253,0.8031,0.7365,0.7353,0.7026,0.734,0.0,0.0,0.0,0.0,0.0,0.0,0.0,0.0,0.0,0.0,0.0,0.0,0.0,0.0,0.0,0.0,0.0,0.0,0.0,0.0,0.0,0.0,0.0,0.0,0.0,0.0,0.0,0.0,0.0,0.0,0.0,0.0,0.0,0.0,0.0,0.0,0.0,0.0,0.0,0.0,0.0,0.0,0.0,0.0,0.0,0.0,0.0,0.0,0.0,0.0,0.0,0.0,0.0,0.0,0.0,0.0,0.0,0.0,0.0,0.0,0.0,0.0,0.0,0.0,0.0,0.0,0.0,0.0,0.0,0.0,0.0,0.0,0.0,0.0,0.0,0.0,0.0,0.0,0.0,0.0,0.0,0.0,0.0,0.0,0.0,0.0,0.0,0.0,0.0,0.0,0.0,0.0,0.0,0.0,0.0,0.0,0.0,0.0,0.0,0.0,0.0,0.0,0.0,0.0,0.0,0.0,0.0,0.0,0.0,0.8092,0.0,0.7743,0.7085,0.697,0.7201,0.0,0.0,0.0,0.0,0.0,0.0,0.0,0.0,0.0,0.0,0.0,0.0,0.0,0.0,0.0,0.0,0.0,0.0,0.0,0.0,0.0,0.0,0.0,0.0,0.0,0.0,0.0,0.0,0.0,0.0,0.0,0.0,0.0,0.0,0.0,0.0,0.0,0.0,0.0,0.0,0.0,0.0,0.0,0.0,0.0,0.0,0.0,0.0,0.0,0.0,0.0,0.0,0.0,0.0,0.0,0.0,0.0,0.0,0.0,0.0,0.0,0.0,0.0,0.0,0.0,0.0,0.0,0.0,0.0,0.0,0.0,0.0,0.0,0.0,0.0,0.0,0.0,0.0,0.0,0.0,0.0,0.0,0.0,0.0,0.0,0.0,0.0,0.0,0.0,0.0,0.0,0.0,0.0,0.0,0.0,0.0,0.0,0.0,0.0,0.0,0.0,0.0,0.0,0.0,0.0,0.0,0.0,0.0,0.8928,0.8788,0.9576,0.9082,0.7453,0.6939,0.6659,0.0,0.0,0.0,0.0,0.0,0.0,0.0,0.0,0.0,0.0,0.0,0.0,0.0,0.0,0.0,0.0,0.0,0.0,0.0,0.0,0.0,0.0,0.0,0.0,0.0,0.0,0.0,0.0,0.0,0.0,0.0,0.0,0.0,0.0,0.0,0.0,0.0,0.0,0.0,0.0,0.0,0.0,0.0,0.0,0.0,0.0,0.0,0.0,0.0,0.0,0.0,0.0,0.0,0.0,0.0,0.0,0.0,0.0,0.0,0.0,0.0,0.0,0.0,0.0,0.0,0.0,0.0,0.0,0.0,0.0,0.0,0.0,0.0,0.0,0.0,0.0,0.0,0.0,0.0,0.0,0.0,0.0,0.0,0.0,0.0,0.0,0.0,0.0,0.0,0.0,0.0,0.0,0.0,0.0,0.0,0.0,0.0,0.0,0.0,0.0,0.0,0.0,0.0,0.0,0.0,0.0,0.0,0.0,0.0,0.7288,0.7505,0.7357,0.6736,0.61,0.6263,0.0,0.0,0.0,0.0,0.0,0.0,0.0,0.0,0.0,0.0,0.0,0.0,0.0,0.0,0.0,0.0,0.0,0.0,0.0,0.0,0.0,0.0,0.0,0.0,0.0,0.0,0.0,0.0,0.0,0.0,0.0,0.0,0.0,0.0,0.0,0.0,0.0,0.0,0.0,0.0,0.0,0.0,0.0,0.0,0.0,0.0,0.0,0.0,0.0,0.0,0.0,0.0,0.0,0.0,0.0,0.0,0.0,0.0,0.0,0.0,0.0,0.0,0.0,0.0,0.0,0.0,0.0,0.0,0.0,0.0,0.0,0.0,0.0,0.0,0.0,0.0,0.0,0.0,0.0,0.0,0.0,0.0,0.0,0.0,0.0,0.0,0.0,0.0,0.0,0.0,0.0,0.0,0.0,0.0,0.0,0.0,0.0,0.0,0.0,0.0,0.0,0.0,0.0,0.0,0.0,0.0,0.0,0.0,0.0,0.7007,0.7007,0.6879,0.6561,0.5613,0.5759,0.7132,0.0,0.0,0.0,0.0,0.0,0.0,0.0,0.0,0.0,0.0,0.0,0.0,0.0,0.0,0.0,0.0,0.0,0.0,0.0,0.0,0.0,0.0,0.0,0.0,0.0,0.0,0.0,0.0,0.0,0.0,0.0,0.0,0.0,0.0,0.0,0.0,0.0,0.0,0.0,0.0,0.0,0.0,0.0,0.0,0.0,0.0,0.0,0.0,0.0,0.0,0.0,0.0,0.0,0.0,0.0,0.0,0.0,0.0,0.0,0.0,0.0,0.0,0.0,0.0,0.0,0.0,0.0,0.0,0.0,0.0,0.0,0.0,0.0,0.0,0.0,0.0,0.0,0.0,0.0,0.0,0.0,0.0,0.0,0.0,0.0,0.0,0.0,0.0,0.0,0.0,0.0,0.0,0.0,0.0,0.0,0.0,0.0,0.0,0.0,0.0,0.0,0.0,0.0,0.0,0.0,0.0,0.0,0.0,0.7609,0.776,0.7492,0.6739,0.55,0.5321,0.0,0.0,0.0,0.0,0.0,0.0,0.0,0.0,0.0,0.0,0.0,0.0,0.0,0.0,0.0,0.0,0.0,0.0,0.0,0.0,0.0,0.0,0.0,0.0,0.0,0.0,0.0,0.0,0.0,0.0,0.0,0.0,0.0,0.0,0.0,0.0,0.0,0.0,0.0,0.0,0.0,0.0,0.0,0.0,0.0,0.0,0.0,0.0,0.0,0.0,0.0,0.0,0.0,0.0,0.0,0.0,0.0,0.0,0.0,0.0,0.0,0.0,0.0,0.0,0.0,0.0,0.0,0.0,0.0,0.0,0.0,0.0,0.0,0.0,0.0,0.0,0.0,0.0,0.0,0.0,0.0,0.0,0.0,0.0,0.0,0.0,0.0,0.0,0.0,0.0,0.0,0.0,0.0,0.0,0.0,0.0,0.0,0.0,0.0,0.0,0.0,0.0,0.0,0.0,0.0,0.0,0.0,0.0,0.0,0.7541,0.6648,0.611,0.6037,0.545,0.5654,0.0,0.0,0.0,0.0,0.0,0.0,0.0,0.0,0.0,0.0,0.0,0.0,0.0,0.0,0.0,0.0,0.0,0.0,0.0,0.0,0.0,0.0,0.0,0.0,0.0,0.0,0.0,0.0,0.0,0.0,0.0,0.0,0.0,0.0,0.0,0.0,0.0,0.0,0.0,0.0,0.0,0.0,0.0,0.0,0.0,0.0,0.0,0.0,0.0,0.0,0.0,0.0,0.0,0.0,0.0,0.0,0.0,0.0,0.0,0.0,0.0,0.0,0.0,0.0,0.0,0.0,0.0,0.0,0.0,0.0,0.0,0.0,0.0,0.0,0.0,0.0,0.0,0.0,0.0,0.0,0.0,0.0,0.0,0.0,0.0,0.0,0.0,0.0,0.0,0.0,0.0,0.0,0.0,0.0,0.0,0.0,0.0,0.0,0.0,0.0,0.0,0.0,0.0,0.0,0.0,0.0,0.0,0.0,0.9017,0.814,0.677,0.5999,0.5826,0.5693,0.6051,0.0,0.0,0.0,0.0,0.0,0.0,0.0,0.0,0.0,0.0,0.0,0.0,0.0,0.0,0.0,0.0,0.0,0.0,0.0,0.0,0.0,0.0,0.0,0.0,0.0,0.0,0.0,0.0,0.0,0.0,0.0,0.0,0.0,0.0,0.0,0.0,0.0,0.0,0.0,0.0,0.0,0.0,0.0,0.0,0.0,0.0,0.0,0.0,0.0,0.0,0.0,0.0,0.0,0.0,0.0,0.0,0.0,0.0,0.0,0.0,0.0,0.0,0.0,0.0,0.0,0.0,0.0,0.0,0.0,0.0,0.0,0.0,0.0,0.0,0.0,0.0,0.0,0.0,0.0,0.0,0.0,0.0,0.0,0.0,0.0,0.0,0.0,0.0,0.0,0.0,0.0,0.0,0.0,0.0,0.0,0.0,0.0,0.0,0.0,0.0,0.0,0.0,0.0,0.0,0.0,0.0,0.0,0.0,0.9364,0.8896,0.744,0.6454,0.5947,0.6157,0.6467,0.0,0.0,0.0,0.0,0.0,0.0,0.0,0.0,0.0,0.0,0.0,0.0,0.0,0.0,0.0,0.0,0.0,0.0,0.0,0.0,0.0,0.0,0.0,0.0,0.0,0.0,0.0,0.0,0.0,0.0,0.0,0.0,0.0,0.0,0.0,0.0,0.0,0.0,0.0,0.0,0.0,0.0,0.0,0.0,0.0,0.0,0.0,0.0,0.0,0.0,0.0,0.0,0.0,0.0,0.0,0.0,0.0,0.0,0.0,0.0,0.0,0.0,0.0,0.0,0.0,0.0,0.0,0.0,0.0,0.0,0.0,0.0,0.0,0.0,0.0,0.0,0.0,0.0,0.0,0.0,0.0,0.0,0.0,0.0,0.0,0.0,0.0,0.0,0.0,0.0,0.0,0.0,0.0,0.0,0.0,0.0,0.0,0.0,0.0,0.0,0.0,0.0,0.0,0.0,0.0,0.0,0.0,0.0,0.8621,0.8281,0.6761,0.5966,0.6084,0.6502,0.6757,0.0,0.0,0.0,0.0,0.0,0.0,0.0,0.0,0.0,0.0,0.0,0.0,0.0,0.0,0.0,0.0,0.0,0.0,0.0,0.0,0.0,0.0,0.0,0.0,0.0,0.0,0.0,0.0,0.0,0.0,0.0,0.0,0.0,0.0,0.0,0.0,0.0,0.0,0.0,0.0,0.0,0.0,0.0,0.0,0.0,0.0,0.0,0.0,0.8841,0.0,0.0,0.0,0.0,0.0,0.0,0.0,0.0,0.0,0.0,0.0,0.0,0.0,0.0,0.0,0.0,0.0,0.0,0.0,0.0,0.0,0.0,0.0,0.0,0.0,0.0,0.0,0.0,0.0,0.0,0.0,0.0,0.0,0.0,0.0,0.0,0.0,0.0,0.0,0.0,0.0,0.0,0.0,0.0,0.0,0.0,0.0,0.0,0.0,0.0,0.0,0.0,0.0,0.0,0.0,0.0,0.0,0.0,0.0,0.9452,0.8431,0.7138,0.6357,0.6236,0.6763,0.7015,0.0,0.0,0.0,0.0,0.0,0.0,0.0,0.0,0.0,0.0,0.0,0.0,0.0,0.0,0.0,0.0,0.0,0.0,0.0,0.0,0.0,0.0,0.0,0.0,0.0,0.0,0.0,0.0,0.0,0.0,0.0,0.0,0.0,0.0,0.0,0.0,0.0,0.0,0.0,0.0,0.0,0.0,0.0,0.0,0.0,0.0,0.0,0.0,0.0,0.0,0.0,0.0,0.0,0.0,0.0,0.0,0.0,0.0,0.0,0.0,0.0,0.0,0.0,0.0,0.0,0.0,0.0,0.0,0.0,0.0,0.0,0.0,0.0,0.0,0.0,0.0,0.0,0.0,0.0,0.0,0.0,0.0,0.0,0.0,0.0,0.0,0.0,0.0,0.0,0.0,0.0,0.0,0.0,0.0,0.0,0.0,0.0,0.0,0.0,0.0,0.0,0.0,0.0,0.0,0.0,0.0,0.0,1.1699,1.066,0.8996,0.8016,0.7197,0.6577,0.7129,0.7357,0.7165,0.0,0.0,0.0,0.0,0.0,0.0,0.0,0.0,0.0,0.0,0.0,0.0,0.0,0.0,0.0,0.0,0.0,0.0,0.0,0.0,0.0,0.0,0.0,0.0,0.0,0.0,0.0,0.0,0.0,0.0,0.0,0.0,0.0,0.0,0.0,0.0,0.0,0.0,1.6961,1.5619,0.0,0.0,0.0,0.0,0.0,0.0,0.0,0.0,1.019,0.0,0.0,0.0,0.0,0.0,0.0,0.0,0.0,0.0,0.0,0.0,0.0,0.0,0.0,0.0,0.0,0.0,0.0,0.0,0.0,0.0,0.0,0.0,0.0,0.0,0.0,0.0,0.0,0.0,0.0,0.0,0.0,0.0,0.0,0.0,0.0,0.0,0.0,0.0,0.0,0.0,0.0,0.0,0.0,0.0,0.0,0.0,0.0,0.0,0.0,0.0,0.0,0.0,0.0,0.0,0.0,1.2902,1.1485,1.0393,0.9629,0.8748,0.8145,0.773,0.7887,0.7951,0.7872,0.0,0.0,0.0,0.0,0.0,0.0,0.0,0.0,0.0,0.0,0.0,0.0,0.0,0.0,0.0,0.0,0.0,0.0,0.0,0.0,0.0,0.0,0.0,0.0,0.0,0.0,0.0,0.0,0.0,0.0,0.0,0.0,0.0,0.0,0.0,0.0,0.0,0.0,0.0,1.6482,1.554,0.0,0.0,0.0,0.0,0.0,0.0,0.0,0.0,1.1789,0.0,0.0,0.0,0.0,0.0,0.0,0.0,0.0,0.0,0.0,0.0,0.0,0.0,0.0,0.0,0.0,0.0,0.0,0.0,0.0,0.0,0.0,0.0,0.0,0.0,0.0,0.0,0.0,0.0,0.0,0.0,0.0,0.0,0.0,0.0,0.0,0.0,0.0,0.0,0.0,0.0,0.0,0.0,0.0,0.0,0.0,0.0,0.0,0.0,0.0,0.0,0.0,0.0,0.0,0.0,1.2961,1.254,1.177,1.0612,1.0277,0.9765,0.9057,0.9026,0.8962,0.0,0.0,0.0,0.0,0.0,0.0,0.0,0.0,0.0,0.0,0.0,0.0,0.0,0.0,0.0,0.0,0.0,0.0,0.0,0.0,0.0,0.0,0.0,0.0,0.0,0.0,0.0,0.0,0.0,0.0,0.0,0.0,0.0,0.0,0.0,0.0,0.0,0.0,0.0,0.0,1.762,1.6986,1.6472,0.0,0.0,0.0,0.0,0.0,0.0,1.2054,1.2432,0.0,0.0,0.0,0.0,0.0,0.0,0.0,0.0,0.0,0.0,0.0,0.0,0.0,0.0,0.0,0.0,0.0,0.0,0.0,0.0,0.0,0.0,0.0,0.0,0.0,0.0,0.0,0.0,0.0,0.0,0.0,0.0,0.0,0.0,0.0,0.0,0.0,0.0,0.0,0.0,0.0,0.0,0.0,0.0,0.0,0.0,0.0,0.0,0.0,0.0,0.0,0.0,0.0,0.0,0.0,1.3292,1.3983,1.3636,1.2193,1.2068,1.1593,1.0602,1.0499,1.0333,0.0,0.0,0.0,0.0,0.0,0.0,0.0,0.0,0.0,0.0,0.0,0.0,0.0,0.0,0.0,0.0,0.0,0.0,0.0,0.0,0.0,0.0,0.0,0.0,0.0,0.0,0.0,0.0,0.0,0.0,0.0,0.0,0.0,0.0,0.0,0.0,0.0,0.0,0.0,0.0,0.0,1.819,1.7334,1.7047,0.0,0.0,0.0,0.0,1.3248,1.3147,0.0,0.0,0.0,0.0,0.0,0.0,0.0,0.0,0.0,0.0,0.0,0.0,0.0,0.0,0.0,0.0,0.0,0.0,0.0,0.0,0.0,0.0,0.0,0.0,0.0,0.0,0.0,0.0,0.0,0.0,0.0,0.0,0.0,0.0,0.0,0.0,0.0,0.0,0.0,0.0,0.0,0.0,0.0,0.0,0.0,0.0,0.0,0.0,0.0,0.0,0.0,0.0,0.0,0.0,0.0,0.0,1.4723,1.5339,1.5457,1.4917,1.4093,1.3225,1.2408,1.2717,1.2254,0.0,0.0,0.0,0.0,0.0,0.0,0.0,0.0,0.0,0.0,0.0,0.0,0.0,0.0,0.0,0.0,0.0,0.0,0.0,0.0,0.0,0.0,0.0,0.0,0.0,0.0,0.0,0.0,0.0,0.0,0.0,0.0,0.0,0.0,0.0,0.0,0.0,0.0,0.0,0.0,0.0,1.8639,1.8045,1.8241,1.8174,0.0,0.0,1.6182,1.5149,1.5309,0.0,0.0,0.0,0.0,0.0,0.0,0.0,0.0,0.0,0.0,0.0,0.0,0.0,0.0,0.0,0.0,0.0,0.0,0.0,0.0,0.0,0.0,0.0,0.0,0.0,0.0,0.0,0.0,0.0,0.0,0.0,0.0,0.0,0.0,0.0,0.0,0.0,0.0,0.0,0.0,0.0,0.0,0.0,0.0,0.0,0.0,0.0,0.0,0.0,0.0,0.0,0.0,0.0,0.0,0.0,1.6156,1.5946,1.6226,1.6429,1.6534,1.5835,1.5063,1.4383,1.4318,1.3786,0.0,0.0,0.0,0.0,0.0,0.0,0.0,0.0,0.0,0.0,0.0,0.0,0.0,0.0,0.0,0.0,0.0,0.0,0.0,0.0,0.0,0.0,0.0,0.0,0.0,0.0,0.0,0.0,0.0,0.0,0.0,0.0,0.0,0.0,0.0,0.0,0.0,0.0,0.0,0.0,0.0,0.0,1.8994,1.9329,0.0,0.0,0.0,1.7378,1.639,0.0,0.0,0.0,0.0,0.0,0.0,0.0,0.0,0.0,0.0,0.0,0.0,0.0,0.0,0.0,0.0,0.0,0.0,0.0,0.0,0.0,0.0,0.0,0.0,0.0,0.0,0.0,0.0,0.0,0.0,0.0,0.0,0.0,0.0,0.0,0.0,0.0,0.0,0.0,0.0,0.0,0.0,0.0,0.0,0.0,0.0,0.0,0.0,0.0,0.0,0.0,0.0,0.0,0.0,0.0,0.0,0.0,1.7053,1.7368,1.7718,1.812,1.7563,1.6973,1.6432,1.6063,0.0,0.0,0.0,0.0,0.0,0.0,0.0,0.0,0.0,0.0,0.0,0.0,0.0,0.0,0.0,0.0,0.0,0.0,0.0,0.0,0.0,0.0,0.0,0.0,0.0,0.0,0.0,1.8542,0.0,0.0,0.0,0.0,0.0,0.0,0.0,0.0,0.0,0.0,0.0,0.0,0.0,0.0,2.0619,2.0447,2.0702,2.0652,0.0,0.0,1.8395,1.7524,1.7224,1.7118,0.0,0.0,0.0,0.0,0.0,0.0,0.0,0.0,0.0,0.0,0.0,0.0,0.0,0.0,0.0,0.0,0.0,0.0,0.0,0.0,0.0,0.0,0.0,0.0,0.0,0.0,0.0,0.0,0.0,0.0,0.0,0.0,0.0,0.0,0.0,0.0,0.0,0.0,0.0,0.0,0.0,0.0,0.0,0.0,0.0,0.0,0.0,0.0,0.0,0.0,0.0,0.0,0.0,0.0,0.0,1.8035,1.9163,1.9855,2.0081,1.9409,1.8905,1.8595,1.8428,1.7689,0.0,0.0,0.0,0.0,0.0,0.0,0.0,0.0,0.0,0.0,0.0,0.0,0.0,0.0,0.0,0.0,0.0,0.0,0.0,0.0,0.0,0.0,0.0,0.0,0.0,0.0,0.0,0.0,0.0,0.0,0.0,0.0,0.0,0.0,0.0,0.0,0.0,0.0,0.0,0.0,0.0,2.2284,2.2615,2.2743,2.2643,0.0,0.0,1.9683,1.8561,1.7817,1.721,1.6674,0.0,0.0,0.0,0.0,0.0,0.0,0.0,0.0,0.0,0.0,0.0,0.0,0.0,0.0,0.0,0.0,0.0,0.0,0.0,0.0,0.0,0.0,0.0,0.0,0.0,0.0,0.0,0.0,0.0,0.0,0.0,0.0,0.0,0.0,0.0,0.0,0.0,0.0,0.0,0.0,0.0,0.0,0.0,0.0,0.0,0.0,0.0,0.0,0.0,0.0,0.0,0.0,0.0,1.8549,1.9425,1.9919,2.0496,2.1094,2.056,2.007,1.9793,1.9584,1.9051,0.0,0.0,0.0,0.0,0.0,0.0,0.0,0.0,0.0,0.0,0.0,0.0,0.0,0.0,0.0,0.0,0.0,0.0,0.0,0.0,0.0,0.0,0.0,0.0,0.0,0.0,0.0,0.0,2.2654,2.2558,2.2191,0.0,0.0,0.0,0.0,0.0,0.0,0.0,0.0,0.0,0.0,2.2139,2.2524,2.2552,0.0,0.0,2.1675,2.1051,2.045,2.0233,1.986,1.914,1.9162,0.0,0.0,0.0,0.0,0.0,0.0,0.0,0.0,0.0,0.0,0.0,0.0,0.0,0.0,0.0,0.0,0.0,0.0,0.0,0.0,0.0,0.0,0.0,0.0,0.0,0.0,0.0,0.0,0.0,0.0,0.0,0.0,0.0,0.0,0.0,0.0,0.0,0.0,0.0,0.0,0.0,0.0,0.0,0.0,0.0,0.0,0.0,0.0,0.0,0.0,0.0,0.0,1.9481,2.0677,2.1045,2.1687,2.2576,2.1978,2.1541,2.1351,2.0891,2.0401,0.0,0.0,0.0,0.0,0.0,0.0,0.0,0.0,0.0,0.0,0.0,0.0,0.0,0.0,0.0,0.0,0.0,0.0,0.0,0.0,0.0,0.0,0.0,0.0,0.0,0.0,0.0,0.0,2.3921,2.3412,2.2796,0.0,0.0,0.0,0.0,0.0,0.0,0.0,0.0,0.0,0.0,2.271,2.3485,2.3311,2.3097,2.311,2.2765,2.2351,2.2073,2.1875,2.1608,2.125,0.0,0.0,0.0,0.0,0.0,0.0,0.0,0.0,0.0,0.0,0.0,0.0,0.0,0.0,0.0,0.0,0.0,0.0,0.0,0.0,0.0,0.0,0.0,0.0,0.0,0.0,0.0,0.0,0.0,0.0,2.457,0.0,0.0,0.0,0.0,0.0,0.0,0.0,0.0,0.0,0.0,0.0,0.0,0.0,0.0,0.0,0.0,0.0,0.0,0.0,0.0,0.0,0.0,2.0939,2.1592,2.2703,2.3718,2.4541,2.3866,2.3449,2.339,2.251,2.1815,2.147,0.0,0.0,0.0,0.0,0.0,0.0,0.0,0.0,0.0,0.0,0.0,0.0,0.0,0.0,0.0,0.0,0.0,0.0,0.0,0.0,0.0,0.0,0.0,0.0,0.0,0.0,2.4265,2.4113,2.3905,0.0,0.0,0.0,0.0,0.0,0.0,0.0,0.0,0.0,0.0,2.4031,2.4494,2.6136,2.5594,2.4991,2.5154,2.4377,2.3607,2.3235,2.232,2.1776,0.0,0.0,0.0,0.0,0.0,0.0,0.0,0.0,0.0,0.0,0.0,0.0,0.0,0.0,0.0,0.0,0.0,0.0,0.0,0.0,0.0,0.0,0.0,0.0,0.0,0.0,0.0,2.7378,2.7103,0.0,0.0,0.0,0.0,0.0,0.0,0.0,0.0,0.0,0.0,0.0,2.4951,2.5687,0.0,0.0,0.0,0.0,0.0,0.0,0.0,0.0,0.0,0.0,0.0,0.0,2.1536,2.3185,2.349,2.4092,2.5063,2.4814,2.4707,2.4671,2.4376,2.3979,2.3501,0.0,0.0,0.0,0.0,0.0,0.0,0.0,0.0,0.0,0.0,0.0,0.0,0.0,0.0,0.0,0.0,0.0,0.0,0.0,0.0,0.0,0.0,0.0,0.0,0.0,2.5894,0.0,0.0,0.0,0.0,0.0,0.0,0.0,0.0,0.0,0.0,0.0,2.4829,2.5776,2.5921,2.624,2.7162,2.608,2.5314,0.0,0.0,0.0,0.0,0.0,0.0,0.0,0.0,0.0,0.0,0.0,0.0,0.0,0.0,1.9017,1.779,1.7779,1.7882,1.7711,0.0,0.0,0.0,0.0,0.0,0.0,0.0,0.0,0.0,0.0,0.0,0.0,0.0,0.0,2.9441,0.0,2.9255,0.0,0.0,0.0,0.0,0.0,0.0,0.0,0.0,2.7767,2.7893,2.7354,2.7618,2.7223,0.0,2.5863,2.5212,0.0,0.0,0.0,0.0,0.0,0.0,0.0,0.0,2.3102,2.4611,2.4716,2.5161,2.6008,2.5826,2.5687,2.5687,2.5406,2.5064,2.4534,2.3921,2.3158,0.0,0.0,0.0,0.0,0.0,0.0,0.0,0.0,0.0,0.0,0.0,0.0,0.0,0.0,0.0,0.0,0.0,0.0,0.0,0.0,0.0,0.0,0.0,2.6024,0.0,0.0,0.0,0.0,0.0,0.0,0.0,0.0,0.0,2.3796,2.5063,2.6353,2.6897,2.6753,2.6889,2.7646,0.0,0.0,0.0,0.0,0.0,0.0,0.0,2.4885,2.4456,2.4827,2.506,2.482,2.4429,2.3687,2.2422,0.0,0.0,1.925,1.9304,1.9579,1.9224,1.9036,1.8554,1.7285,1.672,1.6162,0.0,0.0,0.0,0.0,0.0,0.0,0.0,0.0,3.1944,3.1852,0.0,3.1904,0.0,0.0,0.0,0.0,0.0,3.1017,0.0,0.0,3.0576,3.0978,3.1398,2.9745,2.8897,2.8779,2.6995,2.6122,2.6214,2.5945,0.0,0.0,0.0,0.0,0.0,0.0,2.5583,2.5889,2.6437,2.7006,2.7504,2.6858,2.653,2.6505,2.5849,2.5291,2.4815,2.4863,2.4362,2.3343,2.3771,0.0,0.0,0.0,0.0,0.0,0.0,0.0,0.0,0.0,0.0,0.0,0.0,0.0,0.0,0.0,0.0,0.0,0.0,0.0,0.0,2.5676,0.0,0.0,0.0,0.0,0.0,0.0,0.0,0.0,0.0,0.0,2.4451,2.601,2.738,2.754,0.0,0.0,0.0,0.0,2.6063,2.6592,2.6583,2.6361,2.5977,2.6253,2.6374,2.5928,0.0,0.0,2.4887,2.4794,2.4612,2.3881,2.3881,2.3134,2.0282,2.0668,2.1101,2.0265,2.0135,1.9669,1.8276,1.7389,1.6524,3.7337,0.0,0.0,0.0,0.0,3.381,3.485,3.6393,3.5812,3.5117,3.4275,3.414,0.0,0.0,0.0,0.0,0.0,0.0,3.2273,3.134,3.1402,3.1539,3.1732,3.1291,3.1028,3.0909,3.0361,3.0069,2.9998,2.9911,2.8395,2.5604,0.0,0.0,0.0,0.0,2.6546,2.7426,2.7895,2.838,2.8907,2.8703,2.8607,2.8607,2.84,2.8255,2.8098,2.774,2.7316,2.6769,2.6302,0.0,0.0,0.0,0.0,0.0,0.0,0.0,0.0,0.0,0.0,0.0,0.0,0.0,0.0,0.0,0.0,0.0,0.0,0.0,2.7442,2.7404,2.7384,0.0,0.0,0.0,0.0,0.0,0.0,0.0,0.0,0.0,2.7118,2.7733,2.8424,0.0,0.0,2.9292,2.9434,2.8469,2.7783,2.7927,2.6694,0.0,2.6398,2.6078,2.5695,2.5581,2.6201,2.6649,2.6317,2.658,2.647,2.5403,2.5165,2.4689,2.353,2.2782,2.2413,2.2085,2.181,2.1311,2.0378,1.9885,1.9413,4.1502,3.8755,3.7579,3.6924,3.6686,3.6837,3.76,3.8626,3.8246,3.7438,3.6413,3.6287,3.5284,3.3806,3.5243,0.0,0.0,0.0,3.4315,3.3198,3.3284,3.3307,3.3274,3.2912,3.2672,3.2586,3.2059,3.1788,3.1764,3.1812,3.056,2.8053,0.0,0.0,2.7785,2.7817,2.8148,2.8828,2.9102,2.9353,2.9676,2.969,2.969,2.969,2.9704,2.969,2.969,2.9381,2.899,2.8569,2.8026,2.7122,0.0,0.0,0.0,0.0,0.0,0.0,0.0,0.0,0.0,0.0,0.0,2.6078,2.5526,0.0,0.0,0.0,2.7136,2.809,2.8766,2.8417,0.0,0.0,0.0,0.0,0.0,0.0,0.0,2.9995,3.0427,3.0467,2.9807,2.9783,2.9797,2.9596,2.9935,3.0183,3.0011,0.0,2.8547,2.8429,2.7355,2.6649,2.6886,2.6637,2.6385,2.64,2.6929,2.7374,2.7311,2.7574,2.7501,2.6836,2.6483,2.624,2.5889,2.4868,2.3859,2.3424,2.3301,2.2843,2.1632,2.1396,2.1044,4.4919,4.3504,4.0634,3.9512,3.9646,3.9966,3.991,3.9605,3.9589,3.9128,3.836,3.8319,3.8204,3.8092,3.8092,0.0,3.8058,3.7386,3.6627,3.5853,3.5836,3.5831,3.5752,3.4637,3.4137,3.4097,3.2812,3.2259,3.2402,3.2492,3.2357,3.2091,3.1434,3.103,3.0845,3.0407,3.0189,3.0208,3.0283,3.0264,3.0225,3.027,3.027,3.024,3.0256,3.0286,3.0286,3.0286,3.0041,2.9493,2.9353,2.8777,2.763,0.0,0.0,0.0,0.0,0.0,0.0,0.0,0.0,0.0,0.0,0.0,0.0,0.0,0.0,0.0,2.7827,0.0,3.0109,2.9237,0.0,0.0,0.0,3.0034,3.1675,3.1576,3.177,3.2695,0.0,0.0,3.2276,3.2015,3.1413,3.0378,3.0108,2.9995,2.9908,2.9373,2.8786,2.8501,2.8352,2.8094,2.7635,2.77,2.7775,2.775,2.7889,2.7845,2.785,2.786,2.7889,2.782,2.769,2.7489,2.7515,2.6596,2.5617,2.4542,2.4459,2.4128,2.2475,2.2039,2.1702,4.6045,4.6436,4.457,4.2639,4.0852,4.147,4.1565,4.1316,4.1316,4.107,4.0654,4.0105,3.982,3.9831,3.9813,3.9813,3.9813,3.9621,3.8937,3.7914,3.7875,3.7706,3.7347,3.706,3.6912,3.6878,3.6038,3.5622,3.5629,3.5058,3.4756,3.4666,3.4138,3.304,3.1494,3.1768,3.1991,3.198,3.2473,3.2527,3.2167,3.2548,3.2548,3.2155,3.252,3.2748,3.2748,3.2748,3.267,3.2551,3.2116,3.1313,3.0037,2.9297,0.0,0.0,0.0,0.0,0.0,0.0,0.0,0.0,0.0,2.8046,2.6061,0.0,2.8635,0.0,2.895,3.1068,3.3567,3.2667,0.0,0.0,3.2819,3.2819,3.3254,3.3718,3.3901,3.3556,3.3867,3.3938,3.3465,3.3334,3.3076,3.2513,3.2196,3.1722,3.093,3.0716,3.0235,2.9342,2.885,2.8646,2.8678,2.8417,2.8167,2.7923,2.7913,2.7889,2.7913,2.7889,2.7889,2.7889,2.7864,2.7815,2.7815,2.756,2.7242,2.666,2.537,2.406,2.3564,2.3301,2.2916,4.6581,4.6821,4.5605,4.4048,4.241,4.3133,4.3187,4.2728,4.2339,4.1928,4.1486,4.1064,4.0889,4.0871,4.0871,4.0699,4.0418,4.0401,3.9869,3.8916,3.8916,3.8781,3.8532,3.8532,3.8532,3.8515,3.8124,3.7823,3.7581,3.7132,3.6831,3.6614,3.6323,3.558,3.4427,3.3624,3.3223,3.3223,3.3584,3.3624,3.3371,3.364,3.3624,3.3355,3.3294,3.3285,3.3285,3.265,3.2304,3.2329,3.2321,3.1732,3.0406,3.0212,2.9395,0.0,0.0,0.0,0.0,0.0,0.0,0.0,0.0,0.0,0.0,0.0,3.0434,3.0471,3.1557,3.2935,3.4564,3.405,3.384,3.4575,3.4644,3.4782,3.5169,3.5459,3.5504,3.5252,3.4696,3.4244,3.3991,3.3822,3.3642,3.3418,3.3829,3.355,3.2124,3.1725,3.1342,3.0538,2.9832,2.9355,2.9467,2.918,2.888,2.8662,2.8614,2.8567,2.8448,2.8439,2.8439,2.8439,2.8439,2.8455,2.8415,2.8255,2.811,2.7799,2.6672,2.5494,2.4896,2.4557,2.4115,4.6878,4.6284,4.538,4.4671,4.4195,4.463,4.4337,4.3534,4.2843,4.2225,4.1696,4.1678,4.1678,4.1678,4.1678,4.1325,4.0729,4.0711,4.0338,3.9679,3.9661,3.9658,3.9596,3.9596,3.9596,3.9578,3.949,3.9227,3.8819,3.875,3.847,3.8084,3.8061,3.8061,3.7986,3.5808,3.4546,3.421,3.421,3.4185,3.4111,3.4185,3.4185,3.4078,3.3543,3.3266,3.3217,3.2015,3.1365,3.1382,3.199,3.1727,3.0375,3.0626,3.0496,0.0,2.8815,0.0,0.0,0.0,0.0,0.0,0.0,0.0,0.0,3.1964,3.2751,3.4418,3.4577,3.463,3.4736,3.4772,3.509,3.5848,3.5953,3.6253,3.696,3.6811,3.6661,3.6763,3.4978,3.3874,3.3902,3.367,3.3439,3.3379,3.4292,3.4317,3.2882,3.2299,3.2017,3.1629,3.0879,3.0284,3.0075,2.9973,2.9903,2.9722,2.9639,2.9566,2.9364,2.9312,2.9296,2.9289,2.9312,2.9289,2.9266,2.8958,2.8701,2.8677,2.8094,2.7282,2.6306,2.5753,2.526,4.7435,4.7506,4.6143,4.5708,4.5894,4.4777,4.3601,4.248,4.2338,4.2422,4.2616,4.2653,4.2634,4.2653,4.2653,4.2563,4.2437,4.2437,4.2133,4.165,4.1629,4.1442,4.1104,4.1082,4.1082,4.1047,4.0471,4.0147,4.0044,3.9469,3.9129,3.9023,3.9023,3.9023,3.9006,0.0,0.0,0.0,3.5293,3.5091,3.4697,3.5068,3.5068,3.4673,3.4951,0.0,3.5075,3.4914,3.4846,3.4846,3.5076,0.0,0.0,0.0,0.0,0.0,0.0,0.0,0.0,0.0,0.0,0.0,3.3177,3.2789,3.254,3.307,3.4128,3.5812,3.6114,3.6452,3.7149,3.722,3.722,3.7236,3.7235,3.7306,3.7466,3.7429,3.6911,3.5526,3.4992,3.4197,3.2984,3.2651,3.249,3.2218,3.2679,3.2638,3.1729,3.204,3.1927,3.0866,3.091,3.114,3.0888,3.0828,3.069,3.0551,3.0526,3.0485,3.0385,3.0318,3.0314,3.0272,3.0272,3.0204,3.0204,2.9881,2.9528,2.955,2.9143,2.8463,2.7409,2.696,2.6503,4.7474,0.0,4.6068,4.549,0.0,4.4005,4.3147,4.2537,4.2537,4.2673,4.2919,4.2919,4.2919,4.2919,4.2919,4.2919,4.2919,4.2919,4.2787,4.2537,4.2537,4.2418,4.218,4.218,4.218,4.2162,4.1826,4.1507,4.1265,4.0911,4.0594,4.0383,4.0383,4.0383,4.0383,4.0014,3.8942,3.7091,3.7074,3.6842,3.6336,3.6446,3.6338,3.6079,3.584,0.0,0.0,0.0,0.0,0.0,0.0,0.0,0.0,3.4186,0.0,3.2967,3.2243,3.2273,3.3166,3.3303,3.3886,3.5181,3.5795,3.5524,3.4165,3.5215,3.6338,3.7179,3.7356,3.7571,3.7984,3.8056,3.7987,3.7775,3.7757,3.7703,3.7595,3.7503,3.7108,3.6147,3.4694,3.3336,3.2511,3.1668,3.1215,3.108,3.1794,3.1987,3.101,3.1246,3.1273,3.0492,3.1119,3.1581,3.1353,3.1295,3.1201,3.0971,3.0928,3.0888,3.0771,3.067,3.0605,3.0605,3.0559,3.0497,3.0477,3.0309,3.0123,3.014,2.9968,2.9572,2.8771,2.8094,2.7409,4.7563,4.6493,4.583,4.4975,4.4099,4.3283,4.2957,4.2957,0.0,0.0,0.0,4.2919,4.2919,4.2919,4.2919,4.2919,4.2919,4.2919,4.2919,4.2919,4.2919,4.2919,4.2919,4.2919,4.2919,4.2919,4.2919,4.2692,4.2338,4.2338,4.2136,4.1764,4.1743,4.1743,4.1707,4.1145,4.0317,3.929,3.8885,3.8537,3.8161,3.789,3.7741,3.7741,3.6898,3.6429,3.6412,3.5272,3.464,3.4658,3.5221,3.5117,3.4217,3.5313,3.5633,3.4835,3.4762,3.5002,3.5486,3.5553,3.6082,3.7269,3.8097,3.7849,3.6138,3.7426,3.8323,3.8323,3.8323,3.8323,3.8323,3.8323,3.8257,3.8106,3.8071,3.802,3.7863,3.7685,3.7506,3.6916,3.4781,3.2874,3.2558,3.1469,3.0542,3.0685,3.1669,3.2002,3.0845,3.0679,3.0647,3.0402,3.1217,3.1912,3.1746,3.169,3.1579,3.143,3.1355,3.1259,3.1106,3.0968,3.0908,3.0988,3.0811,3.0788,3.0764,3.0686,3.0621,3.0605,3.0539,3.0393,2.9951,2.9111,2.8288,4.8154,4.6693,4.5893,4.5109,4.4289,4.3488,4.316,4.3142,4.2994,4.2919,4.2919,4.2919,4.2919,4.2919,4.2919,4.2919,4.2919,4.2919,4.2919,4.2919,4.2919,4.2919,4.2919,4.2919,4.2919,4.2919,4.2919,4.2863,4.2806,4.2806,4.275,4.2711,4.2711,4.2692,4.2693,4.2603,4.2282,4.1677,4.0049,3.9172,3.9108,3.9066,3.9035,3.9035,3.8889,3.8822,3.8804,3.868,3.8687,3.8669,3.8817,3.8049,3.6238,3.6327,3.5893,3.4736,3.4167,3.4513,3.5893,3.6207,3.7016,3.8472,3.8744,3.8708,3.8446,3.8645,3.8807,3.8788,3.8773,3.8807,3.8807,3.8792,3.8762,3.8743,3.8743,3.8725,3.8683,3.8634,3.8062,3.676,3.5912,3.4641,3.3311,3.2588,3.2181,3.2122,3.2296,3.2299,3.1929,3.0968,3.0269,3.0325,3.1391,3.2196,3.2301,3.2267,3.2214,3.2231,3.2161,3.2126,3.2055,3.1912,3.184,3.1948,3.1712,3.1638,3.1638,3.1317,3.1086,3.1007,3.0808,3.0539,3.0414,2.9886,2.9287,4.8512,4.7666,4.6646,4.5956,4.5495,4.4241,4.367,4.3689,4.3588,4.3353,4.3068,4.305,4.305,4.3068,4.3031,4.2994,4.3012,4.2938,4.2919,4.2919,4.2919,4.2919,4.2919,4.2919,4.2919,4.2919,4.2919,4.2919,4.2919,4.2919,4.2919,4.2919,4.2919,4.2919,4.2919,4.2919,4.2788,4.2559,4.1441,4.076,4.0489,4.0315,4.0205,4.0225,4.0052,3.9938,3.9955,4.0013,4.005,4.005,4.0088,3.9697,3.8949,3.8876,3.8684,3.8224,3.7154,3.6844,3.7566,3.6878,3.6791,3.7645,3.8563,3.912,3.9275,3.8628,3.8397,3.8818,3.8504,3.8393,3.8836,3.891,3.891,3.891,3.891,3.891,3.8896,3.88,3.8409,3.7595,3.6585,3.5617,3.4737,3.3831,3.3202,3.3032,3.2988,3.2977,3.3013,3.2762,3.2373,3.2086,3.2546,3.2932,3.2985,3.2753,3.2575,3.244,3.2506,3.254,3.244,3.2301,3.2232,3.2197,3.2108,3.2037,3.2002,3.1766,3.1564,3.1507,3.1374,3.1159,3.0885,3.0481,2.9886,4.8754,4.8389,4.7417,4.6791,4.6278,4.4807,4.418,4.4161,4.4161,4.3909,4.3493,4.3425,4.3389,4.3408,4.3356,4.3304,4.325,4.3124,4.305,4.3069,4.3013,4.3013,4.3069,4.3087,4.305,4.2995,4.2976,4.2957,4.2901,4.2919,4.2919,4.2919,4.2919,4.2919,4.2919,4.2919,4.2919,4.2882,4.2596,4.2241,4.1832,4.1571,4.1427,4.1411,4.1176,4.1035,4.1035,4.1017,4.1071,4.1107,4.1125,4.1175,4.1246,4.126,4.1266,4.1197,4.0204,3.9548,3.9532,3.8424,3.7718,3.7895,3.9077,3.9935,4.0027,3.9051,3.8679,3.9346,3.8748,3.8396,3.8874,3.8656,3.8498,3.8493,3.8498,3.8544,3.8702,3.8621,3.8619,3.8586,3.7562,3.674,3.6439,3.5595,3.4906,3.4772,3.4528,3.4487,3.456,3.5039,3.5069,3.4688,3.4252,3.395,3.3792,3.3444,3.3098,3.2712,3.2784,3.2814,3.2672,3.2522,3.2472,3.2488,3.2353,3.2284,3.2232,3.2055,3.193,3.1894,3.1802,3.1618,3.1162,3.0848,3.0351,4.8824,4.8202,4.8059,4.712,4.5801,4.481,4.4383,4.4364,4.4369,4.4355,4.427,4.4106,4.4028,4.4028,4.3998,4.3906,4.3804,4.3574,4.3508,4.3579,4.3373,4.339,4.3595,4.3612,4.3494,4.3285,4.3267,4.3142,4.2957,4.292,4.2919,4.2919,4.2919,4.2938,4.2919,4.2919,4.2919,4.2901,4.3087,4.3051,4.2806,4.2753,4.2699,4.2754,4.2682,4.2665,4.2612,4.2702,4.2777,4.3031,4.2993,4.2804,4.241,4.2366,4.205,4.1428,4.1371,4.1521,4.1643,4.1576,4.1263,4.1515,4.1477,4.1659,4.1667,4.1003,4.0845,4.1269,4.032,3.9464,3.9446,3.8371,3.7753,3.7891,3.7747,3.7558,3.8384,3.834,3.8621,3.9421,3.8976,3.8827,3.8437,3.8055,3.7885,3.7497,3.7345,3.732,3.7359,3.7408,3.7544,3.729,3.6533,3.5377,3.4715,3.4385,3.4063,3.3457,3.3268,3.3292,3.3268,3.318,3.3169,3.2939,3.2844,3.2653,3.2571,3.2369,3.2126,3.2179,3.2038,3.1748,3.1278,3.1083,3.0707,4.9995,5.0496,4.9736,4.8435,4.6878,4.553,4.4941,4.4929,4.4941,4.491,4.491,4.485,4.4624,4.4261,4.4223,4.4184,4.4125,4.3937,4.3893,4.3909,4.3756,4.3689,4.3788,4.3744,4.3629,4.3563,4.3545,4.3495,4.339,4.3355,4.3373,4.3373,4.3373,4.3373,4.3373,4.3373,4.3373,4.3373,4.3477,4.3477,4.339,4.3373,4.3373,4.3373,4.3373,4.3373,4.3391,4.3355,4.3425,4.3528,4.3528,4.3515,4.3454,4.3451,4.3382,4.3158,4.2347,4.1493,4.0666,4.0572,4.0572,4.0572,4.146,4.1986,4.2042,4.2586,4.3149,4.3131,4.1567,4.0478,4.0854,4.0384,3.999,4.0009,4.0009,4.0084,4.0409,3.9614,3.9401,4.0084,3.9333,3.8914,3.9205,3.921,3.9101,3.8994,3.8923,3.8869,3.8884,3.8826,3.8763,3.8693,3.8144,3.7271,3.6191,3.5654,3.5289,3.4872,3.4495,3.4294,3.4032,3.3538,3.3288,3.3339,3.3208,3.3101,3.3065,3.2923,3.2749,3.2669,3.2369,3.2056,3.164,3.1543,3.122,5.0626,5.145,5.0219,4.8926,4.7674,4.6003,4.5277,4.5277,4.5277,4.5277,4.5277,4.5277,4.5065,4.4682,4.4591,4.457,4.4517,4.435,4.4276,4.4294,4.415,4.4091,4.414,4.4087,4.3996,4.3934,4.3934,4.3884,4.3823,4.3758,4.3742,4.3761,4.3712,4.3714,4.3714,4.3714,4.3714,4.3695,4.3761,4.3809,4.3828,4.3892,4.386,4.3712,4.3714,4.3714,4.3714,4.3714,4.3728,4.3809,4.3809,4.3936,4.4185,4.4214,4.4306,4.4379,4.3375,4.2205,4.1017,4.0941,4.0941,4.1022,4.2061,4.2699,4.2887,4.3806,4.4444,4.4332,4.2844,4.2004,4.1873,4.1591,4.1347,4.136,4.1342,4.1398,4.1473,4.0553,4.0234,4.0854,4.024,3.9314,3.9558,3.9714,3.9744,3.9183,3.9257,3.9412,3.9399,3.9301,3.9229,3.9229,3.9124,3.8553,3.7421,3.689,3.6538,3.6091,3.5648,3.5386,3.5155,3.456,3.4031,3.4477,3.4021,3.36,3.3444,3.3346,3.3196,3.3124,3.2844,3.2436,3.2144,3.1984,3.1693,5.0317,5.0202,4.8629,4.8036,4.7674,4.6042,4.5297,4.5277,4.5277,4.5277,4.5277,4.5277,4.5267,4.5205,4.5184,4.5181,4.5038,4.4789,4.4739,4.4814,4.4591,4.4604,4.4846,4.4846,4.4694,4.4438,4.4425,4.4323,4.4102,4.3989,4.3896,4.3896,4.3839,4.3728,4.3761,4.3793,4.3728,4.3809,4.398,4.4075,4.4124,4.4335,4.4218,4.3809,4.3712,4.3728,4.3728,4.3712,4.3844,4.406,4.4075,4.4218,4.444,4.4468,4.4468,4.4463,4.4388,4.4294,4.4106,4.3989,4.4026,4.4139,4.405,4.4313,4.4144,4.435,4.4482,4.4482,4.4238,4.3562,4.2286,4.1285,4.0397,4.0265,4.0002,4.0416,4.0966,4.106,4.1141,4.1742,4.1685,4.101,3.9908,4.029,4.0015,3.9252,3.9158,3.957,3.9595,3.9487,3.9328,3.9256,3.916,3.8858,3.8052,3.7785,3.746,3.7067,3.6809,3.6578,3.6604,3.6493,3.6003,3.5512,3.5013,3.4491,3.3941,3.3578,3.339,3.3229,3.3047,3.2732,3.2587,3.2179,3.1948,5.0951,5.1716,5.0092,4.9404,4.9156,4.7016,4.5774,4.5297,4.5277,4.5277,4.5277,4.5277,4.5277,4.5277,4.5277,4.5275,4.5233,4.5109,4.5098,4.5136,4.4972,4.4936,4.5003,4.495,4.487,4.4777,4.4764,4.4707,4.4604,4.4557,4.4544,4.4544,4.4508,4.4462,4.4481,4.4462,4.4481,4.4462,4.45,4.4472,4.4472,4.4573,4.4519,4.436,4.4262,4.4218,4.4199,4.4218,4.4262,4.4368,4.435,4.4397,4.4468,4.4482,4.4482,4.4482,4.4482,4.4482,4.4482,4.4482,4.4482,4.4482,4.4482,4.4482,4.4482,4.4482,4.4482,4.4482,4.4482,4.4125,4.375,4.305,4.2731,4.2731,4.2712,4.2712,4.2849,4.2267,4.1892,4.2543,4.238,4.1704,4.1366,4.1385,4.131,4.0803,4.049,4.0346,4.0221,3.9882,3.9481,3.9418,3.9341,3.9195,3.8848,3.8687,3.8525,3.8228,3.7949,3.7583,3.7466,3.7058,3.6549,3.6294,3.5874,3.5423,3.4858,3.4408,3.411,3.3802,3.3564,3.3445,3.3016,3.2795,3.2543,5.0951,5.1639,5.0206,4.948,4.9213,4.7073,4.5812,4.5297,4.5277,4.5277,4.5277,4.5277,4.5277,4.5277,4.5277,4.5277,4.5277,4.5297,4.5277,4.5277,4.5203,4.5159,4.5148,4.508,4.5026,4.5026,4.5033,4.5033,4.5014,4.4979,4.4955,4.4955,4.4919,4.4895,4.4895,4.4895,4.4895,4.487,4.4808,4.4757,4.4757,4.4757,4.4757,4.4745,4.4667,4.4632,4.4613,4.4578,4.4551,4.4551,4.4551,4.4556,4.4496,4.4482,4.4482,4.4482,4.4482,4.4482,4.4482,4.4482,4.4482,4.4482,4.4482,4.4482,4.4482,4.4482,4.4482,4.4482,4.4482,4.4482,4.4482,4.4444,4.4482,4.4482,4.4482,4.4482,4.4426,4.3468,4.3168,4.3463,4.3243,4.268,4.2173,4.2267,4.2061,4.1723,4.1304,4.121,4.1085,4.0496,3.9914,3.9851,3.9606,3.9423,3.9189,3.9093,3.8994,3.8757,3.8613,3.8334,3.8098,3.7634,3.7281,3.7039,3.6686,3.6259,3.5795,3.533,3.4988,3.4703,3.4679,3.4652,3.4114,3.351,3.3303,5.0302,5.0206,4.8525,4.7979,4.7799,4.6252,4.5373,4.5316,4.5277,4.5277,4.5277,4.5277,4.5277,4.5277,4.5277,4.5277,4.5277,4.5277,4.5277,4.5297,4.5286,4.5267,4.5267,4.5246,4.5246,4.5246,4.5267,4.5267,4.5246,4.5159,4.5103,4.5061,4.4979,4.4943,4.4907,4.4931,4.4919,4.4919,4.4907,4.4914,4.4895,4.4895,4.4895,4.4895,4.4883,4.4883,4.4883,4.4776,4.4712,4.4693,4.4712,4.4646,4.4542,4.451,4.4496,4.4496,4.4482,4.4482,4.4482,4.4482,4.4482,4.4482,4.4482,4.4482,4.4482,4.4482,4.4482,4.4482,4.4482,4.4482,4.4482,4.4524,4.4524,4.4482,4.4482,4.4482,4.4482,4.4482,4.4444,4.4388,4.4238,4.3731,4.2736,4.2806,4.2806,4.1905,4.1742,4.2004,4.1948,4.1329,4.0847,4.0602,4.0201,3.9788,3.958,3.941,3.9275,3.9137,3.9036,3.8873,3.8785,3.8451,3.8209,3.7949,3.7522,3.7076,3.642,3.6017,3.6129,3.5943,3.5938,3.5717,3.5223,3.4652,3.4205,4.9786,5.0073,4.8495,4.7788,4.7654,4.6596,4.5831,4.5316,4.5277,4.5277,4.5277,4.5277,4.5277,4.5277,4.5277,4.5277,4.5277,4.5277,4.5277,4.5277,4.5277,4.5277,4.5277,4.5277,4.5277,4.5277,4.5277,4.5277,4.5297,4.5265,4.5235,4.5213,4.5192,4.52,4.5159,4.5189,4.517,4.5159,4.5091,4.5045,4.5045,4.5026,4.5026,4.5026,4.5026,4.508,4.5159,4.4955,4.4833,4.4852,4.4852,4.477,4.4672,4.4646,4.4592,4.451,4.4482,4.4482,4.4482,4.4482,4.4482,4.4482,4.4482,4.4482,4.4482,4.4496,4.4496,4.4496,4.4482,4.4482,4.451,4.4616,4.4642,4.4528,4.4482,4.4496,4.4482,4.4482,4.4482,4.4482,4.4482,4.4219,4.39,4.4045,4.3801,4.3294,4.305,4.2895,4.2769,4.2181,4.1648,4.1528,4.089,4.0302,4.0113,3.9862,3.9567,3.9344,3.9229,3.9156,3.9129,3.9078,3.8892,3.8674,3.8265,3.7801,3.7132,3.6904,3.7021,3.6904,3.6618,3.6411,3.6194,3.5837,3.5392,4.9213,4.9213,4.7884,4.7311,4.7226,4.6405,4.5755,4.5316,4.5277,4.5277,4.5277,4.5277,4.5277,4.5277,4.5277,4.5277,4.5277,4.5277,4.5277,4.5277,4.5277,4.5277,4.5277,4.5277,4.5277,4.5277,4.5277,4.5277,4.5277,4.5277,4.5277,4.5277,4.5277,4.5297,4.5277,4.5277,4.5277,4.5286,4.5213,4.517,4.517,4.5181,4.517,4.517,4.517,4.5213,4.5286,4.5136,4.5033,4.4967,4.4938,4.4865,4.4789,4.4789,4.4738,4.4672,4.4605,4.4578,4.4584,4.4524,4.4482,4.4482,4.4482,4.4482,4.451,4.4565,4.4608,4.4608,4.4726,4.4764,4.4783,4.4875,4.4868,4.4802,4.4687,4.4587,4.4524,4.4482,4.4482,4.4482,4.4482,4.4482,4.4482,4.4482,4.4482,4.4402,4.414,4.3788,4.3625,4.31,4.2748,4.2352,4.1742,4.1209,4.0746,4.0326,3.9901,3.9593,3.9328,3.9242,3.9188,3.9156,3.9063,3.8966,3.8655,3.8562,3.8005,3.7912,3.7912,3.7615,3.7392,3.7403,3.733,3.703,3.662,4.8544,4.7731,4.6806,4.6443,4.6347,4.566,4.5354,4.5297,4.5277,4.5277,4.5277,4.5277,4.5277,4.5277,4.5277,4.5277,4.5277,4.5277,4.5277,4.5277,4.5277,4.5277,4.5277,4.5277,4.5277,4.5277,4.5277,4.5277,4.5277,4.5277,4.5277,4.5277,4.5277,4.5277,4.5277,4.5277,4.5277,4.5297,4.5297,4.5286,4.5286,4.5297,4.5297,4.5286,4.5286,4.5297,4.5297,4.5256,4.5233,4.5114,4.5022,4.4943,4.4926,4.4907,4.4895,4.4877,4.4776,4.4725,4.4685,4.4592,4.4551,4.4592,4.456,4.4524,4.4613,4.477,4.4831,4.4843,4.5007,4.5148,4.5148,4.5201,4.5201,4.5191,4.4973,4.4777,4.4573,4.456,4.46,4.4546,4.4524,4.451,4.451,4.4482,4.4482,4.4519,4.4567,4.4517,4.4378,4.3932,4.3662,4.3184,4.268,4.2175,4.1724,4.1153,4.0746,4.057,4.0149,3.9821,3.9392,3.9253,3.9175,3.9091,3.904,3.9008,3.8915,3.8674,3.8618,3.8525,3.8469,3.8562,3.8349,3.7974,3.7757,4.7998,4.7654,4.6233,4.5613,4.5583,4.5364,4.5307,4.5288,4.5288,4.5309,4.5288,4.5277,4.5317,4.5277,4.5307,4.5277,4.5277,4.5277,4.5277,4.5277,4.5277,4.5277,4.5277,4.5277,4.5277,4.5277,4.5277,4.5277,4.5277,4.5277,4.5277,4.5277,4.5277,4.5277,4.5277,4.5277,4.5277,4.5277,4.5277,4.5277,4.5288,4.5307,4.5277,4.5277,4.5288,4.5307,4.5307,4.5277,4.5297,4.5265,4.5213,4.5148,4.5068,4.5057,4.5014,4.4919,4.4883,4.4846,4.4821,4.4732,4.4713,4.4857,4.4777,4.4795,4.5004,4.5071,4.5085,4.5096,4.518,4.5222,4.5223,4.5333,4.5409,4.5419,4.5244,4.5074,4.4985,4.5004,4.4957,4.4777,4.4726,4.4668,4.4587,4.4537,4.4537,4.4578,4.4707,4.48,4.47,4.4782,4.4486,4.4237,4.3775,4.3234,4.2692,4.2068,4.1691,4.1616,4.122,4.0712,4.004,3.9368,3.9239,3.9096,3.9091,3.9073,3.9059,3.8952,3.9064,3.9101,3.9008,3.8841,3.8897,3.8702,3.8646,4.8307,4.7856,4.6492,4.5946,4.5908,4.5572,4.5429,4.5457,4.5467,4.5467,4.5467,4.5467,4.5448,4.537,4.539,4.5339,4.5288,4.5277,4.5277,4.5277,4.5277,4.5277,4.5277,4.5277,4.5277,4.5277,4.5277,4.5277,4.5277,4.5277,4.5277,4.5277,4.5277,4.5277,4.5277,4.5277,4.5297,4.5277,4.5277,4.5277,4.5277,4.536,4.539,4.54,4.5419,4.5467,4.5467,4.5467,4.5419,4.5329,4.5297,4.5265,4.5203,4.5237,4.5205,4.5084,4.5102,4.5126,4.5068,4.5,4.5019,4.5088,4.5044,4.5066,4.5173,4.5274,4.5342,4.5342,4.5409,4.5445,4.5482,4.5569,4.5618,4.5618,4.5516,4.5381,4.5213,4.518,4.5118,4.5019,4.4962,4.4938,4.4795,4.4783,4.4783,4.4838,4.5,4.5033,4.5011,4.5203,4.5235,4.4876,4.4593,4.4087,4.3564,4.2999,4.2529,4.2417,4.2207,4.168,4.0851,3.9941,3.9591,3.9481,3.9286,3.9198,3.9314,3.9301,3.9101,3.9101,3.9101,3.9101,3.9101,3.9101,3.9101,4.9046,4.8254,4.7316,4.6987,4.6863,4.6046,4.5796,4.5819,4.5722,4.5665,4.5665,4.568,4.5618,4.5503,4.5522,4.5457,4.535,4.538,4.5351,4.5361,4.537,4.538,4.537,4.5309,4.5288,4.5277,4.5277,4.5277,4.5277,4.5277,4.5277,4.5277,4.5277,4.5277,4.5277,4.5297,4.5307,4.5348,4.5359,4.536,4.54,4.5486,4.5522,4.554,4.559,4.564,4.5648,4.5648,4.5593,4.535,4.5329,4.536,4.537,4.5457,4.5457,4.538,4.5419,4.5437,4.5352,4.5323,4.5323,4.5342,4.5285,4.5247,4.5342,4.5479,4.5549,4.5577,4.5696,4.5737,4.5745,4.5793,4.5786,4.5752,4.5759,4.561,4.5362,4.5254,4.5263,4.5223,4.5232,4.5232,4.5201,4.5201,4.518,4.5026,4.5184,4.5255,4.5275,4.5409,4.539,4.5226,4.5022,4.4878,4.4382,4.3904,4.3483,4.3187,4.3007,4.2567,4.1788,4.099,4.0371,4.0066,4.0207,4.0091,3.9881,3.9705,3.9445,3.925,3.9361,3.9231,3.9101,3.9101,3.9101,4.9393,4.9142,4.8268,4.791,4.7772,4.6987,4.661,4.6576,4.5966,4.5712,4.5696,4.5688,4.57,4.5668,4.566,4.5624,4.5601,4.5573,4.5599,4.5618,4.5618,4.5618,4.5547,4.5429,4.5317,4.5298,4.5288,4.5288,4.5298,4.5319,4.5288,4.5298,4.5329,4.5288,4.5298,4.5348,4.536,4.5429,4.5448,4.5513,4.5584,4.5635,4.5648,4.5657,4.5688,4.5708,4.5688,4.5688,4.5676,4.5635,4.5599,4.5599,4.5601,4.5616,4.5635,4.5618,4.5624,4.5648,4.5616,4.5535,4.5533,4.5638,4.5587,4.5576,4.5742,4.5749,4.5796,4.5822,4.5848,4.586,4.5814,4.5807,4.5807,4.5807,4.58,4.5759,4.5681,4.5669,4.5577,4.5491,4.5427,4.5381,4.5253,4.5253,4.5253,4.5243,4.5323,4.5445,4.5524,4.561,4.5541,4.5436,4.5369,4.5245,4.5026,4.4611,4.4346,4.398,4.3784,4.358,4.2813,4.217,4.1579,4.1361,4.1353,4.1092,4.0626,4.0444,4.024,3.9956,3.9709,3.9635,3.9561,3.9394,3.9268,5.0301,5.0197,4.9289,4.8929,4.8771,4.7579,4.7018,4.6906,4.6196,4.5828,4.5828,4.5828,4.5821,4.5791,4.5791,4.5761,4.5715,4.5688,4.568,4.568,4.568,4.568,4.5692,4.5584,4.5485,4.5485,4.5495,4.5485,4.5485,4.5457,4.5485,4.5485,4.5476,4.5504,4.5485,4.5476,4.5531,4.5584,4.5601,4.5624,4.57,4.5761,4.5807,4.5841,4.5828,4.5848,4.5835,4.5835,4.5835,4.5848,4.5848,4.5793,4.5719,4.5761,4.5769,4.5723,4.5787,4.5807,4.5778,4.5773,4.5789,4.5867,4.5815,4.5854,4.5911,4.5923,4.5892,4.5905,4.5893,4.5887,4.5854,4.5854,4.5847,4.5807,4.5807,4.5807,4.5807,4.5807,4.5786,4.5658,4.5642,4.5583,4.5516,4.5455,4.5482,4.5535,4.5552,4.5642,4.5669,4.5723,4.5703,4.5658,4.5642,4.5591,4.5496,4.5303,4.5131,4.4804,4.4535,4.4371,4.3969,4.3384,4.2837,4.2496,4.2062,4.1754,4.1357,4.1194,4.1111,4.0943,4.0714,4.0407,4.0207,4.0155,4.0025,5.1202,5.1138,5.0267,5.0009,4.9825,4.8302,4.7591,4.7379,4.6579,4.6169,4.5977,4.5982,4.5941,4.5918,4.5906,4.5827,4.5778,4.5757,4.5778,4.5759,4.5759,4.5759,4.5771,4.5757,4.5723,4.5734,4.5673,4.5684,4.5657,4.568,4.5632,4.5692,4.5673,4.564,4.5673,4.57,4.57,4.5731,4.5739,4.5742,4.5771,4.5867,4.5937,4.5964,4.5975,4.5956,4.5956,4.5961,4.5972,4.5982,4.5982,4.5898,4.5827,4.5833,4.5867,4.5783,4.5892,4.5935,4.5925,4.5941,4.5961,4.5997,4.5994,4.5997,4.5978,4.5947,4.5935,4.5929,4.5923,4.5925,4.5912,4.5887,4.5874,4.5834,4.5821,4.5821,4.5814,4.5814,4.5807,4.5793,4.5764,4.5715,4.573,4.5708,4.5771,4.5807,4.5807,4.5807,4.5807,4.58,4.5766,4.5766,4.5737,4.573,4.5669,4.5618,4.5481,4.5362,4.512,4.4965,4.4786,4.4316,4.3653,4.301,4.258,4.2408,4.2305,4.2216,4.21,4.1969,4.1605,4.1162,4.1007,4.0983,4.0802,5.1202,5.1202,5.101,5.0957,5.0808,4.9845,4.8932,4.8308,4.7395,4.6657,4.6041,4.6002,4.5991,4.5975,4.5975,4.5964,4.5935,4.5923,4.5916,4.5916,4.5916,4.591,4.5904,4.5904,4.5916,4.5892,4.5821,4.5719,4.5712,4.5688,4.5727,4.5704,4.5712,4.5712,4.5719,4.5696,4.5783,4.5847,4.5854,4.5867,4.5904,4.5933,4.5975,4.5982,4.5982,4.5982,4.5982,4.5982,4.5982,4.5982,4.5982,4.5961,4.5933,4.5958,4.5953,4.5953,4.5969,4.5986,4.5975,4.5986,4.5982,4.5997,4.5991,4.5991,4.5991,4.5986,4.5975,4.5975,4.5978,4.596,4.5905,4.5905,4.5899,4.5893,4.5886,4.5874,4.5874,4.5867,4.5834,4.5814,4.5807,4.5807,4.5807,4.5807,4.5807,4.5807,4.5807,4.5807,4.5807,4.5807,4.58,4.58,4.58,4.5793,4.5778,4.5771,4.5708,4.5626,4.5444,4.5333,4.5147,4.4905,4.441,4.3755,4.3613,4.3694,4.3535,4.324,4.3049,4.2842,4.2361,4.1894,4.1913,4.1944,4.1651,5.093,5.0581,5.1008,5.1202,5.1047,5.027,4.9415,4.8541,4.7686,4.6812,4.6196,4.5982,4.5982,4.5982,4.5982,4.5982,4.5982,4.5982,4.5982,4.5982,4.5982,4.5982,4.5982,4.5982,4.5982,4.598,4.5911,4.5861,4.5848,4.5867,4.5835,4.5867,4.5867,4.5848,4.5848,4.5854,4.5886,4.5949,4.5935,4.5953,4.5997,4.5982,4.5982,4.5982,4.5982,4.5982,4.5982,4.5982,4.5982,4.5982,4.5982,4.5982,4.5982,4.5982,4.5982,4.5982,4.5982,4.5982,4.5982,4.5982,4.5982,4.5982,4.5982,4.5982,4.5982,4.6002,4.5982,4.5997,4.5991,4.5989,4.5941,4.5935,4.5929,4.5911,4.5892,4.5905,4.5906,4.5893,4.5874,4.5854,4.584,4.5814,4.5807,4.5807,4.5807,4.5807,4.5807,4.5807,4.5807,4.5807,4.5807,4.5807,4.5807,4.5807,4.5807,4.5807,4.5807,4.5771,4.57,4.5585,4.5445,4.5165,4.4931,4.4512,4.4591,4.4573,4.4355,4.3896,4.3816,4.3732,4.3418,4.3128,4.3006,4.2851,4.2538,5.0697,4.9965,5.0639,5.095,5.0794,4.9998,4.9124,4.8308,4.7609,4.6812,4.606,4.5982,4.5982,4.5982,4.5982,4.5982,4.5982,4.5982,4.5982,4.5982,4.5982,4.5982,4.5982,4.5982,4.5982,4.5997,4.5991,4.5982,4.5961,4.5975,4.5991,4.5961,4.5991,4.5982,4.5986,4.5969,4.5982,4.5982,4.5982,4.5982,4.5982,4.5982,4.5982,4.5982,4.5982,4.5982,4.5982,4.5982,4.5982,4.5982,4.5982,4.5982,4.5982,4.5982,4.5982,4.5982,4.5982,4.5982,4.5982,4.5982,4.5982,4.5982,4.5982,4.5982,4.5982,4.5982,4.5982,4.5982,4.5997,4.5991,4.5989,4.5983,4.5978,4.5941,4.5935,4.5929,4.5917,4.5925,4.5932,4.5887,4.5854,4.584,4.5814,4.5807,4.5807,4.5807,4.5807,4.5807,4.5807,4.5807,4.5807,4.5807,4.5807,4.5807,4.5807,4.5807,4.5807,4.5793,4.573,4.5669,4.5552,4.539,4.5173,4.4977,4.485,4.477,4.4653,4.4496,4.4266,4.4182,4.4351,4.4243,4.384,4.361,4.3376,5.0697,4.9887,5.0023,5.0062,4.992,4.9143,4.8289,4.7526,4.737,4.6812,4.5982,4.5982,4.5982,4.5982,4.5982,4.5982,4.5982,4.5982,4.5982,4.5982,4.5982,4.5982,4.5982,4.5982,4.5982,4.5982,4.5982,4.5982,4.5982,4.5982,4.5982,4.5982,4.5982,4.5982,4.5982,4.5982,4.5982,4.5982,4.5982,4.5982,4.5982,4.5982,4.5982,4.5982,4.5982,4.5982,4.5982,4.5982,4.5982,4.5982,4.5982,4.5982,4.5982,4.5982,4.5982,4.5982,4.5982,4.5982,4.5982,4.5982,4.5982,4.5982,4.5982,4.5982,4.5982,4.5982,4.5982,4.5982,4.5982,4.6002,4.5991,4.5991,4.5991,4.5986,4.5956,4.5969,4.5972,4.5949,4.5956,4.5918,4.5893,4.586,4.5827,4.5814,4.5807,4.5807,4.5807,4.5807,4.5807,4.5807,4.5807,4.5807,4.5807,4.5807,4.5807,4.5807,4.5807,4.5807,4.5778,4.5723,4.5642,4.5549,4.5509,4.5323,4.5161,4.4946,4.4758,4.464,4.4537,4.4487,4.4454,4.4468,4.443,4.4271,4.4027,4.9959,4.9202,4.9693,4.9596,4.9143,4.8755,4.8094,4.7428,4.7293,4.6812,4.6099,4.5982,4.5982,4.5982,4.5982,4.5982,4.5982,4.5982,4.5982,4.5982,4.5982,4.5982,4.5982,4.5982,4.5982,4.5982,4.5982,4.5982,4.5982,4.5982,4.5982,4.5982,4.5982,4.5982,4.5982,4.5982,4.5982,4.5982,4.5982,4.5982,4.5982,4.5982,4.5982,4.5982,4.5982,4.5982,4.5982,4.5982,4.5982,4.5982,4.5982,4.5982,4.5982,4.5982,4.5982,4.5982,4.5982,4.5982,4.5982,4.5982,4.5982,4.5982,4.5982,4.5982,4.5982,4.5982,4.5982,4.5982,4.5982,4.5982,4.5982,4.5982,4.5982,4.5982,4.5982,4.5997,4.6,4.5983,4.598,4.5949,4.5931,4.5906,4.5854,4.5834,4.5821,4.5833,4.5807,4.5807,4.5807,4.5807,4.5807,4.5807,4.5807,4.5807,4.5807,4.5807,4.5807,4.5807,4.5807,4.5778,4.5759,4.5715,4.5626,4.5552,4.539,4.5152,4.491,4.4758,4.4642,4.4573,4.4482,4.4482,4.4482,4.4463,4.4308,4.9071,4.8347,4.8988,4.8871,4.825,4.8055,4.757,4.7007,4.6948,4.6599,4.6133,4.5982,4.5982,4.5982,4.5982,4.5982,4.5982,4.5982,4.5982,4.5982,4.5982,4.5982,4.5982,4.5982,4.5982,4.5982,4.5982,4.5982,4.5982,4.5982,4.5982,4.5982,4.5982,4.5982,4.5982,4.5982,4.5982,4.5982,4.5982,4.5982,4.5982,4.5982,4.5982,4.5982,4.5982,4.5982,4.5982,4.5982,4.5982,4.5982,4.5982,4.5982,4.5982,4.5982,4.5982,4.5982,4.5982,4.5982,4.5982,4.5982,4.5982,4.5982,4.5982,4.5982,4.5982,4.5982,4.5982,4.5982,4.5982,4.5982,4.5982,4.5982,4.5982,4.5982,4.5982,4.5982,4.5997,4.598,4.5989,4.5983,4.5966,4.5949,4.5918,4.5867,4.5841,4.5847,4.5833,4.5807,4.5807,4.5807,4.5807,4.5807,4.5807,4.5807,4.5807,4.5807,4.5807,4.5807,4.5807,4.58,4.58,4.5793,4.573,4.5642,4.5549,4.5371,4.5107,4.4938,4.4758,4.4681,4.4581,4.4524,4.4482,4.4482,4.4482,4.8191,4.739,4.7467,4.7467,4.7317,4.6502,4.6196,4.6215,4.6133,4.6118,4.6002,4.5982,4.5982,4.5982,4.5982,4.5982,4.5982,4.5982,4.5982,4.5982,4.5982,4.5982,4.5982,4.5982,4.5982,4.5982,4.5982,4.5982,4.5982,4.5982,4.5982,4.6002,4.606,4.6021,4.5982,4.5982,4.5982,4.5982,4.5982,4.5982,4.5982,4.5982,4.5982,4.5982,4.5982,4.5982,4.5982,4.5982,4.5982,4.5982,4.5982,4.5982,4.5982,4.5982,4.5982,4.5982,4.5982,4.5982,4.5982,4.5982,4.5982,4.5982,4.5982,4.5982,4.5982,4.5982,4.5982,4.5982,4.5982,4.5982,4.5982,4.5982,4.5982,4.5982,4.5982,4.5982,4.5982,4.6002,4.5991,4.5991,4.598,4.5983,4.5966,4.5911,4.588,4.5861,4.586,4.5834,4.5821,4.5821,4.5807,4.5807,4.5807,4.5807,4.5807,4.5807,4.5807,4.5807,4.5807,4.5807,4.58,4.5793,4.5786,4.5771,4.5685,4.5509,4.5342,4.5152,4.4988,4.4807,4.4681,4.4546,4.4482,4.4482,4.4482,4.7298,4.6502,4.6502,4.6502,4.6482,4.6152,4.5982,4.5982,4.5982,4.5982,4.5982,4.5982,4.5982,4.5982,4.5982,4.5982,4.5982,4.5982,4.6002,4.6002,4.5982,4.5982,4.5982,4.6041,4.5982,4.6002,4.6002,4.6002,4.5982,4.6157,4.6443,4.6502,4.6327,4.6041,4.5982,4.6041,4.5982,4.5982,4.5982,4.5982,4.5982,4.5982,4.5982,4.5982,4.5982,4.5982,4.5982,4.5982,4.5982,4.5982,4.5982,4.5982,4.5982,4.5982,4.5982,4.5982,4.5982,4.5982,4.5982,4.5982,4.5982,4.5982,4.5982,4.5982,4.5982,4.5982,4.5982,4.5982,4.5982,4.5982,4.5982,4.5982,4.5982,4.5982,4.5982,4.5982,4.5982,4.5982,4.6002,4.5997,4.5997,4.5986,4.5989,4.5978,4.5923,4.5899,4.588,4.5861,4.5848,4.5847,4.5827,4.5814,4.5807,4.5807,4.5807,4.5807,4.5807,4.5807,4.5807,4.5807,4.5807,4.58,4.58,4.58,4.58,4.5669,4.5526,4.5381,4.5152,4.4868,4.4687,4.4524,4.4482,4.4482,4.4482,4.656,4.6021,4.5982,4.5982,4.5982,4.5982,4.5982,4.5982,4.5982,4.5982,4.5982,4.5982,4.5982,4.5982,4.5982,4.5982,4.5982,4.6021,4.6191,4.6346,4.6463,4.6385,4.6385,4.6366,4.6346,4.6177,4.6332,4.6424,4.6482,4.6657,4.7162,4.7317,4.6871,4.6521,4.6385,4.6118,4.6002,4.5982,4.5982,4.5982,4.5982,4.5982,4.5982,4.5982,4.5982,4.5982,4.5982,4.5982,4.5982,4.5982,4.5982,4.5982,4.5982,4.5982,4.5982,4.5982,4.5982,4.5982,4.5982,4.5982,4.5982,4.5982,4.5982,4.5982,4.5982,4.5982,4.5982,4.5982,4.5982,4.5982,4.5982,4.5982,4.5982,4.5982,4.5982,4.5982,4.5982,4.5982,4.5982,4.6002,4.5997,4.5997,4.5991,4.5994,4.5966,4.5917,4.5899,4.5886,4.588,4.588,4.586,4.5827,4.5814,4.5807,4.5807,4.5807,4.5807,4.5807,4.5807,4.5807,4.5807,4.5807,4.5807,4.5807,4.58,4.5786,4.5642,4.5454,4.5152,4.485,4.4674,4.4496,4.4482,4.4482,4.4482,4.6041,4.6002,4.5982,4.5982,4.5982,4.5982,4.5982,4.5982,4.5982,4.5982,4.5982,4.5982,4.5982,4.5982,4.5982,4.5982,4.5982,4.6021,4.6366,4.6929,4.7026,4.7162,4.7279,4.7201,4.7026,4.6424,4.6793,4.7279,4.7279,4.7764,4.8289,4.8211,4.7648,4.7123,4.7162,4.641,4.6021,4.5982,4.5982,4.5982,4.5982,4.5982,4.5982,4.5982,4.5982,4.5982,4.5982,4.5982,4.5982,4.5982,4.5982,4.5982,4.5982,4.5982,4.5982,4.5982,4.5982,4.5982,4.5982,4.5982,4.5982,4.5982,4.5982,4.5982,4.5982,4.5982,4.5982,4.5982,4.5982,4.5982,4.5982,4.5982,4.5982,4.5982,4.5982,4.5982,4.5982,4.5982,4.5982,4.5982,4.5982,4.5982,4.6002,4.5991,4.5964,4.5941,4.5917,4.5905,4.5905,4.5918,4.5899,4.5874,4.5841,4.5827,4.584,4.5807,4.5807,4.5807,4.5807,4.5807,4.5807,4.5807,4.5807,4.5807,4.58,4.5786,4.565,4.549,4.5265,4.5052,4.4674,4.4496,4.4496,4.4482,4.4482,4.5982,4.5982,4.5982,4.5982,4.5982,4.5982,4.5982,4.5982,4.5982,4.5982,4.5982,4.5982,4.5982,4.5982,4.5982,4.5982,4.5982,4.6021,4.6463,4.7215,4.7293,4.7745,4.7939,4.7978,4.79,4.7842,4.8075,4.8153,4.8172,4.8677,4.8619,4.8425,4.8308,4.7512,4.6696,4.6079,4.6002,4.5982,4.5982,4.5982,4.5982,4.5982,4.5982,4.5982,4.5982,4.5982,4.5982,4.5982,4.5982,4.5982,4.5982,4.5982,4.5982,4.5982,4.5982,4.5982,4.5982,4.5982,4.5982,4.5982,4.5982,4.5982,4.5982,4.5982,4.5982,4.5982,4.5982,4.5982,4.5982,4.5982,4.5982,4.5982,4.5982,4.5982,4.5982,4.5982,4.5982,4.5982,4.5982,4.5982,4.5982,4.5982,4.5982,4.5982,4.598,4.5975,4.5939,4.5947,4.596,4.5955,4.5962,4.5912,4.5874,4.5874,4.586,4.5847,4.5807,4.5807,4.5807,4.5807,4.5807,4.5807,4.5807,4.5807,4.58,4.5766,4.5673,4.5574,4.5498,4.5294,4.4891,4.4581,4.4532,4.4524,4.4482,4.5982,4.5982,4.5982,4.5982,4.5982,4.5982,4.5982,4.5982,4.5982,4.5982,4.5982,4.5982,4.5982,4.5982,4.5982,4.5982,4.5982,4.6021,4.6463,4.7201,4.7293,4.7589,4.7978,4.8444,4.8153,4.8425,4.8832,4.9046,4.9085,4.9396,4.9396,4.9202,4.8968,4.8075,4.7084,4.654,4.6313,4.6177,4.5982,4.5982,4.5982,4.5982,4.5982,4.5982,4.5982,4.5982,4.5982,4.5982,4.5982,4.5982,4.5982,4.5982,4.5982,4.5982,4.5982,4.5982,4.5982,4.5982,4.5982,4.5982,4.5982,4.5982,4.5982,4.5982,4.5982,4.5982,4.5982,4.5982,4.5982,4.5982,4.5982,4.5982,4.5982,4.5982,4.5982,4.5982,4.5982,4.5982,4.5982,4.5982,4.5982,4.5982,4.5982,4.5982,4.5997,4.5997,4.5977,4.5986,4.5994,4.5983,4.5997,4.5949,4.5918,4.5899,4.588,4.586,4.5847,4.5807,4.5807,4.5814,4.5807,4.5807,4.5807,4.5807,4.58,4.5773,4.5745,4.5665,4.5569,4.539,4.5118,4.485,4.4629,4.4573,4.4537,4.5982,4.5982,4.5982,4.5982,4.5982,4.5982,4.5982,4.5982,4.5982,4.5982,4.5982,4.5982,4.5982,4.5982,4.5982,4.5982,4.5982,4.5982,4.656,4.7084,4.7293,4.7453,4.7842,4.8366,4.8386,4.8386,4.8832,4.9745,4.9926,4.9881,4.992,4.9887,4.9499,4.858,4.7706,4.7104,4.6715,4.6215,4.6235,4.6157,4.606,4.5982,4.5982,4.5982,4.5982,4.5982,4.5982,4.5982,4.5982,4.5982,4.5982,4.5982,4.5982,4.5982,4.5982,4.5982,4.5982,4.5982,4.5982,4.5982,4.5982,4.5982,4.5982,4.5982,4.5982,4.5982,4.5982,4.5982,4.5982,4.5982,4.5982,4.5982,4.5982,4.5982,4.5982,4.5982,4.5982,4.5982,4.5982,4.5982,4.5982,4.5982,4.5982,4.5982,4.5982,4.5982,4.5982,4.5997,4.5986,4.5994,4.5989,4.5983,4.5955,4.5925,4.5906,4.5893,4.588,4.5848,4.5834,4.5834,4.5821,4.5814,4.584,4.584,4.5807,4.5793,4.5759,4.5681,4.5585,4.5409,4.5275,4.5077,4.4879,4.4655,4.4568,4.5982,4.5982,4.5982,4.5982,4.5982,4.5982,4.5982,4.5982,4.5982,4.5982,4.5982,4.5982,4.5982,4.5982,4.5982,4.5982,4.5982,4.6118,4.6599,4.6968,4.7162,4.7667,4.825,4.8774,4.8774,4.9007,4.9532,5.0017,4.926,4.9473,4.994,4.9771,4.959,4.8813,4.8211,4.7623,4.689,4.6346,4.6463,4.6346,4.6099,4.6002,4.5982,4.5982,4.5982,4.5982,4.5982,4.5982,4.5982,4.5982,4.5982,4.5982,4.5982,4.5982,4.5982,4.5982,4.5982,4.5982,4.5982,4.5982,4.5982,4.5982,4.5982,4.5982,4.5982,4.5982,4.5982,4.5982,4.5982,4.5982,4.5982,4.5982,4.5982,4.5982,4.5982,4.5982,4.5982,4.5982,4.5982,4.5982,4.5982,4.5982,4.5982,4.5982,4.5982,4.5982,4.5982,4.5982,4.5997,4.5986,4.598,4.5994,4.5983,4.5955,4.5943,4.5931,4.5918,4.5886,4.5874,4.5848,4.5867,4.5861,4.5867,4.586,4.5834,4.5821,4.58,4.573,4.5673,4.5642,4.5524,4.5323,4.511,4.4903,4.4745,4.5982,4.5982,4.5982,4.5982,4.5982,4.5982,4.5982,4.5982,4.5982,4.5982,4.5982,4.5982,4.5982,4.5982,4.5982,4.5982,4.5982,4.6002,4.6293,4.6521,4.6832,4.7298,4.8055,4.8619,4.8619,4.9027,4.9415,4.9668,4.9124,4.9512,5.0056,5.0348,4.9784,4.9182,4.8735,4.8347,4.7492,4.6735,4.6327,4.6366,4.6215,4.5982,4.5982,4.5982,4.5982,4.5982,4.5982,4.5982,4.5982,4.5982,4.5982,4.5982,4.5982,4.5982,4.5982,4.5982,4.5982,4.5982,4.5982,4.5982,4.5982,4.5982,4.5982,4.5982,4.5982,4.5982,4.5982,4.5982,4.5982,4.5982,4.5982,4.5982,4.5982,4.5982,4.5982,4.5982,4.5982,4.5982,4.5982,4.5982,4.5982,4.5982,4.5982,4.5982,4.5982,4.5982,4.5982,4.5982,4.5982,4.5997,4.5997,4.5991,4.598,4.5989,4.5978,4.5966,4.5949,4.5911,4.5899,4.5899,4.5905,4.5899,4.588,4.5874,4.5867,4.5854,4.5848,4.5848,4.5808,4.5773,4.5737,4.5618,4.5418,4.5182,4.5041,4.5982,4.5982,4.5982,4.5982,4.5982,4.5982,4.5982,4.5982,4.5982,4.5982,4.5982,4.5982,4.5982,4.5982,4.5982,4.5982,4.5982,4.6002,4.6021,4.6021,4.6177,4.6618,4.7026,4.7331,4.7764,4.823,4.8677,4.9085,4.9687,4.9843,5.0076,5.0911,5.0639,4.9804,4.8774,4.8502,4.7648,4.6715,4.623,4.6099,4.606,4.5982,4.5982,4.5982,4.5982,4.5982,4.5982,4.5982,4.5982,4.5982,4.5982,4.5982,4.5982,4.5982,4.5982,4.5982,4.5982,4.5982,4.5982,4.5982,4.5982,4.5982,4.5982,4.5982,4.5982,4.5982,4.5982,4.5982,4.5982,4.5982,4.5982,4.5982,4.5982,4.5982,4.5982,4.5982,4.5982,4.5982,4.5982,4.5982,4.5982,4.5982,4.5982,4.5982,4.5982,4.5982,4.5982,4.5982,4.5982,4.5982,4.5982,4.5982,4.5997,4.5986,4.5994,4.5983,4.5972,4.5935,4.5929,4.591,4.5922,4.591,4.5898,4.588,4.5886,4.5899,4.5899,4.5893,4.588,4.5861,4.5841,4.586,4.57,4.5454,4.5323,4.5982,4.5982,4.5982,4.5982,4.5982,4.5982,4.5982,4.5982,4.5982,4.5982,4.5982,4.5982,4.5982,4.5982,4.5982,4.5982,4.5982,4.5982,4.5982,4.6002,4.6002,4.6196,4.6463,4.6987,4.7084,4.7143,4.7628,4.8366,4.8444,4.8813,4.8968,4.8522,4.9027,4.9163,4.8463,4.8094,4.7201,4.6618,4.6249,4.6021,4.5982,4.5982,4.5982,4.5982,4.5982,4.5982,4.5982,4.5982,4.5982,4.5982,4.5982,4.5982,4.5982,4.5982,4.5982,4.5982,4.5982,4.5982,4.5982,4.5982,4.5982,4.5982,4.5982,4.5982,4.5982,4.5982,4.5982,4.5982,4.5982,4.5982,4.5982,4.5982,4.5982,4.5982,4.5982,4.5982,4.5982,4.5982,4.5982,4.5982,4.5982,4.5982,4.5982,4.5982,4.5982,4.5982,4.5982,4.5982,4.5982,4.5982,4.5982,4.5982,4.5982,4.5997,4.5986,4.5986,4.5975,4.5975,4.5969,4.5956,4.5956,4.5964,4.5941,4.5904,4.5892,4.5904,4.591,4.5892,4.5905,4.5918,4.5912,4.5906,4.5893,4.5703,4.5594,4.5982,4.5982,4.5982,4.5982,4.5982,4.5982,4.5982,4.5982,4.5982,4.5982,4.5982,4.5982,4.5982,4.5982,4.5982,4.5982,4.5982,4.5982,4.5982,4.5982,4.606,4.6332,4.656,4.6696,4.6832,4.6871,4.7376,4.7764,4.7434,4.8114,4.8386,4.7958,4.8561,4.8696,4.8172,4.7298,4.6832,4.6676,4.623,4.6041,4.5982,4.5982,4.5982,4.5982,4.5982,4.5982,4.5982,4.5982,4.5982,4.5982,4.5982,4.5982,4.5982,4.5982,4.5982,4.5982,4.5982,4.5982,4.5982,4.5982,4.5982,4.5982,4.5982,4.5982,4.5982,4.5982,4.5982,4.5982,4.5982,4.5982,4.5982,4.5982,4.5982,4.5982,4.5982,4.5982,4.5982,4.5982,4.5982,4.5982,4.5982,4.5982,4.5982,4.5982,4.5982,4.5982,4.5982,4.5982,4.5982,4.5982,4.5982,4.5982,4.5982,4.5982,4.5997,4.5997,4.5991,4.5997,4.5982,4.5977,4.5966,4.598,4.5969,4.5953,4.5927,4.5939,4.5933,4.5922,4.5935,4.5955,4.5949,4.5923,4.5911,4.5899,4.5801,4.6007,4.5982,4.5982,4.5982,4.5982,4.5982,4.5982,4.5982,4.5982,4.5982,4.5982,4.5982,4.5982,4.5982,4.5982,4.5982,4.5982,4.5982,4.5982,4.5982,4.5982,4.6235,4.6371,4.6443,4.6521,4.6696,4.7045,4.7123,4.7026,4.7745,4.825,4.8483,4.8658,4.8794,4.7958,4.7609,4.7414,4.6676,4.621,4.6021,4.5982,4.5982,4.5982,4.5982,4.5982,4.5982,4.5982,4.5982,4.5982,4.5982,4.5982,4.5982,4.5982,4.5982,4.5982,4.5982,4.5982,4.5982,4.5982,4.5982,4.5982,4.5982,4.5982,4.5982,4.5982,4.5982,4.5982,4.5982,4.5982,4.5982,4.5982,4.5982,4.5982,4.5982,4.5982,4.5982,4.5982,4.5982,4.5982,4.5982,4.5982,4.5982,4.5982,4.5982,4.5982,4.5982,4.5982,4.5982,4.5982,4.5982,4.5982,4.5982,4.5982,4.5982,4.5982,4.5982,4.5982,4.5982,4.5982,4.5982,4.5997,4.5991,4.5991,4.5991,4.5972,4.5966,4.5966,4.5961,4.5994,4.5983,4.5983,4.5958,4.5947,4.5935,4.5923,4.6042,4.5982,4.5982,4.5982,4.5982,4.5982,4.5982,4.5982,4.5982,4.5982,4.5982,4.5982,4.5982,4.5982,4.5982,4.5982,4.5982,4.5982,4.5982,4.5982,4.5982,4.6138,4.6215,4.6196,4.6138,4.6268,4.6385,4.6293,4.6546,4.7148,4.7201,4.6798,4.7575,4.7706,4.7473,4.724,4.6993,4.656,4.6268,4.5982,4.5982,4.5982,4.5982,4.5982,4.5982,4.5982,4.5982,4.5982,4.5982,4.5982,4.5982,4.5982,4.5982,4.5982,4.5982,4.5982,4.5982,4.5982,4.5982,4.5982,4.5982,4.5982,4.5982,4.5982,4.5982,4.5982,4.5982,4.5982,4.5982,4.5982,4.5982,4.5982,4.5982,4.5982,4.5982,4.5982,4.5982,4.5982,4.5982,4.5982,4.5982,4.5982,4.5982,4.5982,4.5982,4.5982,4.5982,4.5982,4.5982,4.5982,4.5982,4.5982,4.5982,4.5982,4.5982,4.5982,4.5982,4.5982,4.5982,4.5982,4.5982,4.5982,4.5982,4.5982,4.5982,4.5977,4.6002,4.5982,4.5997,4.5986,4.5991,4.5991,4.5975,4.5964,4.5953]}]]